GFSSW_850_dewp_000.txt.gz
Dewpoint
-1 -1 -2 -3 -5 -7 -7 -8 -7 -8 -10 -6 -9 -7 -7 -10 -5 -5 -2 -2 -3 -8 -9 -9 -3 -4 -4 -7 -11 -12 -9 -4 -7 -7 -9 -12 -14 -12 -12 -5 -5 -1 -1 4 7
-0 -0 -1 -3 -4 -6 -7 -7 -7 -9 -8 -7 -6 -5 -10 -4 -4 2 -1 -7 -7 -11 -10 -5 -4 -5 -7 -10 -12 -13 -9 -11 -15 -15 -14 -15 -15 -16 -13 -7 -7 -4 2 7 8
0 -0 -1 -2 -5 -6 -7 -8 -8 -9 -6 -6 -5 -8 -5 -4 -3 -2 -9 -7 -10 -12 -8 -4 -6 -9 -10 -12 -13 -14 -12 -15 -16 -16 -17 -17 -16 -17 -13 -11 -11 -6 -4 6 8
1 0 -1 -3 -5 -7 -7 -8 -8 -6 -6 -4 -5 -8 -5 -5 -1 -8 -8 -6 -13 -18 -7 -6 -9 -10 -11 -12 -13 -13 -15 -16 -16 -17 -18 -19 -18 -18 -16 -14 -12 -8 -5 5 5
1 0 -1 -3 -6 -7 -8 -8 -7 -6 -4 -3 -7 -6 -6 -4 -5 -8 -6 -7 -9 -10 -5 -8 -9 -10 -12 -13 -15 -13 -15 -15 -16 -16 -14 -12 -14 -13 -14 -13 -11 -8 -2 3 5
0 -0 -1 -4 -6 -7 -7 -7 -6 -5 -3 -3 -9 -6 -9 -0 -7 -7 -7 -7 -9 -9 -11 -11 -11 -12 -14 -16 -15 -14 -14 -15 -14 -11 -11 -12 -12 -10 -10 -13 -13 -8 -3 1 4
-1 -1 -2 -3 -5 -6 -7 -6 -5 -3 -2 -4 -11 -10 -3 -2 -8 -8 -8 -8 -8 -7 -8 -9 -9 -12 -12 -11 -11 -12 -11 -10 -9 -8 -9 -10 -8 -10 -9 -10 -11 -11 -7 -3 1
-3 -2 -3 -4 -6 -7 -6 -5 -4 -3 -3 -5 -14 -11 0 -6 -7 -9 -9 -10 -9 -7 -7 -9 -9 -8 -8 -11 -12 -11 -9 -7 -8 -9 -7 -8 -5 -10 -9 -9 -9 -10 -10 -8 -2
-3 -4 -4 -5 -7 -6 -6 -5 -3 -2 -3 -7 -9 -7 -2 -8 -8 -8 -9 -9 -9 -6 -8 -8 -7 -11 -10 -10 -8 -8 -7 -6 -5 -9 -7 -8 -5 -9 -8 -7 -7 -8 -8 -8 -8
-1 -3 -4 -5 -6 -6 -5 -3 -1 -2 -4 -4 -3 3 -7 -8 -8 -9 -9 -7 -7 -6 -7 -7 -8 -9 -9 -8 -4 -6 -8 -10 -11 -7 -10 -10 -8 -7 -7 -7 -7 -8 -9 -7 -8
-0 -2 -4 -6 -6 -6 -4 -3 -3 -2 -0 -4 -8 -7 -10 -12 -8 -8 -8 -7 -6 -6 -5 -9 -7 -3 -4 -6 -8 -9 -10 -10 -7 -7 -7 -8 -6 -6 -6 -6 -6 -6 -6 -5 0
-0 -2 -3 -5 -5 -4 -1 5 3 -2 -4 -6 -6 -7 -7 -7 -9 -10 -8 -6 -7 -6 -8 -11 -4 -6 -7 -8 -8 -8 -8 -7 -7 -7 -8 -6 -7 -6 -6 -5 -5 -4 -3 1 2
1 -2 -3 -4 -3 -3 3 5 4 -4 -5 -5 -6 -7 -5 -6 -6 -6 -5 -9 -8 -7 -11 -2 -4 -7 -7 -5 -5 -6 -5 -1 -2 -5 -6 -6 -4 -4 -5 -5 -4 -3 -2 -1 -0
2 1 -3 -4 -2 2 4 -0 -1 -4 -2 -8 -7 -6 -6 -6 -5 -6 -5 -5 -9 -9 -7 -4 -6 -4 -4 -3 -3 -2 -2 -3 -3 -3 -3 -7 -2 -3 -4 -3 -3 -2 -2 -2 -2
0 1 0 -2 5 2 4 -6 -6 1 8 -6 -6 -5 -7 -4 -5 -5 -5 -6 -7 -6 -4 -2 -2 -2 -1 -2 -3 -0 -2 -3 -3 -2 -3 -4 -1 -0 -4 -2 -2 -2 -1 -1 -0
-0 -1 -1 0 6 5 -0 -5 -7 12 7 -4 -6 -5 -5 -5 -4 -4 -5 -3 -2 -5 -4 -3 -4 -2 -1 -3 -3 -2 -1 -1 -1 -0 6 -2 -1 4 -1 -1 -1 -1 -0 0 -0
-1 -1 1 4 6 -2 -5 -3 8 8 -4 -3 -4 -4 -4 -3 -3 -3 -2 -1 -1 -0 -0 -2 -2 -2 -3 -0 -1 -3 -0 6 8 9 8 0 -1 3 -1 -1 -1 -1 -0 1 1
-2 -1 -1 2 2 -3 -2 4 7 -3 -4 -7 -5 -4 -2 -3 -2 -2 -2 -1 -2 1 -2 0 4 -1 -3 -1 -1 -0 -0 8 8 9 5 -2 -3 1 -1 -2 -2 -1 -1 -0 1
-2 -2 2 -2 -4 -3 5 14 7 -4 -5 -5 -4 -2 -1 -2 -2 -1 -1 -1 -2 -1 1 2 2 -2 -3 -3 -3 1 2 -3 4 6 7 -2 1 -1 -2 -2 -2 -2 -2 -1 -0
-1 2 2 -1 -6 -3 8 8 -0 -4 -7 -6 -3 -2 -1 -2 -1 -1 -1 -1 -1 -2 -4 -2 3 -3 -4 -2 -1 -1 -3 3 5 8 5 -0 -1 4 0 -1 -3 -3 -3 -2 -1
3 -0 5 -5 -6 2 10 4 -2 -4 -2 -5 -3 -2 -2 -2 -2 -0 0 -1 -1 -1 -2 -2 1 -0 -2 0 0 0 1 -0 -2 3 6 5 0 -3 -2 -3 -2 -3 -2 -2 -1
2 2 1 -4 1 1 5 -0 -2 -1 -1 -0 -2 -1 -1 -1 0 1 2 2 -0 -1 1 -2 1 7 -1 -2 -2 -2 -1 -2 7 4 8 8 4 -3 -2 -1 -1 -1 -1 -0 1
3 6 -3 -2 7 13 2 0 -2 -2 -2 -1 1 0 -0 1 3 1 3 2 1 2 3 1 4 7 2 2 -1 -1 -1 -2 3 4 4 9 5 -2 1 -1 -2 -3 -0 1 1
4 7 0 3 5 3 2 2 2 0 0 0 0 -0 1 2 1 3 4 2 2 1 -1 2 -0 2 4 -1 -3 -2 -3 -4 -3 7 5 5 1 -1 -0 -0 -2 -2 0 1 0
5 3 -1 10 7 1 0 -0 1 2 -0 -0 -0 -0 2 3 2 2 2 2 1 -1 1 1 5 2 1 -2 -3 -3 -3 -3 -3 -1 2 2 -1 -2 -1 -1 1 1 1 2 2
4 3 3 3 1 1 2 1 0 -1 0 -0 0 0 0 5 1 2 -1 -1 1 1 1 2 8 6 5 -2 -2 -1 -3 -3 -4 -4 -3 -2 -1 -2 1 1 1 2 2 3 2
2 2 3 4 2 4 5 1 -0 1 2 -2 -1 1 5 2 2 2 1 1 -0 2 5 7 8 6 7 4 5 8 5 -1 -3 -3 -2 3 -0 0 1 1 1 2 2 2 1

GFSSW_850_dewp_003.txt.gz
Dewpoint
-1 -1 -2 -2 -3 -5 -7 -10 -10 -10 -10 -11 -7 -9 -7 -8 -10 -9 -10 -4 -2 -6 -12 -7 -6 -5 -6 -4 -5 -6 -10 -7 -8 -2 -8 -10 -13 -15 -6 -6 1 0 6 7 6
-1 -1 -1 -1 -3 -5 -7 -10 -10 -10 -10 -9 -7 -8 -6 -9 -6 -5 -1 -1 -7 -10 -10 -9 -7 -4 -4 -6 -6 -11 -9 -10 -13 -12 -13 -13 -15 -15 -9 -7 1 5 6 7 6
-0 -0 -1 -1 -3 -5 -8 -9 -10 -9 -11 -6 -8 -5 -6 -5 -4 -6 -1 -7 -8 -13 -12 -5 -3 -4 -5 -6 -8 -12 -11 -16 -16 -16 -15 -15 -15 -14 -9 -7 -6 6 6 6 6
0 -0 -1 -2 -4 -6 -8 -9 -9 -10 -7 -7 -5 -6 -6 -4 3 -5 -8 -7 -14 -15 -17 -6 -5 -7 -9 -9 -12 -13 -15 -16 -17 -16 -17 -17 -18 -17 -15 -11 -9 2 6 6 5
0 -0 -1 -3 -5 -7 -8 -8 -10 -8 -7 -4 -4 -5 -4 -5 -4 -8 -6 -7 -14 -16 -11 -6 -5 -8 -8 -10 -13 -14 -14 -16 -17 -16 -12 -14 -16 -15 -15 -12 -10 -6 5 5 5
-1 -1 -2 -4 -7 -8 -8 -9 -8 -7 -4 -3 -4 -4 -5 1 -6 -7 -7 -7 -8 -8 -7 -7 -7 -9 -12 -14 -13 -14 -15 -16 -16 -14 -12 -12 -13 -11 -11 -13 -10 -6 4 4 5
-2 -2 -3 -5 -7 -8 -9 -8 -6 -5 -4 -2 -4 -6 -6 -7 -7 -8 -8 -8 -8 -7 -7 -10 -9 -10 -12 -10 -13 -14 -12 -13 -12 -9 -9 -10 -8 -9 -11 -13 -13 -9 1 2 4
-3 -2 -3 -6 -7 -9 -8 -6 -5 -4 -2 -2 -6 -7 -9 -4 -7 -9 -10 -9 -10 -7 -8 -10 -10 -8 -9 -13 -13 -11 -9 -7 -8 -8 -8 -9 -6 -9 -9 -10 -12 -10 -8 -7 3
-3 -3 -4 -6 -7 -7 -6 -5 -4 -2 -2 -3 -5 -8 0 -7 -11 -8 -10 -8 -9 -7 -9 -10 -9 -9 -11 -9 -8 -8 -6 -4 -6 -7 -6 -7 -6 -8 -9 -9 -9 -9 -11 -10 -7
-3 -4 -5 -6 -7 -6 -6 -4 -2 -1 -2 -4 -2 3 0 -7 -8 -9 -9 -8 -7 -7 -7 -8 -7 -7 -6 -5 -2 -4 -5 -4 -4 -7 -10 -10 -7 -6 -7 -6 -6 -6 -3 -1 1
-2 -4 -5 -6 -6 -6 -5 -3 -2 -3 0 -4 -5 -2 -10 -11 -9 -9 -8 -7 -5 -6 -4 -6 -2 -2 -5 -6 -7 -7 -7 -4 -5 -7 -7 -7 -5 -4 -3 -4 -2 4 4 4 4
-1 -3 -5 -6 -6 -6 -4 1 5 4 -1 -4 -6 -8 -7 -8 -8 -9 -8 -6 -6 -3 -5 -7 -2 -6 -6 -6 -5 -8 -4 -1 -5 -7 -8 -7 -5 -4 -3 -2 -0 2 2 2 3
-1 -4 -6 -6 -6 -4 -1 5 4 -1 -2 -5 -7 -6 -5 -5 -6 -7 -6 -5 -6 -5 -2 -1 -5 -6 -6 -2 -1 -2 -0 -1 -2 -4 -6 -5 -3 -2 -3 -2 -2 -1 -0 0 2
2 -3 -6 -6 -4 -4 1 4 2 -6 -0 -5 -6 -8 -6 -6 -5 -6 -7 -5 -7 -2 -2 -3 -5 -3 -3 -1 -2 2 -0 -1 -2 -2 -1 -6 1 -1 -1 -0 -1 -0 -0 1 3
2 0 -4 -4 4 4 5 -1 -7 -4 5 -4 -5 -6 -6 -5 -5 -5 -11 -3 -3 -6 -2 -1 -1 0 0 -1 -2 1 -2 -1 -2 -1 -1 -2 1 -1 -1 1 0 -1 -1 0 1
-0 1 -0 0 7 4 0 -5 -7 7 7 -4 -6 -3 -6 -5 -4 -5 -5 -4 -3 -3 -2 -3 -3 -2 -2 -2 -3 -3 0 1 0 1 5 2 3 6 4 1 1 1 0 0 0
-0 -1 2 6 7 -1 -4 -7 7 7 -2 -3 -3 -3 -3 -3 -3 -2 -1 0 1 1 1 -1 -0 -2 -3 0 -1 -0 2 7 6 7 6 4 4 6 1 -0 1 2 2 2 2
-1 -1 2 4 4 -3 -4 6 7 2 -2 -5 -3 -2 -1 -2 -2 -1 -0 1 -1 2 2 3 5 -1 -2 -1 -0 1 2 5 7 7 5 -3 4 3 -1 -2 -1 -1 -1 0 1
-2 -1 -1 -1 -2 -2 4 9 8 -0 -5 -4 -3 -1 -1 -2 -1 0 0 -1 -1 -1 2 5 2 -1 -3 -3 -1 2 2 -3 5 5 5 2 1 -0 -1 -1 -2 -2 -2 1 1
-2 -2 2 -3 -4 -4 8 9 3 -4 -5 -5 -1 -1 0 -1 -0 1 1 0 0 -1 -3 -1 3 -2 -4 -2 -1 -1 -3 4 4 5 4 2 5 6 3 2 -2 -3 -1 -1 1
1 1 3 1 -5 -1 8 8 -2 -2 -1 -1 -1 -3 1 -1 -0 1 2 1 0 -1 -2 1 4 0 -2 1 2 2 2 1 1 3 5 5 3 1 1 0 0 -0 0 1 1
4 5 5 -0 -0 4 6 5 -3 -2 -1 0 1 -0 1 0 3 4 4 3 1 2 1 -1 3 3 1 -2 -2 -2 1 2 4 5 5 4 3 0 0 -1 -1 0 0 1 0
4 6 1 -2 4 6 6 0 -2 -1 -2 -1 1 1 1 3 4 5 4 2 2 2 3 2 3 5 5 3 1 -1 -1 3 5 2 2 4 4 0 1 0 -0 1 0 0 1
7 5 1 4 6 7 4 2 2 0 1 0 1 -0 2 3 3 5 5 3 1 -1 -0 3 2 2 4 1 -1 -2 -2 -1 4 4 4 4 2 -0 3 2 2 2 2 2 2
5 5 -2 4 4 5 4 3 3 2 0 0 0 2 2 3 4 6 4 3 2 -0 1 3 5 4 2 -0 -1 -2 -2 -2 -2 0 2 1 2 3 2 2 2 2 3 2 2
5 5 -3 -1 -1 4 4 2 3 2 1 2 1 2 3 3 3 5 4 3 4 2 3 5 6 4 3 3 2 1 1 -0 -1 -2 -2 -1 3 2 1 1 2 3 2 1 1
4 2 5 7 4 5 5 2 2 2 0 1 2 4 4 5 4 3 1 2 3 3 6 5 3 4 6 5 4 3 1 2 -1 -1 -2 1 2 2 2 2 3 2 1 0 -1

GFSSW_850_dewp_006.txt.gz
Dewpoint
-2 -2 -2 -2 -2 -3 -5 -6 -9 -11 -11 -10 -11 -8 -7 -7 -5 -9 -15 -12 -5 -4 -7 -10 -6 -6 -4 -3 -5 -7 -7 -7 -8 -4 -6 -12 -10 -6 1 5 4 4 6 6 6
-2 -2 -1 -1 -2 -3 -5 -7 -10 -10 -11 -10 -10 -6 -7 -5 -9 -9 -9 -3 -5 -4 -7 -9 -8 -5 -2 -4 -5 -7 -8 -9 -11 -8 -10 -13 -13 -8 -3 3 7 7 7 5 4
-1 -1 -1 -1 -2 -3 -5 -8 -10 -10 -10 -10 -6 -8 -4 -7 -4 -8 -2 -5 -7 -7 -11 -10 -8 -5 -4 -5 -6 -11 -11 -16 -14 -10 -14 -15 -15 -9 -5 1 6 7 5 4 3
-1 -1 -1 -1 -2 -3 -6 -8 -9 -10 -10 -8 -7 -4 -6 -4 2 -6 -9 -8 -9 -8 -10 -10 -8 -3 -3 -4 -7 -13 -15 -17 -16 -16 -16 -15 -15 -12 -8 -5 1 4 6 5 4
-1 -1 -1 -1 -2 -4 -7 -8 -9 -9 -9 -7 -4 -4 -5 -3 -5 -8 -6 -6 -7 -10 -13 -13 -5 -3 -7 -9 -12 -14 -15 -17 -14 -12 -15 -17 -17 -16 -11 -8 1 5 6 5 4
-1 -1 -1 -2 -3 -6 -8 -9 -9 -9 -7 -5 -4 -4 -3 0 -4 -6 -6 -7 -7 -7 -8 -7 -6 -7 -8 -9 -13 -14 -16 -17 -16 -12 -12 -13 -13 -12 -12 -5 4 6 6 5 4
-2 -1 -2 -3 -6 -8 -8 -9 -8 -6 -5 -4 -3 -4 -4 -5 -6 -8 -7 -8 -8 -8 -7 -7 -8 -8 -9 -10 -14 -15 -14 -14 -15 -11 -11 -10 -8 -10 -12 -7 5 6 6 5 4
-2 -2 -2 -5 -7 -8 -8 -8 -6 -5 -4 -2 -3 -4 -7 -5 -5 -9 -9 -9 -10 -7 -8 -9 -10 -9 -12 -13 -12 -11 -9 -9 -9 -8 -9 -10 -8 -9 -12 -10 0 5 6 5 5
-2 -3 -3 -6 -7 -8 -7 -6 -5 -4 -2 -2 -4 -4 -7 -2 -7 -9 -10 -8 -9 -9 -12 -10 -8 -9 -11 -10 -9 -7 -8 -6 -7 -8 -8 -8 -6 -8 -12 -13 -11 -7 -0 2 5
-2 -4 -4 -7 -7 -7 -6 -5 -4 -2 -2 -3 1 -0 -7 -6 -9 -11 -11 -8 -6 -7 -8 -8 -7 -6 -5 -7 -6 -6 -5 -5 -5 -7 -6 -7 -6 -6 -8 -4 1 1 3 4 5
-1 -4 -6 -7 -7 -6 -5 -3 -1 -1 -1 -7 -6 -1 -4 -7 -8 -11 -12 -7 -5 -6 -5 -5 -3 -4 -6 -6 -6 -6 -5 -4 -5 -7 -8 -4 -2 -2 2 4 4 5 6 5 5
-2 -4 -6 -6 -6 -5 -3 2 6 5 0 -6 -4 -3 -5 -8 -8 -9 -8 -6 -6 -5 -5 -4 -3 -6 -6 -3 -3 -3 -2 -2 -4 -5 -8 -3 -2 -0 2 3 3 5 5 5 5
-3 -5 -6 -6 -6 -4 -2 4 3 -0 2 -5 -6 -6 -5 -5 -8 -7 -6 -5 -5 -5 -3 -2 -4 -6 -2 -2 -1 1 -1 -2 -2 -4 -6 -2 -1 1 -0 0 1 3 4 3 4
-4 -6 -5 -6 -5 -4 -3 5 2 1 -2 -6 -6 -8 -6 -6 -6 -6 -7 -5 -4 -2 -3 -4 -3 -2 -1 -1 -1 2 -1 -2 -2 -3 -5 -5 1 -1 1 1 2 3 3 3 3
-2 -4 -5 -3 5 3 4 4 -2 2 1 -6 -5 -7 -6 -5 -5 -6 -8 -3 -4 -6 -2 -1 -1 -0 -0 -2 -2 1 -2 -2 -2 -1 -1 -2 1 1 1 2 2 2 3 2 1
1 -2 -3 -1 6 3 3 -4 -4 6 3 -3 -5 -5 -7 -5 -5 -6 -5 -3 -3 -3 -3 -2 -2 -2 -2 -2 -2 -3 -0 2 2 2 4 2 4 4 3 2 2 1 2 1 1
-0 0 3 3 5 1 -4 -5 5 4 -0 -4 -3 -3 -4 -3 -3 -2 -1 -1 1 1 1 -0 -0 -2 -2 0 -1 -1 3 6 5 5 5 3 6 5 2 1 2 2 2 1 1
-1 1 5 3 4 -0 -4 3 5 2 -1 -5 -3 -2 -2 -2 -0 -0 -0 0 -2 1 2 3 4 -1 -3 -2 -1 0 2 5 7 5 4 1 5 3 1 2 2 2 2 2 2
-1 -0 0 -1 -1 -2 1 6 7 3 -4 -3 -2 -0 -1 -2 -1 -1 -1 -1 -1 -1 2 3 2 -1 -3 -3 -1 1 -0 -1 3 3 4 3 2 -0 -1 -1 -1 -1 -0 2 2
-1 -1 -2 -2 -3 -4 6 7 5 -1 -2 -3 -1 -1 0 -1 -0 1 1 0 1 -1 -2 0 2 -2 -4 -1 -1 -4 -3 4 3 3 4 3 4 4 2 1 -1 1 1 2 2
-2 -2 -2 -4 -3 -4 6 7 2 -2 -0 -3 -1 -2 -0 -0 0 2 2 1 1 1 -2 2 1 0 1 0 1 1 2 2 2 3 4 4 3 1 3 1 1 1 1 1 1
2 4 3 2 -5 4 5 5 -2 -2 -1 -0 1 1 -0 2 5 5 5 3 2 2 -1 0 1 2 0 -2 -2 -2 1 2 3 5 3 3 2 -1 -0 0 1 1 1 1 2
4 7 6 1 -2 1 5 2 -1 -2 -1 -0 1 1 1 3 5 5 4 3 -1 2 3 0 2 3 4 3 0 -0 -0 4 2 1 2 2 1 0 1 0 1 1 2 2 2
5 4 3 3 4 4 4 2 2 0 1 0 0 1 2 3 4 5 5 3 -2 -1 1 2 4 1 5 2 -0 -2 -2 2 2 3 3 2 0 3 3 2 2 2 2 2 2
6 3 -2 2 2 5 4 2 2 2 0 -0 0 1 2 4 5 5 4 3 1 0 2 2 3 3 0 1 -0 -1 -1 -1 -0 1 2 1 2 4 3 2 3 2 2 2 1
5 5 -2 -3 -4 3 4 4 3 2 1 1 1 3 3 3 3 5 3 3 3 2 4 4 3 3 1 4 4 1 0 0 -0 -2 -1 3 4 2 2 3 2 2 1 1 -3
4 5 -4 6 1 3 4 2 3 2 1 1 3 4 4 4 3 2 3 3 3 3 4 3 2 1 3 4 3 1 -0 1 -0 2 -1 1 3 2 2 2 2 1 0 -2 -4

GFSSW_850_dewp_009.txt.gz
Dewpoint
-3 -3 -3 -2 -2 -2 -2 -3 -5 -8 -11 -12 -11 -12 -9 -7 -8 -6 -8 -15 -12 -5 -6 -10 -6 -4 -5 -4 -5 -7 -6 -6 -7 -2 1 0 -9 2 6 6 5 5 8 11 13
-2 -3 -2 -2 -1 -2 -2 -3 -5 -9 -11 -11 -10 -11 -6 -6 -6 -11 -21 -19 -8 -3 -5 -10 -7 -4 -2 -3 -4 -6 -6 -7 -10 -5 -4 -10 -3 3 5 6 7 6 8 11 9
-2 -2 -1 -1 -1 -1 -2 -4 -6 -9 -10 -11 -11 -6 -6 -6 -5 -13 -7 -3 -4 -3 -4 -4 -6 -6 -3 -4 -6 -8 -9 -14 -15 -6 -8 -11 -10 -7 5 5 6 6 8 9 8
-1 -1 -1 -1 -1 -2 -2 -4 -6 -8 -10 -10 -8 -6 -4 -5 -1 -5 -4 -5 -3 -2 -6 -6 -6 -4 -3 -3 -5 -9 -13 -14 -14 -9 -14 -15 -12 -4 -5 3 4 4 5 7 6
-1 -1 -1 -0 -1 -2 -3 -5 -7 -9 -9 -8 -6 -4 -5 -3 -5 -6 -7 -7 -7 -8 -11 -8 -7 -5 -6 -8 -7 -13 -16 -15 -15 -15 -15 -16 -15 -12 -10 -3 5 4 5 4 4
-1 -2 -1 -1 -1 -3 -4 -6 -8 -8 -9 -6 -5 -4 -4 -2 -5 -6 -6 -7 -6 -6 -7 -7 -11 -9 -5 -9 -14 -14 -16 -16 -12 -13 -17 -16 -13 -11 -10 4 6 5 4 4 3
-2 -2 -2 -1 -2 -4 -6 -7 -8 -8 -6 -4 -3 -3 -4 -6 -5 -6 -8 -7 -8 -9 -6 -6 -6 -5 -8 -8 -13 -15 -14 -14 -15 -11 -11 -11 -9 -11 -8 5 6 5 5 5 4
-0 -2 -2 -2 -4 -6 -7 -7 -7 -6 -5 -3 -2 -3 -7 -7 -6 -8 -9 -9 -8 -8 -8 -9 -8 -7 -11 -12 -12 -10 -10 -10 -11 -9 -9 -12 -10 -10 -9 5 6 6 6 6 5
0 -2 -3 -3 -5 -6 -7 -6 -5 -4 -3 -2 -3 -3 -9 -6 -6 -9 -9 -9 -9 -7 -7 -9 -8 -10 -11 -10 -9 -8 -8 -8 -7 -9 -8 -9 -6 -8 -10 4 5 6 6 6 6
0 -3 -4 -5 -6 -6 -6 -5 -4 -3 -2 -1 1 -3 -10 -7 -11 -8 -10 -8 -7 -7 -9 -8 -7 -6 -6 -10 -10 -8 -6 -7 -7 -8 -7 -7 -4 -2 -3 -5 2 3 3 4 4
-1 -4 -5 -5 -6 -6 -5 -3 -1 -0 0 -9 -7 -5 -3 -4 -8 -11 -11 -7 -6 -6 -4 -5 -4 -5 -6 -6 -7 -7 -6 -5 -6 -8 -2 -1 1 4 4 5 6 5 6 6 6
-2 -4 -6 -5 -6 -5 -4 3 6 5 3 -8 -7 -4 -4 -6 -9 -11 -10 -7 -6 -5 -6 -4 -3 -6 -3 -2 -4 -3 -3 -2 -4 -5 -1 2 2 2 3 5 6 5 6 7 7
-2 -3 -5 -5 -5 -4 -1 2 4 2 3 -5 -5 -5 -5 -6 -8 -7 -6 -5 -6 -5 -4 -3 -5 -5 -3 -2 -0 0 -2 -2 -3 -2 -1 1 2 0 0 3 5 5 4 5 5
-2 -4 -5 -6 -4 -4 -3 5 4 2 -2 -5 -7 -8 -6 -7 -6 -6 -7 -6 -4 -3 -4 -3 -1 -2 -2 -2 -1 1 -1 -2 -3 -0 2 -2 5 1 2 3 4 5 4 4 4
-2 -5 -6 -3 2 -2 4 4 1 3 -0 -7 -5 -6 -6 -4 -7 -7 -5 -3 -4 -3 -3 -0 -1 -1 -1 -2 -2 0 -2 -2 -2 -2 -1 -0 2 2 2 4 4 4 4 3 2
-0 -5 -5 2 4 3 3 -4 -2 4 1 -3 -5 -5 -7 -5 -5 -6 -3 -3 -3 -2 -2 -2 -2 -3 -2 -2 -2 -3 0 2 2 2 3 2 3 3 3 3 3 3 4 3 2
1 -4 -4 3 6 1 -3 -4 2 5 -1 -3 -3 -4 -4 -3 -2 -2 -2 -1 0 0 1 -0 -1 -2 -2 -0 -1 -0 2 5 5 5 5 2 4 4 1 1 2 3 3 2 2
1 0 2 4 5 -0 -1 -0 5 2 0 -5 -3 -3 -2 -1 -1 -1 -1 -1 -2 0 2 2 4 -1 -3 -2 -1 1 2 5 6 5 3 2 5 3 1 1 1 2 2 2 2
0 4 4 -1 2 -1 -3 4 5 3 -3 -2 -1 -0 -1 -1 -1 -0 -0 -1 -1 -1 2 2 2 -2 -3 -3 -1 0 0 -0 4 3 4 4 2 -0 1 2 1 2 2 2 3
1 2 -0 -2 -2 -3 5 6 6 2 -3 -3 -0 -1 -0 -1 0 1 1 1 1 -1 -1 1 1 -2 -3 -1 -1 -2 -1 3 2 3 4 3 4 4 1 2 -0 0 2 2 3
-0 -1 -1 -2 -2 -5 4 6 5 -2 -0 -4 -2 -1 -1 -1 1 2 3 2 2 2 -1 2 -1 -0 -0 0 1 1 1 1 2 2 3 4 5 -0 1 0 2 2 2 2 2
-0 -2 2 -2 -3 3 4 5 2 -2 -1 1 1 -1 -0 2 4 4 4 3 2 2 -0 1 1 2 0 -1 -1 -1 1 0 1 3 3 2 2 -1 1 1 2 2 2 2 1
-0 8 7 1 -1 0 1 4 -0 -2 -1 0 1 1 1 4 5 4 4 2 -2 1 2 -0 1 3 4 2 -1 -0 1 2 1 1 4 1 -0 1 1 1 2 2 2 2 1
2 5 6 4 -2 -3 1 2 2 0 1 0 1 1 2 4 4 5 4 3 -1 0 2 2 3 1 4 2 -0 -2 -1 1 0 2 2 2 -0 3 2 2 2 2 2 1 1
4 1 3 3 4 6 3 2 2 1 0 -0 0 1 2 4 5 5 4 2 0 1 3 1 1 2 1 2 -0 -1 -2 1 2 1 2 1 1 2 3 2 2 2 1 1 0
6 2 -1 -2 -2 4 4 4 2 1 1 1 2 3 2 3 2 5 3 2 1 3 4 1 3 1 3 3 3 0 -1 -1 -1 -1 1 2 4 2 2 3 2 2 1 1 -0
5 5 -4 3 2 3 4 3 3 1 2 1 3 3 3 4 3 3 2 2 2 3 3 2 2 -2 -2 2 1 -3 -1 1 -1 1 1 4 2 2 3 3 2 2 1 0 -3

GFSSW_850_dewp_012.txt.gz
Dewpoint
-6 -4 -3 -3 -2 -2 -2 -2 -3 -4 -7 -11 -13 -11 -10 -11 -7 -9 -11 -12 -13 -5 -9 -11 -11 -8 -4 -4 -4 -7 -6 -6 0 3 2 -0 -5 3 6 7 6 6 10 10 10
-4 -3 -2 -2 -2 -1 -1 -1 -2 -4 -7 -11 -11 -10 -9 -7 -7 -9 -14 -14 -14 -6 -6 -9 -6 -3 -3 -3 -4 -6 -5 -7 -8 -1 3 3 -2 2 6 6 6 7 11 11 11
-3 -2 -2 -2 -1 -1 -1 -1 -2 -4 -7 -10 -10 -9 -6 -6 -6 -14 -15 -9 -9 -8 -4 -5 -6 -5 -3 -4 -5 -7 -6 -11 -11 1 1 -5 -2 -1 6 6 6 9 11 13 11
-2 -1 -1 -1 -1 -0 -0 -1 -3 -5 -8 -10 -9 -6 -5 -5 -2 -5 -5 -3 -4 -2 -4 -4 -5 -4 -3 -4 -5 -8 -10 -12 -14 -3 -5 -7 -6 2 4 2 4 3 7 11 7
-1 -1 -2 -2 -1 -0 -1 -2 -4 -6 -8 -9 -7 -5 -4 -3 -7 -4 -7 -6 -4 -4 -5 -6 -6 -6 -4 -4 -7 -8 -12 -14 -14 -8 -11 -10 -11 -0 -4 2 5 7 7 8 7
-1 -2 -3 -2 -1 -0 -2 -3 -6 -8 -8 -8 -5 -4 -3 -0 -5 -4 -6 -6 -6 -7 -6 -5 -9 -10 -4 -8 -9 -10 -16 -15 -12 -15 -15 -15 -13 -12 -9 3 5 6 6 6 6
-2 -1 -3 -2 -1 -1 -3 -5 -7 -8 -8 -5 -4 -3 -3 -7 -5 -6 -7 -8 -7 -7 -6 -6 -7 -7 -5 -8 -12 -16 -15 -14 -14 -12 -12 -11 -10 -11 -3 6 5 6 7 8 8
0 0 -2 -2 -2 -3 -5 -7 -7 -7 -5 -4 -2 -2 -7 -8 -7 -6 -8 -9 -9 -8 -8 -7 -5 -5 -4 -11 -11 -11 -11 -10 -13 -10 -9 -14 -13 -9 5 5 5 5 5 5 6
1 0 -2 -3 -3 -5 -6 -7 -6 -5 -4 -2 -1 -1 -8 -8 -6 -8 -9 -9 -8 -7 -6 -6 -6 -6 -12 -9 -9 -9 -8 -9 -8 -9 -9 -11 -6 -1 1 6 6 6 6 6 5
1 -0 -3 -3 -4 -5 -6 -5 -4 -3 -2 -0 1 -1 -11 -7 -7 -9 -10 -9 -6 -6 -6 -7 -7 -7 -6 -11 -7 -9 -8 -8 -8 -8 -3 -4 4 4 1 5 5 6 6 6 6
1 -1 -3 -4 -5 -5 -5 -3 -0 1 0 -7 -6 -6 -6 -5 -8 -8 -10 -8 -6 -6 -4 -5 -4 -5 -6 -8 -11 -8 -7 -7 -7 -6 2 4 4 4 6 5 5 5 5 6 6
0 -2 -5 -5 -5 -5 -4 2 6 3 3 -7 -8 -6 -5 -5 -6 -9 -9 -6 -6 -5 -6 -4 -4 -6 -3 -3 -3 -4 -3 -3 -3 -2 2 3 3 2 3 5 5 6 7 7 6
-0 -3 -5 -5 -5 -4 -1 1 4 4 3 -3 -4 -5 -5 -7 -7 -9 -7 -6 -6 -5 -4 -3 -5 -4 -3 -2 -1 -0 -2 -2 -2 1 1 2 3 2 2 5 5 6 7 7 7
-0 -4 -3 -5 -3 -4 -3 3 5 4 -3 -4 -7 -8 -6 -6 -6 -6 -6 -6 -4 -4 -3 -1 -2 -2 -2 -2 -1 -0 -1 -3 0 1 3 -0 6 2 3 5 4 5 5 5 5
-1 -4 -3 -4 -2 -2 5 2 2 4 -1 -7 -6 -7 -5 -5 -7 -5 -3 -4 -4 -3 -3 -0 -1 -1 -1 -2 -2 -0 -1 -2 -2 -1 -1 1 4 2 4 5 5 4 4 4 3
-1 -3 -2 2 3 4 1 -2 0 4 1 -4 -5 -6 -5 -4 -5 -4 -3 -4 -3 -1 -1 -1 -2 -2 -2 -2 -3 -2 0 1 2 1 3 1 2 3 5 4 4 4 4 3 3
-0 -2 -2 3 5 0 -3 -2 2 5 -2 -3 -4 -6 -4 -2 -1 -2 -1 -1 -1 1 1 -1 -1 -3 -2 -0 -2 1 1 4 4 4 5 2 3 2 2 2 3 4 4 3 3
2 -0 -2 5 4 -0 -2 -2 2 2 0 -5 -3 -4 -1 -1 -1 -1 -1 -0 -2 -0 2 2 2 -2 -4 -2 -0 0 1 4 4 5 4 2 5 3 0 0 2 3 3 3 3
1 1 6 3 1 -1 -3 1 3 2 -2 -2 -2 -1 -0 -1 -1 -0 -0 -1 -0 -1 2 2 1 -2 -3 -3 -1 0 0 -0 4 2 4 3 2 1 2 2 2 2 3 3 3
1 5 2 -2 -2 -2 2 3 5 3 -2 -3 -1 -1 0 -0 0 1 1 1 1 0 -1 1 0 -1 -3 -1 -2 -2 -1 1 2 2 3 3 4 4 3 3 2 2 2 3 3
5 2 1 -2 -3 -4 1 3 5 3 -1 -3 -1 -0 -1 -1 1 2 2 2 2 2 0 -0 -1 -1 -1 0 0 1 1 1 1 2 2 3 4 0 2 2 1 1 2 2 3
4 -1 2 -1 -3 2 2 4 4 -1 -1 0 -1 -1 -1 2 3 3 3 2 1 2 -0 0 1 2 0 -1 0 -1 0 -1 0 0 2 1 1 -2 0 -0 0 2 2 2 2
-0 7 5 -1 -1 0 -0 3 2 -2 -0 0 1 1 2 4 4 4 4 1 -2 0 1 -1 1 4 2 -0 -2 -0 2 1 -0 1 3 2 1 1 2 2 2 2 2 2 1
0 6 7 4 -4 -2 -1 1 2 0 0 0 1 1 3 4 4 5 4 2 -0 1 2 -0 1 0 2 0 -0 -1 1 0 -1 1 1 2 -2 2 2 2 2 2 2 1 1
1 4 5 4 3 0 -1 2 2 1 0 -0 1 1 3 4 4 5 4 2 1 2 3 -1 1 1 2 2 0 -1 -2 2 1 -0 1 -0 -0 -1 2 2 2 2 2 1 1
4 1 1 1 3 4 3 3 2 1 1 1 1 3 1 3 2 4 2 0 -1 4 3 -0 1 -0 3 2 2 1 -1 -1 0 -0 1 1 1 0 1 1 2 2 1 1 1
5 3 1 2 2 4 4 4 3 2 3 2 1 2 2 3 3 2 1 2 2 3 2 -0 1 -3 -4 1 -1 -3 -2 -1 -1 -1 -1 2 -1 2 3 2 2 2 2 2 1

GFSSW_850_dewp_015.txt.gz
Dewpoint
-8 -7 -6 -5 -4 -3 -2 -2 -2 -3 -3 -5 -8 -11 -11 -11 -11 -9 -13 -14 -13 -8 -7 -9 -6 -9 -5 -5 -4 -7 -6 1 3 4 6 4 1 3 6 7 7 7 12 12 12
-8 -6 -5 -3 -2 -2 -2 -2 -2 -3 -4 -5 -9 -10 -11 -9 -8 -10 -11 -12 -10 -6 -8 -10 -10 -7 -4 -4 -4 -6 -4 -5 -3 2 4 3 1 3 7 7 6 11 12 11 11
-6 -4 -3 -2 -2 -2 -2 -1 -2 -3 -4 -7 -9 -10 -9 -7 -6 -7 -12 -16 -13 -6 -6 -8 -6 -4 -3 -4 -4 -5 -4 -7 -9 1 2 1 -1 3 6 7 6 11 12 11 14
-4 -2 -2 -2 -2 -2 -1 -1 -2 -3 -5 -8 -9 -9 -6 -5 -2 -4 -8 -9 -6 -7 -5 -5 -5 -5 -3 -3 -5 -7 -7 -12 -11 -0 1 -0 -3 4 6 4 5 7 8 9 12
-3 -1 -2 -3 -3 -2 -1 -2 -3 -4 -7 -9 -9 -6 -4 -4 -8 -6 -5 -4 -5 -5 -6 -6 -5 -5 -2 -3 -5 -6 -8 -13 -13 -7 -2 -5 -3 3 2 1 4 7 9 8 8
-2 -1 -3 -2 -2 -1 -1 -2 -4 -6 -8 -9 -7 -5 -3 -0 -5 -4 -6 -6 -5 -4 -3 -4 -7 -7 -5 -6 -5 -8 -14 -14 -13 -10 -11 -8 -11 -3 -4 5 5 6 7 9 9
-1 -1 -1 -1 -2 -1 -2 -4 -6 -8 -8 -7 -5 -4 -3 -7 -5 -6 -6 -6 -7 -6 -7 -7 -7 -7 -5 -6 -11 -15 -13 -13 -11 -14 -14 -12 -10 -8 3 6 7 12 11 10 9
-0 0 0 -0 -2 -1 -3 -6 -7 -8 -6 -4 -4 -2 -6 -8 -7 -6 -6 -8 -9 -8 -5 -5 -5 -5 -5 -9 -10 -11 -9 -10 -12 -9 -10 -13 -10 -1 6 6 7 9 10 9 8
0 1 1 -1 -2 -2 -5 -7 -7 -5 -4 -3 -1 -1 -5 -8 -6 -6 -8 -9 -8 -8 -5 -5 -4 -4 -9 -8 -8 -7 -7 -7 -8 -5 -8 -8 -4 2 2 6 6 6 7 7 7
1 1 1 -1 -2 -4 -6 -5 -5 -4 -3 -1 0 0 -10 -6 -6 -8 -9 -9 -5 -6 -5 -4 -6 -5 -7 -9 -7 -7 -7 -7 -6 -5 -1 1 4 4 4 6 6 6 6 6 5
1 1 0 -2 -3 -5 -5 -4 -0 0 -1 -6 -7 -6 -8 -5 -5 -10 -9 -7 -6 -6 -4 -5 -4 -5 -5 -8 -11 -8 -7 -7 -5 -1 4 5 5 4 5 5 6 6 6 6 6
1 1 -0 -3 -5 -5 -4 -1 4 3 3 -5 -6 -7 -7 -6 -6 -9 -10 -6 -6 -3 -5 -3 -2 -5 -3 -3 -4 -4 -3 -1 -0 1 3 4 5 5 4 5 5 6 6 6 6
1 1 -2 -3 -4 -4 -3 3 3 5 4 -1 -3 -3 -5 -6 -7 -10 -8 -6 -6 -4 -4 -2 -4 -4 -2 -1 -0 -0 -1 -1 1 2 2 3 4 6 5 5 6 6 6 7 7
1 1 -2 -4 -3 -3 -1 -2 6 6 -1 -4 -6 -7 -6 -6 -6 -6 -6 -6 -4 -3 -1 -0 -2 -3 -2 -1 -1 1 -2 0 3 1 3 -0 0 5 6 6 6 6 6 7 9
1 -0 -2 -3 -2 -3 2 5 5 5 3 -6 -7 -6 -5 -7 -7 -4 -3 -4 -3 -2 -2 0 -1 -1 -0 -1 -1 1 -1 -0 -2 -1 -0 2 3 3 6 7 6 5 5 5 6
1 -1 -2 -2 2 -1 6 2 4 5 4 -5 -5 -6 -4 -4 -4 -3 -3 -4 -3 -0 -1 -1 -2 -2 -2 -1 -2 0 1 1 2 1 3 1 1 3 6 6 5 5 5 4 3
2 -1 -2 -1 3 5 3 3 4 5 -1 -3 -4 -5 -3 -1 -1 -2 -1 0 0 2 3 -0 -0 -2 -2 0 -1 0 2 4 6 7 4 2 3 2 2 3 4 4 4 4 2
1 -0 -2 2 7 2 3 -1 1 1 1 -5 -4 -3 -1 -1 -1 -1 -1 0 -1 -0 2 1 0 -2 -3 -1 1 1 2 6 6 7 4 2 5 2 0 1 3 3 4 3 2
1 2 -0 2 7 2 -2 3 1 2 -1 -2 -2 -0 -0 -1 -1 0 0 -0 -0 -1 2 3 2 -3 -3 -2 -0 1 0 1 4 2 4 2 2 0 2 1 3 3 4 4 3
1 2 1 5 4 2 2 1 1 2 -1 -3 -2 -1 1 0 1 1 0 1 0 1 -1 2 2 -1 -2 -1 -1 -1 -1 2 2 3 3 1 3 2 4 2 3 3 3 4 3
1 3 5 3 2 -2 3 0 5 4 1 -2 -1 -0 0 1 1 2 1 2 2 1 -0 -1 1 1 -0 1 1 1 1 2 1 2 1 2 -0 1 2 2 2 3 3 3 3
5 2 4 1 -1 1 2 3 4 2 -0 1 -2 -1 0 2 3 3 3 2 1 2 1 0 2 4 0 -1 0 -1 1 0 3 1 2 3 1 -2 1 1 2 2 2 2 3
4 7 7 -0 2 2 -0 2 3 -0 -0 0 2 1 2 4 4 4 4 1 -1 0 2 1 3 5 2 -1 -1 1 2 -0 1 2 4 8 -0 -1 1 1 1 2 2 2 3
3 7 7 1 -4 -1 -0 1 1 1 0 0 2 2 4 4 4 5 4 1 0 2 1 -1 1 2 3 -0 0 1 2 -0 0 3 2 4 0 -2 1 2 2 2 2 2 2
3 5 6 5 1 -2 -3 1 2 2 0 -0 2 1 3 5 4 5 4 1 2 2 2 0 2 2 2 1 1 -1 0 1 -0 0 3 0 0 -2 -1 1 2 2 2 2 1
1 3 2 2 -2 -0 -1 3 2 1 1 0 3 2 1 4 2 5 3 1 -0 4 2 -0 2 0 3 2 1 1 -1 -1 1 1 -0 0 1 -2 -0 1 2 2 2 1 1
4 1 -2 2 4 2 3 2 2 2 3 2 2 3 3 3 2 2 0 1 2 3 2 0 2 -0 -1 0 -1 0 -0 -1 -0 -1 0 2 -1 1 2 2 2 2 2 1 1

GFSSW_850_dewp_021.txt.gz
Dewpoint
-10 -9 -8 -7 -7 -6 -6 -4 -4 -3 -2 -3 -4 -5 -9 -13 -13 -9 -6 -6 -8 -14 -6 -3 -5 -4 -7 -10 -11 -9 -8 -9 -5 4 6 2 2 3 2 3 5 7 8 11 13
-9 -8 -7 -7 -6 -5 -5 -4 -4 -2 -2 -3 -4 -7 -12 -12 -12 -9 -8 -10 -13 -13 -6 -5 -5 -7 -9 -10 -10 -11 -10 -10 -1 4 7 0 -0 0 2 1 4 8 10 13 13
-10 -8 -6 -6 -5 -3 -4 -5 -4 -2 -2 -3 -6 -9 -12 -10 0 -2 -4 -7 -12 -12 -5 -8 -8 -9 -9 -10 -10 -10 -7 -8 -5 2 2 2 1 -1 3 4 4 7 10 12 13
-9 -7 -6 -5 -3 -3 -4 -5 -3 -2 -2 -5 -7 -11 -10 -7 2 -1 -5 -15 -12 -6 -5 -9 -10 -9 -9 -9 -10 -8 -9 -9 -4 -0 -3 -3 -2 -1 5 7 3 7 11 12 11
-8 -7 -5 -3 -2 -2 -4 -4 -2 -2 -4 -6 -10 -10 -8 5 0 -4 -9 -14 -11 -6 -5 -9 -8 -8 -10 -11 -11 -7 -8 -7 -3 -2 -5 -4 -3 2 4 1 4 8 11 10 11
-8 -6 -3 -2 -1 -1 -3 -3 -3 -3 -5 -8 -11 -9 -3 2 -4 -1 -7 -11 -4 -3 -7 -8 -8 -10 -10 -9 -7 -8 -8 -10 -7 -4 0 -4 -4 1 0 2 6 9 8 7 8
-8 -6 -2 -1 -0 -1 -3 -3 -4 -5 -7 -9 -10 -6 2 -0 -4 1 -4 -4 -4 -6 -6 -6 -6 -7 -6 -6 -6 -9 -9 -11 -9 -4 -3 -5 -7 -4 1 3 5 5 5 6 5
-7 -5 -1 -1 0 -1 -3 -4 -5 -7 -8 -9 -6 -4 3 -2 -3 -1 -0 -1 -2 -3 -4 -3 -3 -4 -5 -5 -8 -9 -9 -7 -9 -5 -4 -4 -5 -3 1 2 3 3 4 6 6
-7 -3 -1 0 1 -2 -4 -5 -6 -8 -8 -6 -3 1 1 -5 -6 -5 -3 -4 -2 -2 -3 -3 -2 -3 -4 -3 -7 -8 -7 -7 -7 -8 -5 -5 -5 -5 0 0 2 3 5 6 6
-6 -2 -0 0 1 -2 -4 -5 -6 -6 -5 -4 -1 6 1 -5 -5 -6 -5 -4 -2 -2 -2 -2 -3 -2 -4 -5 -5 -7 -9 -11 -8 -6 -6 -10 -6 -6 -1 -0 2 3 4 5 5
-6 -1 0 1 0 -3 -4 -5 0 4 -2 1 -1 -2 -6 -5 -5 -6 -7 -4 -2 -2 -2 -3 -3 -3 -6 -6 -9 -9 -9 -12 -10 -8 -10 -11 -6 -5 -2 -1 1 1 3 5 6
-5 0 1 1 -1 -3 -4 3 3 6 4 -3 -2 -3 -3 -4 -6 -8 -9 -5 -4 -3 -5 -3 -3 -6 -8 -9 -10 -10 -10 -7 -8 -7 -5 -8 -6 -5 -3 -1 -0 1 2 3 5
-4 1 1 1 -0 -3 -6 2 5 5 5 -1 -2 -3 -5 -3 -8 -9 -9 -6 -5 -3 -4 -2 -3 -4 -6 -8 -8 -8 -8 -5 -5 -5 -5 -6 -4 -1 -1 -0 2 2 2 3 4
-3 1 1 1 -1 1 -0 -3 -0 1 4 -3 -2 -3 -4 -5 -7 -8 -8 -6 -7 -5 -5 2 -3 -4 -7 -6 -6 -4 -4 -5 -4 -3 -3 -5 -3 -2 0 1 1 3 3 4 5
-2 1 1 1 7 3 6 7 4 8 5 -6 -6 -5 -6 -7 -9 -6 -6 -7 -6 -5 -5 -3 -3 -5 -5 -3 -3 1 -3 -3 -4 -3 -2 -3 -4 4 1 1 2 2 3 4 5
-1 2 2 1 -1 4 6 8 8 9 3 -5 -7 -6 -5 -7 -9 -7 -8 -7 -5 -6 -5 2 -3 -4 -3 -3 -3 -3 -2 -2 -3 -5 -0 -5 -3 0 1 -0 1 3 4 6 7
-0 2 2 -0 3 4 6 8 7 6 -5 -6 -6 -7 -7 -7 -8 -7 -6 -7 -6 -3 -3 -3 -4 -3 -3 -2 -2 -4 -2 1 1 2 1 -3 -2 -5 -8 -1 -1 3 5 7 7
1 3 2 1 5 5 10 7 6 -3 -4 -8 -8 -7 -6 -7 -8 -8 -7 -7 -8 -4 -3 -2 1 -3 -3 -2 -3 -2 -4 1 -0 -0 -1 -1 -3 -6 -2 -4 -2 3 4 6 5
2 4 3 -1 -2 8 8 9 4 -6 -6 -6 -7 -5 -5 -6 -6 -7 -7 -7 -7 -5 -3 -3 -1 -3 -3 -3 -4 -3 -0 -2 1 2 2 -5 -9 -5 -1 -1 -0 3 4 5 3
4 4 3 0 -1 7 7 5 -0 -4 -5 -7 -5 -5 -3 -4 -5 -6 -4 -4 -2 -1 -2 -4 -1 -3 -2 -2 -2 -1 -3 -0 -2 1 1 -6 -6 -8 -0 -1 0 2 3 3 3
6 4 1 -0 0 7 6 3 -2 -2 -3 -5 -6 -6 -5 -4 -5 -5 -5 -2 -2 -1 -2 -5 -4 0 -0 -1 -4 0 -1 -2 -1 1 2 -2 -5 -6 -7 -3 -1 1 2 3 2
6 4 8 1 3 5 5 0 -4 -1 1 -2 -3 -6 -5 -5 -3 -5 -6 -5 -2 -2 -2 -3 -3 1 -0 -1 -2 -1 -1 -1 2 -1 1 4 -2 -6 -4 -3 -2 -0 1 2 2
5 5 9 6 7 10 2 -1 -3 -1 -1 -1 -4 -4 -5 -4 -3 -4 -4 2 1 0 -2 0 -2 2 1 1 -1 -1 -3 -2 -2 2 -1 6 -2 -5 -5 -4 -4 -2 -0 1 2
4 6 9 8 3 4 3 -0 -0 -1 -1 -2 -4 -2 -1 -0 -0 1 1 1 2 0 -0 -0 -1 -0 2 0 -1 1 -2 -3 -1 2 -0 -1 -5 -7 -6 -5 -6 -3 -2 0 1
2 2 4 8 6 5 1 -1 -2 0 -0 -0 1 -1 -1 0 1 2 2 2 2 2 0 1 2 0 -1 -1 -2 -2 -3 -2 -2 -2 1 -3 -7 -11 -11 -9 -8 -6 -3 -2 1
2 1 2 3 3 2 1 -0 -3 -1 0 1 -0 -2 -2 0 1 0 2 2 2 3 2 1 3 3 4 0 -0 -1 -3 -5 -5 -5 -5 -6 -6 -9 -8 -8 -6 -6 -2 -2 0
5 1 1 5 5 2 3 -1 -2 -1 3 0 -1 -0 1 2 3 3 2 1 0 3 4 3 5 3 -0 -0 0 5 2 -2 -5 -6 -5 -2 -5 -8 -5 -4 -5 -5 -2 -1 -0

GFSSW_850_dewp_024.txt.gz
Dewpoint
-9 -10 -10 -9 -8 -7 -7 -4 -5 -5 -5 -4 -4 -5 -6 -10 -14 -15 -15 -13 -3 -9 -9 -3 -6 -6 -5 -7 -9 -13 -10 -7 -8 -6 7 7 9 6 4 5 3 4 9 13 13
-9 -10 -9 -8 -8 -7 -6 -4 -5 -5 -4 -4 -5 -6 -8 -13 -14 -15 -6 -11 -11 -10 -10 -4 -5 -6 -5 -9 -10 -11 -8 -8 -3 4 8 6 6 5 2 2 7 8 12 13 13
-10 -10 -9 -8 -7 -6 -3 -4 -4 -5 -3 -4 -6 -7 -12 -13 -1 -0 -3 -8 -12 -13 -10 -6 -7 -7 -9 -10 -10 -11 -9 -10 -2 5 5 5 3 1 5 6 6 10 10 12 13
-9 -10 -9 -7 -7 -5 -3 -3 -4 -4 -3 -5 -7 -10 -12 -11 3 0 -5 -13 -13 -13 -6 -3 -8 -9 -9 -9 -11 -9 -12 -10 -3 5 4 8 3 3 5 5 4 7 9 11 12
-9 -9 -8 -7 -5 -3 -2 -3 -4 -3 -4 -6 -8 -11 -10 5 1 -1 -6 -14 -13 -8 -2 -6 -9 -10 -8 -10 -11 -10 -8 -9 -2 -1 2 4 4 4 3 3 5 9 10 9 10
-8 -8 -8 -6 -4 -2 -1 -2 -4 -4 -5 -7 -10 -11 -3 2 -4 -2 -6 -8 -9 -4 -4 -10 -9 -9 -9 -10 -11 -10 -7 -9 -4 -1 -4 0 2 3 4 5 7 9 8 8 7
-6 -7 -7 -5 -2 -1 -1 -3 -4 -5 -7 -9 -10 -8 3 -1 -2 -0 -4 -5 -4 -3 -7 -8 -7 -7 -8 -6 -7 -6 -7 -9 -8 -3 -4 0 1 2 3 4 5 5 4 5 5
-5 -7 -7 -4 -1 -1 -1 -3 -5 -6 -8 -9 -7 -5 3 -2 -3 -2 -1 -3 -3 -5 -5 -4 -3 -4 -5 -4 -7 -7 -7 -4 -9 -4 -2 -2 -0 -4 1 2 3 4 4 4 4
-3 -6 -6 -2 -1 -1 -2 -4 -7 -8 -9 -7 -2 4 2 -2 -4 -5 -3 -2 -4 -2 -3 -4 -3 -3 -4 -3 -4 -5 -3 -5 -7 -5 -2 -3 -0 -5 -2 1 2 2 3 4 5
-0 -5 -6 -1 -0 -0 -2 -6 -8 -8 -7 -5 -2 4 -2 -3 -8 -6 -5 -5 -2 -2 -2 -3 -3 -3 -3 -4 -1 -2 -5 -6 -7 -10 -5 -4 -4 -5 -4 0 2 2 3 5 5
1 -5 -4 -0 0 0 -3 -6 3 5 1 0 -0 -2 -5 -6 -6 -5 -7 -4 -3 -2 -1 -3 -1 -2 -1 -3 -6 -6 -5 -7 -10 -9 -8 -7 -7 -8 -5 -2 1 3 3 4 5
2 -4 -3 0 1 0 -3 5 4 6 5 2 -6 -2 -3 -3 -6 -7 -8 -4 -2 -1 0 -3 -1 -3 -4 -5 -5 -7 -6 -9 -10 -10 -9 -11 -10 -8 -6 -3 -1 1 3 4 5
3 -3 -2 1 1 -0 -3 -5 4 4 5 -1 -2 -5 -4 -5 -7 -8 -9 -7 -3 -3 -1 0 1 0 -4 -6 -6 -7 -5 -4 -7 -11 -13 -2 -9 -6 -7 -4 -3 -1 -0 2 4
3 -2 -2 2 0 -2 -1 -5 1 3 6 -1 -3 -4 -4 -5 -7 -8 -10 -2 -2 -2 3 3 -1 -0 -5 -4 -8 -2 -2 -4 -2 -4 -4 -2 2 5 3 -3 -3 -1 -0 1 2
4 -2 -1 2 7 4 7 4 6 8 9 -4 -5 -6 -6 -6 -9 -8 -8 -5 -3 -3 0 4 -4 -4 -4 -1 -2 1 -2 -1 -4 -5 2 2 2 3 3 2 1 1 2 2 3
4 -1 0 2 1 3 7 9 8 10 7 -4 -7 -6 -7 -8 -10 -9 -7 -8 -3 -2 -5 -4 -4 -2 0 -3 -3 -2 -1 -2 -5 -4 7 0 5 2 3 3 5 0 1 3 4
5 -0 -1 3 4 3 5 10 8 6 -5 -4 -6 -7 -7 -7 -8 -9 -6 -7 -6 -2 -2 -2 -5 -5 -2 -5 -5 -6 -4 2 8 9 7 -4 -2 3 1 5 7 7 2 3 5
6 3 -1 3 6 8 9 10 7 -1 -2 -10 -9 -8 -6 -9 -8 -8 -6 -6 -8 -8 -4 -2 4 -5 -6 -5 4 3 -5 4 10 10 4 -1 -1 -4 -1 -1 2 3 4 6 7
6 3 1 2 5 9 9 11 5 -1 -5 -6 -9 -6 -6 -8 -8 -8 -7 -7 -9 -9 2 5 3 0 -4 -6 -5 -4 -2 -4 3 6 5 -2 -8 -8 -3 -3 -4 3 4 6 6
6 5 1 2 3 8 9 8 2 -2 -6 -8 -7 -7 -5 -6 -6 -7 -7 -8 -7 -4 1 8 9 3 -3 -4 -4 -4 -6 1 -1 3 3 -3 -5 -3 -0 -3 -2 2 4 5 5
5 4 1 2 3 8 9 6 2 -2 -5 -5 -7 -7 -6 -4 -7 -7 -8 -8 -3 -3 -3 -3 3 -1 -1 -2 -6 -1 -1 -4 -4 4 8 7 -2 -6 -5 -5 -2 -1 3 4 5
4 4 3 3 4 2 7 3 -0 -1 -4 -3 -4 -7 -6 -5 -5 -6 -6 -6 -6 -6 -2 -5 -3 5 -2 -4 -3 -3 -0 -3 9 4 7 9 3 -6 -5 -6 -4 -3 -1 3 4
3 4 6 3 4 7 5 3 -0 -1 -2 -1 -2 -4 -7 -5 -3 -5 -6 2 0 -1 -1 -1 -0 4 -0 -1 -2 -1 -3 -5 -1 5 6 10 4 -5 -6 -7 -6 -4 -2 1 3
2 6 9 8 -0 3 6 2 1 -1 -3 -3 -2 -5 -5 -5 -5 -3 -3 2 1 0 -0 1 -1 -1 5 -0 -0 2 -1 -4 -2 9 6 4 -3 -7 -6 -5 -7 -5 -4 -2 1
3 4 6 9 7 4 5 2 1 -0 -4 -2 -2 -5 -2 0 -2 0 -1 3 2 2 -0 0 2 -0 -2 -3 -1 -0 -2 -3 -3 -1 3 1 -3 -6 -8 -7 -9 -8 -5 -4 -4
4 3 5 4 4 5 5 4 1 -2 -1 0 -0 -4 -2 0 -1 -0 -1 3 2 3 1 1 5 4 5 1 -0 0 -2 -3 -4 -6 -5 -5 -4 -8 -9 -6 -6 -6 -7 -4 -4
4 4 3 4 5 6 6 4 2 -1 -2 -3 -2 -1 -1 1 1 3 3 1 0 4 4 5 9 7 5 0 1 3 3 -2 -4 -5 -5 -2 -3 -6 -7 -7 -5 -4 -5 -4 -3

GFSSW_850_dewp_027.txt.gz
Dewpoint
-7 -10 -10 -10 -10 -8 -8 -7 -6 -5 -6 -6 -4 -4 -6 -9 -15 -17 -21 -16 -15 -10 -14 -10 -4 -14 -7 -5 -5 -7 -8 -9 -10 4 7 7 7 7 6 7 6 10 11 12 10
-6 -8 -10 -10 -9 -8 -7 -6 -5 -5 -6 -5 -4 -5 -8 -14 -16 -7 -3 -6 -11 -12 -14 -9 -2 -5 -6 -6 -6 -8 -8 -8 1 6 7 6 6 5 7 5 10 10 11 10 12
-6 -7 -10 -10 -9 -8 -6 -5 -4 -5 -6 -5 -5 -7 -12 -15 1 0 -3 -5 -13 -13 -15 -7 -4 -5 -6 -6 -6 -9 -8 -10 3 4 5 6 5 5 6 6 8 9 9 10 11
-4 -8 -9 -9 -8 -7 -6 -4 -3 -5 -5 -5 -6 -9 -13 -11 2 -1 -5 -10 -13 -14 -11 -6 -5 -4 -7 -8 -9 -8 -10 -10 3 4 4 8 4 2 2 6 8 5 10 10 12
-2 -8 -9 -9 -8 -6 -5 -3 -3 -5 -5 -5 -8 -12 -12 -0 -1 -1 -6 -10 -14 -12 -6 -4 -3 -6 -8 -9 -9 -9 -9 -8 1 4 5 4 5 4 2 5 10 8 10 10 10
-0 -7 -8 -8 -7 -5 -3 -2 -3 -5 -6 -7 -9 -11 -7 5 -0 -1 -6 -8 -12 -8 -7 -5 -5 -9 -9 -8 -5 -10 -10 -7 -1 5 5 6 5 3 3 6 9 10 10 10 10
1 -3 -7 -8 -7 -4 -2 -1 -3 -6 -7 -8 -9 -8 -5 -12 -2 -1 -1 -6 -5 -5 -5 -5 -5 -4 -4 -3 -4 -6 -7 -9 -4 -1 3 2 4 4 1 5 8 9 9 8 7
3 -1 -6 -7 -7 -3 -1 -1 -5 -7 -8 -9 -7 -4 -6 -6 -4 -2 -1 -3 -4 -5 -5 -6 -3 -4 -4 -4 -4 -6 -6 -4 -7 -2 -1 -3 -0 4 3 3 7 7 5 6 5
6 1 -5 -7 -6 -2 -1 -2 -6 -8 -8 -8 -2 7 3 -0 -3 -6 -2 -1 -2 -3 -3 -4 -3 -3 -3 -1 -1 -5 -3 -3 -4 -4 -3 -3 -1 4 5 6 5 4 4 4 4
8 2 -3 -7 -5 -1 -1 -4 -8 -9 -6 -6 -4 2 -4 -2 -7 -7 -5 -3 -3 -2 -2 -3 -3 -2 -2 -1 -1 -3 -3 -4 -4 -3 -2 -3 -3 -4 2 3 4 4 4 4 4
9 4 -0 -7 -4 -0 -0 -4 5 6 1 -7 -2 -5 -3 -3 -5 -5 -6 -5 -4 -1 1 -1 -1 1 -1 -2 -2 -2 -3 -4 -7 -8 -2 -2 -3 -4 -3 2 3 3 5 5 4
9 5 1 -6 -3 0 0 -4 4 4 5 4 4 -2 -2 -2 -4 -6 -6 -4 -2 1 0 1 -0 -2 -2 -3 -1 -1 -2 -3 -7 -8 -6 -6 -5 -5 -4 -1 4 0 4 5 5
8 7 2 -6 -2 0 -0 -5 1 3 6 3 0 -1 -6 -3 -4 -5 -7 -6 -2 0 1 2 1 -1 -2 -0 1 -1 1 -2 -4 -10 -11 -4 -3 -0 -3 -3 3 2 4 5 5
8 7 3 -5 -0 5 3 -2 -8 2 8 3 1 -1 -5 -4 -4 -8 -7 -4 -2 2 4 3 1 -1 -0 1 -3 -2 -2 -1 -3 -1 -4 -2 1 3 1 -2 -2 1 4 5 5
7 8 3 -4 3 5 8 6 6 7 10 -0 -2 -4 -5 -4 -5 -8 -6 -3 -2 2 2 3 2 1 1 1 -3 -0 -3 -2 -0 -0 1 2 2 2 1 -2 0 1 1 4 5
7 8 5 -3 1 3 7 8 7 10 10 -0 -3 -4 -4 -5 -5 -7 -8 -5 -4 1 1 1 -2 -0 -0 -1 -4 -2 -2 -0 1 2 5 1 3 4 5 1 3 2 -0 2 5
7 8 5 -3 1 6 3 9 9 9 -0 -1 -3 -4 -4 -4 -5 -7 -5 -4 -1 0 1 -3 -3 -1 -1 -1 -1 0 1 4 5 7 7 3 3 3 2 1 2 1 -0 1 5
7 8 5 -2 4 8 6 9 10 3 2 -4 -4 -4 -4 -5 -5 -6 -4 -4 -5 -4 -0 2 3 2 -0 -2 0 -2 1 7 8 9 7 3 5 1 -1 -0 0 -1 1 0 6
7 7 6 -2 1 8 9 10 7 4 -3 -1 -6 -4 -4 -5 -7 -6 -3 -3 -5 -6 0 4 4 3 2 -0 -2 -2 -1 2 7 7 8 4 -4 -1 0 3 4 3 2 6 6
7 6 6 -1 1 7 9 8 7 1 -2 -3 -1 -4 -3 -4 -5 -5 -4 -6 -5 -1 3 6 5 4 4 1 -2 -3 -2 2 4 4 5 -0 -1 4 1 0 3 4 6 7 7
6 6 6 2 2 7 7 7 6 2 -0 0 -2 -3 -4 -3 -5 -4 -4 -6 -5 2 3 4 6 6 4 4 0 -0 -1 -2 -0 4 5 6 2 -4 -3 -1 1 5 6 7 7
6 6 3 -1 6 5 6 5 4 2 2 0 -2 -3 -3 -2 -2 -4 -3 0 -4 -2 0 4 4 6 4 -1 -3 -2 0 3 4 1 5 5 3 -5 -6 -3 -2 -1 5 6 6
5 5 5 -1 3 5 2 5 4 4 3 1 -0 -1 -2 -1 3 -3 3 2 0 1 1 2 1 3 1 -0 0 -0 -1 -2 3 4 4 3 3 -5 -6 -7 -5 -3 -2 5 5
5 6 7 6 -1 2 2 3 6 3 3 1 0 0 0 -2 -2 1 4 2 2 2 -0 1 1 1 3 1 1 2 2 1 -0 4 4 4 2 -2 -4 -4 -5 -5 -4 1 4
5 4 6 7 7 2 2 3 5 5 2 -0 1 0 0 -1 -1 -0 5 4 3 1 0 2 2 1 2 3 1 0 1 1 -1 1 3 2 2 -1 -5 -5 -5 -4 -5 -5 -2
5 2 6 6 5 5 2 5 5 3 2 1 2 -0 -1 0 2 1 4 4 4 3 2 1 5 3 3 2 0 -0 0 -1 -1 -1 -3 -2 -1 -5 -5 -5 -5 -5 -5 -4 -4
4 2 4 6 6 5 3 4 4 2 1 -2 1 1 1 3 2 3 1 2 3 4 4 4 4 3 4 1 -1 -1 -3 -1 -1 -2 -3 -2 -3 -2 -2 -2 -4 -4 -3 -3 -3

GFSSW_850_dewp_030.txt.gz
Dewpoint
-6 -7 -7 -9 -10 -10 -10 -9 -8 -7 -6 -6 -5 -5 -7 -10 -16 -16 -6 -6 -14 -12 -15 -16 -7 -13 -10 -3 -4 -5 -6 -6 -8 -3 7 7 7 8 7 8 12 12 12 12 12
-6 -6 -7 -8 -10 -10 -9 -8 -7 -5 -6 -6 -5 -6 -8 -14 -9 -1 -2 -4 -9 -12 -13 -14 -4 -5 -11 -6 -5 -6 -6 -7 -8 4 6 6 7 6 5 11 12 12 10 10 11
-3 -5 -8 -8 -10 -9 -9 -7 -5 -4 -5 -6 -6 -7 -10 -16 -3 0 -5 -6 -13 -13 -15 -12 -5 -4 -5 -6 -6 -7 -6 -9 -5 5 4 5 5 6 7 8 10 10 10 9 10
1 -3 -8 -9 -10 -9 -8 -6 -4 -4 -5 -6 -7 -9 -13 -14 1 -1 -6 -10 -16 -15 -11 -8 -5 -3 -6 -6 -8 -8 -9 -9 -1 5 5 5 4 2 5 6 7 8 9 10 9
7 -1 -6 -9 -9 -9 -8 -5 -3 -4 -6 -7 -8 -10 -13 -6 -4 -2 -7 -10 -16 -12 -6 -7 -3 -3 -7 -9 -9 -8 -8 -5 2 3 4 4 6 4 8 7 8 9 11 10 9
8 4 -3 -9 -9 -9 -7 -4 -3 -4 -6 -7 -9 -11 -10 0 -0 -1 -4 -9 -12 -7 -6 -4 -4 -4 -7 -6 -6 -4 -8 2 4 4 4 4 5 4 8 8 10 11 11 9 9
8 8 0 -6 -9 -8 -6 -3 -2 -4 -7 -8 -10 -10 -10 -14 -2 -3 -2 -6 -8 -7 -6 -5 -5 -3 -4 -4 -4 -4 -7 -1 5 5 5 3 4 2 6 9 10 9 10 10 7
7 8 4 -3 -7 -8 -6 -2 -3 -5 -8 -8 -9 -6 -10 -8 -3 -3 -1 -2 -3 -4 -5 -5 -4 -3 -5 -4 -3 -4 -5 -4 2 4 3 -1 2 3 6 9 9 10 9 10 9
6 8 7 -1 -6 -8 -5 -2 -3 -6 -8 -8 -7 3 -4 -3 -4 -4 -3 -2 -1 -2 -3 -3 -3 -3 -3 -2 -1 -4 -4 -4 -2 -1 0 -2 0 3 4 7 8 8 9 10 10
7 6 8 1 -5 -8 -5 -2 -4 -4 -5 -6 -5 -1 -8 -2 -3 -7 -4 -2 -2 -2 -2 -2 -3 -2 -2 -1 -1 -1 -2 -3 -4 -5 -2 -2 -1 3 4 4 6 7 7 7 10
5 6 8 4 -3 -8 -4 -1 2 6 4 -5 -6 -9 -6 -3 -4 -4 -6 -5 -3 -2 -0 0 -1 0 -1 -1 -2 -3 -1 -1 -3 -7 -2 -2 -2 4 5 5 5 4 5 5 6
5 6 9 6 -2 -7 -2 -1 4 2 4 2 2 4 -2 -2 -3 -5 -5 -5 -2 0 1 -0 1 -1 -2 -2 -1 -0 0 -0 -3 -5 -2 -2 -3 0 0 3 5 4 4 4 6
4 6 6 7 -2 -6 -0 1 1 -0 4 2 -1 -2 -4 -4 -4 -4 -6 -4 -1 -0 1 1 0 -1 -2 -1 -0 -0 1 0 -1 -6 -9 -5 -1 -1 -3 3 4 4 4 4 4
3 6 5 7 -3 -3 7 6 -5 -4 7 5 3 -2 -3 -7 -3 -5 -6 -5 -3 2 2 1 -0 -1 -0 -0 -0 0 -2 -1 -1 -1 -4 -4 2 1 0 -1 4 3 4 5 4
4 7 7 7 -2 4 7 7 4 6 3 0 3 -3 -8 -5 -5 -6 -6 -4 -2 1 0 -0 1 -1 0 -0 -1 1 -3 -2 -1 0 0 0 -1 -1 1 -3 2 1 2 5 5
4 7 7 7 -2 1 6 8 7 8 7 3 -1 -2 -3 -4 -4 -6 -4 -5 -4 1 1 -1 -1 -1 -0 -1 -1 -2 -1 1 3 3 4 3 1 1 2 -0 -3 -1 0 2 5
3 7 7 7 1 -5 5 7 7 9 1 1 -1 -2 -2 -2 -3 -5 -6 -3 -1 1 2 0 -1 -2 -1 -1 -1 -1 -0 3 3 6 5 3 2 1 1 0 -0 -0 -1 1 4
4 7 7 7 1 2 4 9 9 4 5 -2 -2 -2 -1 -3 -3 -5 -4 -4 -4 -2 0 1 3 1 1 -1 0 -0 -0 4 5 6 4 3 5 2 -1 -1 -1 -1 0 1 4
4 6 6 6 1 6 8 9 6 7 -1 -2 -3 -1 -2 -4 -5 -5 -4 -4 -5 -5 -2 3 3 2 2 0 0 -1 -0 0 6 6 7 5 0 -1 1 1 2 3 2 2 6
3 5 6 7 4 4 8 6 6 4 1 -0 -2 -3 -2 -4 -4 -5 -3 -4 -4 -5 -0 3 2 2 2 -0 -1 -1 -3 1 4 5 6 1 0 3 1 0 1 4 3 4 8
3 5 5 6 5 4 7 5 4 3 4 2 1 -1 -3 -3 -4 -3 -4 -6 -3 3 1 4 1 2 2 3 1 -0 -1 -1 1 3 4 5 2 -4 -1 -0 3 3 2 5 7
4 5 4 5 4 4 6 4 2 3 3 4 2 2 -2 -2 -2 -3 -3 -5 -2 2 1 3 4 5 2 -0 0 -1 0 2 3 -0 4 4 2 -3 -4 -2 2 2 2 6 7
3 4 4 5 4 3 3 4 3 2 3 4 2 0 -2 0 -0 1 -0 2 1 1 1 2 2 3 2 -1 -1 0 -1 -0 3 2 3 3 2 -4 -5 -6 -3 1 4 6 7
4 5 5 6 3 -0 3 5 5 2 3 4 4 2 0 0 1 2 3 2 2 1 1 -0 1 0 2 -1 -1 1 2 1 2 4 3 3 1 -1 -3 -5 -6 -4 -2 4 6
4 3 3 5 5 0 1 2 4 2 3 2 3 4 3 1 2 2 4 3 3 -0 0 -0 1 0 -0 2 2 -0 1 1 1 1 2 1 1 -1 -4 -5 -5 -6 -4 -0 5
4 4 3 5 3 3 1 1 1 -0 2 2 4 3 2 -0 -0 3 4 4 2 2 0 2 3 3 2 1 -0 -1 -1 -1 -1 -1 1 -1 -1 -3 -4 -4 -3 -4 -3 -3 -1
2 3 3 4 4 4 2 1 -1 -1 2 0 1 2 2 0 0 -0 0 1 3 3 3 3 3 2 3 0 -2 1 -2 -2 -1 -1 -2 -1 -2 -3 -2 -2 -3 -2 -3 -2 -1

GFSSW_850_dewp_033.txt.gz
Dewpoint
-8 -10 -8 -8 -8 -10 -11 -10 -9 -7 -6 -6 -7 -8 -8 -11 -16 -8 -3 -4 -6 -16 -15 -16 -5 -12 -9 -3 -3 -5 -5 -5 -6 -5 5 7 7 8 9 11 12 12 12 12 13
-4 -7 -9 -8 -8 -10 -10 -10 -8 -6 -5 -7 -7 -8 -9 -13 -8 -1 -3 -5 -3 -10 -13 -12 -3 -9 -11 -7 -5 -6 -6 -6 -8 -1 6 7 7 7 10 11 11 11 12 12 12
4 -2 -6 -8 -9 -9 -10 -9 -7 -5 -5 -6 -7 -8 -10 -16 -5 -1 -3 -8 -6 -10 -12 -10 -3 -4 -4 -6 -6 -7 -5 -7 -8 2 5 6 6 6 10 10 11 11 12 12 12
7 6 -1 -6 -9 -9 -9 -8 -6 -4 -5 -7 -8 -9 -12 -17 0 -5 -6 -9 -13 -13 -11 -7 -5 -4 -5 -5 -6 -6 -8 -9 -8 4 5 5 5 4 6 7 11 11 8 9 11
8 8 6 -3 -8 -9 -9 -8 -5 -4 -5 -7 -8 -10 -13 -12 -4 -2 -6 -11 -15 -13 -9 -6 -4 -3 -5 -8 -9 -8 -8 -8 -8 4 4 5 4 7 10 8 9 8 7 7 9
8 8 8 4 -5 -8 -8 -7 -5 -3 -5 -7 -9 -10 -10 -8 -0 -1 -5 -10 -14 -10 -6 -5 -5 -4 -3 -5 -5 -4 -4 4 4 5 5 5 6 7 9 10 9 9 5 4 5
3 7 7 8 -1 -7 -8 -8 -4 -2 -5 -8 -9 -10 -10 -21 -1 -2 -2 -7 -9 -8 -6 -5 -5 -3 -3 -4 -4 -3 -2 4 5 5 5 4 4 7 9 10 11 9 7 6 7
5 1 4 8 4 -5 -8 -8 -3 -2 -6 -8 -9 -9 -13 -15 -3 -4 -2 -2 -4 -5 -5 -4 -3 -3 -3 -4 -3 -5 -5 -0 4 4 3 -0 4 3 9 10 11 11 10 9 9
4 3 4 7 7 -3 -8 -8 -4 -2 -6 -8 -8 -7 -11 -7 -7 -5 -3 -2 -1 -2 -3 -4 -2 -3 -3 -2 -3 -4 -4 -3 3 2 2 0 1 3 9 10 10 12 10 9 9
1 4 3 5 7 0 -8 -7 -3 -5 -0 -0 -5 -7 -13 -2 -2 -2 -5 -3 -3 -2 -2 -2 -3 -2 -2 -2 -0 -1 -2 -3 -3 -6 1 4 0 4 7 9 9 10 10 9 8
2 4 3 6 7 2 -8 -4 -1 5 4 -0 -9 -14 -12 -4 -4 -7 -6 -4 -3 -2 -0 -0 -1 0 -1 -2 -2 -1 -0 0 -2 -4 -2 0 -1 4 5 6 7 8 10 10 8
-4 4 6 4 8 3 -7 -1 3 2 2 -0 -1 2 1 2 2 -4 -5 -4 -2 -1 1 -1 1 -2 -1 -2 -1 -0 0 0 -1 -4 -4 -2 -2 2 5 5 6 7 8 9 9
-8 3 7 4 8 5 -6 4 5 1 0 -1 -1 -2 -3 -2 -0 -4 -5 -5 -2 -0 -0 0 -1 -1 -2 -2 -1 -1 0 1 0 -3 -5 -3 -2 -2 -2 4 5 6 6 7 7
-15 4 8 7 5 5 2 6 -1 -3 5 4 5 -1 -2 -3 -3 -4 -5 -5 -2 0 1 0 -0 -1 -0 -0 -1 1 -1 -0 -1 -2 -6 -5 -0 0 -1 2 4 5 5 6 5
-16 4 7 7 3 -2 7 6 1 6 -1 -5 3 -2 -7 -5 -5 -4 -5 -5 -2 1 -0 -1 1 0 -0 -1 -1 0 -1 -1 -1 0 -1 -0 -1 -2 1 -0 4 4 5 5 5
-8 4 7 7 7 1 7 6 6 4 1 1 1 -0 -3 -4 -4 -6 -5 -5 -4 0 0 -1 -1 -2 -2 -2 -1 -2 -1 0 2 2 3 2 0 0 1 -0 -0 4 4 4 5
-7 5 6 7 7 5 1 7 8 6 -2 2 0 -1 -3 -2 -3 -4 -5 -2 0 1 1 -0 -1 -2 -1 -2 -2 -1 -1 1 2 5 4 2 2 1 -2 -1 -1 1 3 3 4
0 4 5 6 7 4 1 8 8 5 5 2 -2 -1 -2 -3 -2 -3 -4 -4 -4 -2 1 2 1 0 0 -1 0 0 -1 3 4 5 2 3 5 1 -1 -1 -1 -1 -2 -0 1
1 2 5 6 7 3 7 9 5 4 3 -3 -2 -0 -1 -2 -3 -4 -4 -4 -5 -3 -1 2 1 1 1 -0 -1 -0 0 -1 5 5 6 4 1 -3 -1 0 3 2 1 2 2
1 2 4 5 7 5 7 6 5 4 4 4 -0 -1 1 -2 -3 -3 -3 -4 -5 -4 -4 -0 0 1 1 1 -1 -1 -1 0 3 4 6 2 0 2 0 -1 0 3 2 3 3
1 3 3 4 7 4 6 5 4 2 3 5 3 -1 -1 -2 -3 -3 -3 -6 -4 0 -2 3 -1 -0 3 2 0 -0 -0 -1 1 2 3 4 2 -3 -1 -1 -2 -0 1 2 5
2 3 3 4 5 3 3 3 2 2 2 4 4 3 -0 -2 -2 -3 -3 -6 -6 1 0 2 1 4 2 -0 -0 -1 -0 0 3 1 4 4 2 -4 -5 -3 -2 -0 -1 1 3
1 3 3 3 5 4 2 3 2 1 3 3 4 3 -0 -1 -2 -2 -2 0 -0 -0 2 2 2 4 2 -0 -1 0 0 2 2 2 3 3 2 -4 -4 -6 -5 -1 -1 1 2
1 4 5 5 3 3 3 4 5 2 2 3 4 4 2 0 -0 2 3 2 2 1 -1 -1 1 1 3 1 -1 1 1 1 2 4 3 3 0 -2 -3 -3 -4 -6 -2 1 2
1 2 3 5 4 3 1 2 4 4 3 1 3 4 4 3 1 2 4 3 2 1 1 0 1 -1 -2 -3 1 0 1 2 1 1 2 1 2 -0 -3 -5 -5 -5 -4 -2 2
1 3 3 4 2 3 2 2 3 3 3 3 1 2 1 4 1 1 3 3 2 1 1 1 2 1 2 0 -0 -0 -1 -1 -0 -1 1 -0 -0 -3 -4 -3 -3 -3 -3 -0 2
1 2 3 2 3 3 2 2 1 2 2 0 2 3 4 3 1 -1 1 -0 0 2 2 2 2 3 3 0 -2 1 -1 -2 -2 -1 -1 -1 -3 -3 -2 -2 -2 -1 -1 -1 -0

GFSSW_850_dewp_036.txt.gz
Dewpoint
-1 -5 -7 -9 -9 -9 -9 -11 -10 -9 -8 -7 -8 -9 -10 -12 -14 -3 -2 -4 -4 -13 -15 -14 -6 -11 -9 -3 -4 -6 -4 -5 -6 -6 -5 7 7 8 10 11 11 12 12 12 13
5 3 -2 -5 -8 -9 -9 -10 -10 -8 -7 -6 -9 -9 -10 -14 -7 -1 -1 -6 -6 -8 -13 -12 -5 -10 -8 -7 -5 -6 -5 -5 -7 -8 4 7 6 8 10 11 11 12 12 12 12
8 7 6 1 -6 -9 -9 -10 -9 -7 -6 -6 -9 -9 -11 -16 -6 -1 -3 -7 -8 -9 -14 -4 -4 -4 -5 -6 -6 -6 -5 -7 -8 -8 3 6 6 7 11 11 11 11 11 11 12
9 9 8 7 1 -6 -9 -9 -9 -7 -6 -6 -8 -9 -12 -18 -0 -3 -5 -9 -12 -12 -12 -6 -5 -4 -5 -5 -6 -6 -7 -8 -8 -0 5 5 5 6 7 8 10 11 11 11 11
4 8 8 8 7 -2 -8 -9 -9 -6 -5 -5 -8 -9 -12 -16 -6 -1 -6 -11 -13 -13 -7 -5 -4 -3 -4 -7 -8 -7 -8 -6 -6 4 5 4 5 8 10 10 10 9 11 11 11
6 2 8 7 8 5 -5 -8 -9 -6 -4 -5 -8 -9 -10 -13 -1 -1 -5 -10 -13 -9 -7 -5 -4 -3 -3 -4 -4 -5 -2 2 4 5 5 8 8 7 10 10 9 9 11 10 8
7 6 1 5 7 7 -0 -7 -8 -7 -4 -4 -7 -9 -10 -18 -2 -1 -4 -6 -10 -7 -6 -5 -4 -3 -3 -4 -4 -3 1 2 4 5 5 4 3 8 10 9 8 9 9 7 4
1 6 6 4 4 7 4 -6 -9 -7 -4 -4 -7 -8 -12 -19 -5 -2 -3 -3 -5 -6 -6 -5 -4 -3 -3 -3 -3 -6 -5 -1 3 4 4 2 5 8 10 8 9 7 8 8 6
-15 3 7 5 4 7 7 -3 -9 -7 -4 -5 -6 -7 -12 -11 -11 -5 -4 -2 -2 -2 -2 -4 -3 -3 -3 -2 -3 -3 -4 -2 4 3 3 1 4 7 10 9 9 9 8 7 8
-27 -6 4 5 5 5 7 -3 -8 -5 -3 -1 1 -3 -16 -5 -3 -4 -4 -4 -3 -3 -2 -2 -3 -2 -2 -3 -0 -1 -1 -2 -2 -3 3 4 1 6 9 10 10 9 10 9 8
-28 -11 0 6 4 7 7 -5 -3 2 4 2 -8 -12 -15 -5 -3 -4 -4 -5 -4 -2 -1 -0 -1 -0 -1 -2 -2 -1 -0 -0 -2 -4 -2 3 3 5 8 9 10 10 10 10 8
-26 -24 4 4 8 8 7 -5 1 2 4 -1 -1 0 1 1 2 -3 -4 -4 -2 -0 0 -1 1 -2 -2 -1 -1 -1 -0 -0 -2 -5 -3 -1 1 5 6 8 9 9 9 9 8
-24 -24 0 4 7 7 7 -4 4 5 3 -1 -2 -1 -4 -2 -1 -2 -5 -4 -2 -1 -0 0 -2 -1 -2 -2 -2 -1 -1 -0 0 -2 -5 -3 -1 5 3 6 7 8 8 8 9
-15 -17 4 6 7 6 6 4 5 2 3 2 3 0 -2 -2 -2 -4 -4 -5 -2 -1 0 0 -1 -1 -1 -1 -2 0 -2 -1 -0 -2 -4 -4 -2 -1 2 6 4 5 7 8 7
-3 -12 4 6 5 2 5 5 1 2 -1 -5 4 -0 -1 -3 -4 -4 -4 -4 -1 0 -0 0 -0 0 -0 -1 -2 -0 -1 -0 -1 -0 -1 -0 -1 -3 0 2 5 4 5 7 6
2 -4 4 5 6 3 6 6 5 5 1 -4 2 1 -2 -4 -4 -4 -4 -4 -4 0 1 -1 -1 -2 -2 -3 -1 -2 -1 -2 1 2 3 1 1 1 2 -0 1 3 4 5 6
2 0 3 5 6 3 5 5 9 6 -4 -1 2 -1 -3 -2 -3 -5 -2 -1 -1 1 1 -1 -1 -2 -1 -1 -1 -2 -1 1 1 4 4 2 2 1 -2 -3 -1 -1 2 4 5
2 1 2 4 6 6 5 8 8 4 2 2 -1 -1 -2 -3 -3 -3 -3 -1 -3 -2 1 1 1 0 -1 -2 -1 -1 -1 2 2 4 1 2 4 -0 -2 -1 0 -1 -2 1 3
1 2 1 4 6 6 6 8 5 3 2 -1 -2 0 -1 -3 -3 -4 -3 -3 -3 -2 -1 1 0 0 1 -0 -2 -0 0 -1 4 4 5 3 1 -4 -2 2 2 1 -1 -1 2
0 1 -0 3 5 6 6 6 5 2 4 4 0 -1 1 -1 -3 -2 -3 -4 -5 -3 -3 -0 -1 -0 -0 1 -0 -1 -1 1 2 4 4 2 0 -0 -2 -2 2 2 2 1 1
0 1 -0 2 5 5 5 4 3 2 3 4 4 2 -0 -1 -2 -2 -2 -5 -5 -4 -4 -0 -3 -3 2 1 -0 0 -0 0 0 2 3 3 1 -3 -3 -1 -1 -2 0 1 1
2 1 -0 1 5 4 5 2 1 3 2 3 4 5 1 -1 -2 -2 -2 -4 -6 -1 -1 0 -0 0 0 -0 -1 -1 -0 0 3 1 3 3 2 -4 -5 -5 -4 -3 -2 -1 1
1 1 3 2 5 4 2 2 2 2 2 3 4 4 1 -1 -3 -2 -2 -5 -3 -1 1 2 1 3 1 -1 -2 0 0 1 1 1 3 3 2 -4 -4 -5 -6 -5 -4 -1 0
1 1 4 4 2 1 2 3 2 1 1 1 4 4 3 2 -0 -2 -2 2 0 -1 -1 -1 1 0 2 0 -1 0 1 2 1 3 3 2 -0 -2 -3 -3 -4 -5 -5 -5 -1
1 -0 2 3 3 3 1 1 3 2 1 2 3 4 3 4 1 2 3 3 1 2 0 -1 -0 -0 -1 -2 -1 -0 0 2 1 1 2 1 1 -1 -2 -4 -5 -5 -5 -4 -2
1 1 1 2 1 2 3 2 3 2 3 2 3 3 4 5 1 1 3 3 2 1 1 0 1 -1 2 0 0 1 -0 -0 1 1 1 0 0 -2 -3 -3 -2 -4 -1 2 4
-0 0 2 0 2 2 2 2 1 1 1 2 1 0 3 1 0 -0 -0 1 1 2 2 1 2 2 2 -0 -1 2 -0 -1 -1 -1 -0 1 -1 -3 -2 -2 -1 -0 1 1 1

GFSSW_850_dewp_039.txt.gz
Dewpoint
7 5 4 1 -3 -7 -9 -9 -10 -10 -9 -8 -8 -10 -11 -13 -11 -3 -3 -5 -4 -14 -12 -15 -11 -9 -6 -3 -5 -6 -4 -4 -6 -6 -5 7 7 9 9 11 11 12 12 12 12
9 8 7 6 4 -2 -7 -9 -10 -10 -9 -7 -7 -10 -11 -14 -7 -1 -2 -5 -6 -9 -13 -16 -7 -10 -6 -5 -4 -5 -3 -5 -7 -8 -1 6 6 8 10 11 11 11 12 12 12
9 9 9 8 7 5 -3 -9 -9 -10 -8 -7 -6 -10 -11 -14 -8 -2 -3 -7 -7 -9 -14 -6 -6 -8 -6 -6 -5 -6 -4 -6 -7 -7 -2 6 6 7 9 10 10 11 12 12 12
6 6 8 9 9 8 4 -5 -9 -9 -8 -6 -6 -9 -11 -15 -0 -4 -3 -9 -10 -11 -9 -4 -5 -4 -4 -5 -6 -5 -6 -6 -7 1 5 6 6 9 8 9 10 11 11 12 12
7 7 5 7 8 8 8 1 -7 -9 -8 -6 -5 -8 -11 -12 -15 -1 -6 -13 -13 -12 -7 -5 -4 -3 -3 -5 -7 -6 -7 -5 -1 3 5 5 6 8 10 11 11 11 10 10 11
1 6 7 5 4 7 7 6 -4 -8 -8 -6 -4 -8 -9 -9 -6 -1 -7 -12 -13 -9 -6 -5 -4 -3 -3 -3 -5 -4 -2 3 5 5 5 7 8 7 10 11 9 11 11 11 10
-20 -2 6 7 5 2 6 7 1 -7 -8 -7 -3 -6 -9 -14 -15 -0 -5 -9 -10 -7 -6 -5 -4 -3 -3 -2 -4 -3 1 2 5 5 6 4 4 8 10 11 10 11 11 10 11
-29 -24 -0 7 7 4 2 7 5 -5 -8 -7 -3 -5 -10 -17 -18 -1 -3 -4 -7 -8 -7 -6 -4 -4 -3 -3 -4 -5 -4 -2 3 4 5 -0 4 8 10 10 10 10 10 10 9
-28 -28 -17 4 7 6 4 4 6 -5 -9 -6 -4 -5 -10 -14 -15 -6 -4 -3 -2 -2 -2 -4 -4 -3 -3 -2 -2 -2 -3 0 4 4 4 2 4 7 10 10 9 9 9 7 8
-25 -28 -27 -3 6 7 6 6 5 -6 -4 -1 -0 -2 -7 -8 -4 -5 -4 -3 -2 -2 -2 -2 -3 -2 -2 -2 -0 0 -1 -1 -1 -2 3 5 2 8 10 9 8 8 9 8 7
-18 -24 -28 -13 5 7 6 7 -4 -1 3 -1 -3 -5 -15 -7 -2 -4 -4 -3 -2 -2 0 -0 -0 0 -2 -1 -3 -1 -0 -0 -2 -3 1 4 3 7 9 10 10 9 9 9 6
-4 -11 -21 -19 4 6 7 7 -1 2 2 -3 -3 -1 -0 -2 1 -2 -3 -3 -2 -0 1 0 2 -1 -2 -1 -1 -1 -0 -0 -1 -4 -2 -2 -0 3 8 9 9 9 10 10 8
-1 -6 -9 -7 5 5 7 4 5 5 5 -1 -4 -5 -4 -3 -1 -2 -3 -4 -2 -0 1 1 -2 -1 -1 -1 -0 -1 -0 -0 0 -1 -4 -2 -1 2 5 7 8 8 9 8 8
2 -0 -5 4 2 2 5 4 2 5 3 -0 0 -1 -2 -3 -0 -4 -4 -4 -1 -1 0 0 -1 -1 -1 -1 -1 0 -2 -1 0 -1 -2 -3 -1 -2 3 6 6 7 8 8 7
2 3 -3 4 5 4 4 5 3 4 3 -3 4 0 0 -2 -4 -2 -4 -4 1 1 0 1 -0 1 1 -0 -1 -0 -1 0 -0 -0 0 -0 -1 -2 0 3 5 6 6 7 6
1 2 0 4 5 3 6 6 5 6 5 -6 2 3 2 -2 -4 -3 -4 -4 -3 1 1 -0 -1 -1 -0 -2 -2 -1 -1 -1 1 2 3 1 1 0 0 -0 1 3 5 5 6
1 1 2 2 3 2 6 6 7 8 -2 -3 3 0 -1 -2 -3 -3 -1 1 0 2 2 -1 0 -2 -2 -1 -1 -1 0 2 1 5 4 2 3 1 -1 -2 -2 -1 2 4 5
1 1 2 1 4 3 6 6 8 3 2 -0 0 -1 -1 -2 -3 -3 -1 -1 -2 -3 -0 0 1 -0 -1 -1 0 0 0 4 2 4 1 2 3 -2 -2 -2 -0 1 -0 -2 0
0 0 1 0 3 5 6 7 4 4 1 0 -1 -0 -1 -3 -2 -2 -1 -1 -2 -1 -0 3 1 -1 0 -1 -2 0 1 -1 5 5 6 2 0 -3 -2 -1 1 1 0 -1 -2
1 0 1 0 3 5 6 5 5 1 4 4 1 1 1 -1 -1 -1 -1 -2 -2 -2 -2 1 1 -0 -0 1 0 -0 -1 3 3 5 5 2 1 -2 -3 -2 -1 -0 1 -0 -1
1 1 0 1 3 5 5 4 2 2 2 4 5 5 1 0 -1 -0 -1 -4 -4 -3 -3 0 -1 -1 2 2 1 1 1 1 1 3 4 3 1 -1 -2 -3 -1 -1 -2 -0 -0
1 1 -0 -1 3 4 4 2 1 1 2 3 4 5 3 0 -0 -0 -0 -3 -6 -3 -1 0 2 2 -0 -0 -1 -1 1 1 5 3 3 4 2 -3 -2 -4 -4 -3 -3 -1 -0
1 -0 -0 -0 3 3 2 1 2 1 2 4 4 4 3 1 -1 -1 -1 -4 -4 -2 1 1 1 2 0 -0 -1 1 1 1 1 2 4 8 3 -4 -3 -3 -4 -4 -6 -4 -2
1 1 2 1 -0 -0 2 2 2 1 2 2 3 4 3 3 0 -0 -1 -1 -2 -2 -3 -2 2 1 0 -0 0 2 1 1 2 5 4 4 1 -1 -2 -2 -3 -3 -5 -5 -5
1 1 2 2 1 -0 0 1 2 2 1 1 3 4 4 3 1 1 1 3 2 2 1 1 2 1 -1 -2 -1 -0 1 2 1 2 4 2 1 -1 -1 -2 -2 -4 -4 -2 0
1 0 -1 1 -0 1 1 2 1 1 1 2 3 3 2 5 3 3 4 3 3 3 2 1 2 0 0 1 0 2 0 1 1 1 1 0 1 -1 -2 -3 -2 -3 1 3 4
0 -1 -2 1 1 0 0 1 1 1 1 -0 2 2 3 1 1 1 0 -0 2 3 3 2 4 3 3 0 0 4 2 1 0 0 1 3 1 -2 -2 -1 -0 1 2 2 2

GFSSW_850_dewp_042.txt.gz
Dewpoint
9 9 9 7 6 6 0 -7 -9 -10 -10 -9 -7 -7 -11 -12 -14 -3 -1 -5 -6 -14 -11 -11 -4 -4 -5 -6 -5 -6 -6 -8 -7 -6 -7 2 2 8 9 8 10 11 12 13 12
8 8 9 9 8 7 7 0 -7 -9 -9 -9 -7 -7 -11 -13 -13 -1 -3 -6 -7 -11 -12 -6 -7 -8 -9 -6 -6 -6 -7 -7 -8 -8 -7 -3 2 6 8 8 9 12 12 12 12
4 6 6 8 8 8 8 7 -1 -8 -9 -9 -7 -6 -10 -12 -14 -0 -3 -8 -8 -11 -13 -4 -8 -8 -8 -7 -6 -6 -5 -6 -7 -7 -7 -2 4 6 6 6 7 10 11 11 12
-1 1 4 4 4 8 8 8 6 -3 -8 -9 -8 -6 -10 -12 -7 -4 -2 -9 -10 -13 -6 -3 -4 -5 -5 -6 -6 -5 -6 -6 -6 -2 -0 3 6 7 7 10 10 12 12 11 11
-20 -5 0 3 5 4 5 7 7 3 -6 -8 -8 -5 -8 -4 -12 -5 -4 -13 -10 -13 -4 -4 -3 -4 -5 -5 -5 -4 -5 -4 -1 -0 4 5 4 6 10 11 11 12 12 11 11
-27 -26 -14 -1 2 4 2 4 5 6 -1 -8 -8 -5 -4 -6 -15 -1 -7 -14 -12 -9 -6 -4 -3 -3 -3 -3 -4 -4 -4 2 3 3 3 4 5 6 10 10 10 10 10 11 10
-28 -29 -27 -20 -1 3 2 -1 2 6 4 -5 -8 -5 -3 -7 -16 -1 -8 -11 -11 -5 -6 -5 -3 -3 -3 -4 -3 -4 -2 1 2 4 4 4 3 8 9 9 9 9 10 10 10
-21 -27 -28 -27 -13 2 3 0 0 5 6 -2 -7 -3 -1 -11 -16 -3 -4 -8 -9 -7 -6 -5 -5 -3 -2 -2 -4 -4 -4 -3 -2 3 4 4 3 7 9 8 8 9 7 10 10
-18 -16 -25 -26 -18 -2 -0 -2 1 1 5 -3 -5 -2 -4 -11 -14 -10 -2 -2 -4 -5 -4 -4 -3 -2 -2 -4 -5 -3 -4 -3 -2 2 3 3 1 5 8 7 6 7 7 8 10
-13 -18 -16 -24 -19 -9 -4 -3 -1 0 -0 -2 1 1 -5 -9 -4 -7 -4 -4 -1 -1 -2 -2 -2 -2 -4 -6 -4 -4 -4 -3 -2 0 3 2 2 4 7 6 4 5 6 6 9
0 -11 -21 -20 -23 -8 -1 1 4 3 2 3 1 -1 -11 -5 -2 -1 -3 -2 -1 -2 -1 -0 -0 -3 -6 -7 -4 -3 -4 -4 -4 -4 -2 -1 -0 0 5 7 6 5 6 7 6
2 1 -7 -19 -19 -4 4 6 5 3 3 2 -3 -0 -1 -4 -1 -1 -2 -1 -1 -1 -1 0 -1 -2 -2 -2 -2 -2 -3 -3 -2 -3 -3 -4 -3 -2 3 6 6 5 6 6 7
2 2 2 -8 -12 -2 3 6 6 6 5 2 -0 -1 -1 -2 -2 -4 -2 -3 -3 -2 -1 -1 -2 -2 -1 -1 -1 -1 -1 -1 -1 -2 -3 -2 -3 -1 2 5 7 7 5 6 6
2 2 2 -1 -3 1 4 1 4 2 4 -2 -1 -1 -1 -2 -2 -4 -3 -4 -3 -2 -2 -1 -2 -1 -1 -1 -1 -1 -3 -2 -0 -0 -2 -2 -2 -2 -1 3 5 5 6 4 5
2 2 2 -1 6 5 5 3 4 5 0 -4 1 1 2 -3 -5 -3 -3 -3 -3 -2 -1 -1 -1 -0 -1 -2 -2 -2 -2 -1 -1 -1 -1 -2 -3 -4 -2 -2 0 3 4 5 3
2 1 2 1 4 4 5 5 6 6 -0 -5 1 2 1 -1 -5 -4 -3 -3 -4 -3 -1 -3 -2 -2 -3 -2 -2 -1 -1 -1 1 0 1 -2 -2 -3 -4 -6 -5 -3 1 4 5
1 1 1 2 2 4 6 7 5 3 -5 -6 1 2 -0 -2 -3 -4 -3 -2 -2 0 0 -1 -1 -3 -2 -1 -1 -1 -0 3 2 2 2 1 0 -3 -5 -4 -3 -3 -3 1 3
-3 2 1 2 3 3 5 7 3 -9 -5 -3 -0 1 0 -5 -4 -3 -3 -2 -4 -4 -3 -1 -0 -3 -3 -1 -2 -1 -1 2 2 2 0 1 -0 -3 -3 -3 -2 -0 0 0 -0
-4 1 1 -0 2 4 6 7 -4 -5 -3 -3 -2 2 0 -4 -5 -2 -3 -4 -4 -4 -3 -1 -2 -3 -2 -2 -3 0 1 -1 2 5 2 -2 -3 -5 -4 -4 -3 -2 0 1 -0
-4 -1 1 -1 0 3 5 3 -5 -6 -2 -0 -2 1 1 -3 -2 -3 -2 -4 -4 -5 -6 -2 -0 -1 1 -0 -0 -0 -2 1 1 3 2 -1 -1 -5 -5 -6 -5 -6 -4 -0 2
-3 1 1 -1 0 2 5 1 -4 -3 -1 2 1 -2 1 -1 -3 -2 -3 -4 -4 -3 -5 -4 -2 1 1 1 -1 1 1 -0 -0 1 2 2 -1 -6 -5 -6 -3 -4 -3 -2 0
-0 2 1 -1 2 2 3 0 -4 -3 -0 1 2 4 2 -0 -2 -2 -3 -4 -5 -5 -2 -3 -2 2 -1 -1 -2 -3 -2 -1 2 1 2 4 1 -6 -5 -4 -4 -4 -3 -1 1
-0 1 0 -0 1 2 0 -0 -3 -1 -2 2 3 3 3 3 1 -2 -3 -5 -5 -3 -3 -1 -1 2 -0 -1 -1 -1 -2 -2 0 2 3 7 1 -4 -4 -3 -3 -3 -3 -3 -1
-0 1 2 2 -3 -1 -0 0 -1 -2 -3 0 1 2 4 4 1 -0 -2 -1 -2 -4 -3 -2 -2 -1 1 -2 -4 -0 -1 -1 0 4 2 3 -1 -3 -4 -4 -5 -4 -2 -3 -3
1 1 1 2 1 -2 -2 -3 -1 -0 -1 -1 2 3 3 4 3 2 -1 1 0 -0 -3 -1 -1 -1 -4 -6 -6 -5 -5 -1 0 0 1 0 -2 -3 -6 -5 -6 -2 -2 -0 2
0 1 0 -2 -1 -1 -0 0 -2 -2 -2 -1 2 2 2 2 1 2 3 3 -1 2 -0 -1 -1 0 -0 -3 -3 -3 -4 -4 -2 -3 -1 -1 -2 -6 -5 -2 -2 -2 -0 2 4
0 -0 -2 -2 -1 -0 1 -1 -1 -2 -3 -5 -3 -2 2 2 2 2 2 1 0 3 3 2 1 1 -0 -0 -1 3 1 -2 -2 -1 -1 -0 -3 -5 -4 -2 -2 -0 2 3 4

GFSSW_850_dewp_045.txt.gz
Dewpoint
7 8 9 9 8 7 6 6 1 -8 -10 -10 -9 -8 -8 -11 -14 -6 -1 -1 -5 -11 -13 -3 -4 -5 -6 -7 -8 -9 -8 -8 -9 -7 -6 -5 -2 2 6 6 8 10 12 13 11
3 3 6 8 8 7 6 6 6 1 -8 -10 -10 -9 -7 -11 -14 -3 -0 -5 -8 -12 -8 -7 -8 -8 -9 -8 -9 -8 -7 -8 -9 -8 -7 -5 -1 3 6 3 6 12 13 12 12
-2 -2 2 4 5 3 5 5 7 6 -0 -8 -10 -9 -7 -10 -4 -6 -0 -6 -9 -12 -5 -9 -8 -10 -9 -9 -8 -8 -6 -8 -8 -6 -5 -4 -1 3 4 7 8 9 12 12 12
-22 -16 -7 0 3 2 2 -1 4 5 5 -2 -10 -10 -8 -10 -5 1 -4 -6 -10 -14 -5 -6 -8 -8 -8 -8 -7 -6 -7 -8 -7 -6 -3 1 -0 3 4 8 10 12 11 12 11
-26 -27 -21 -14 -3 1 3 1 -4 4 3 4 -5 -9 -9 -0 -5 -7 -5 -7 -12 -13 -4 -4 -5 -5 -7 -9 -7 -6 -6 -5 -3 -2 1 3 2 5 9 10 12 11 11 11 11
-27 -27 -28 -25 -23 -9 -2 3 -2 1 3 3 1 -9 0 -0 -6 -6 -1 -11 -4 -4 -4 -5 -5 -5 -5 -7 -7 -5 -6 -2 -1 -0 1 2 3 5 8 8 10 10 11 10 10
-25 -24 -27 -28 -28 -26 -13 -2 1 -2 -0 2 5 -5 1 -3 -4 -1 -3 -4 -5 -4 -5 -5 -4 -4 -4 -6 -6 -6 -5 -2 -2 -1 0 2 6 4 7 7 6 8 11 11 10
-13 -22 -25 -25 -27 -29 -19 -6 -2 0 -1 1 5 -5 0 -4 -7 -2 -1 -4 -4 -4 -4 -4 -4 -4 -4 -5 -6 -7 -6 0 -3 -1 0 4 9 4 6 6 6 5 9 10 10
-4 -12 -20 -25 -26 -28 -28 -12 -8 -3 -2 -1 3 2 -1 -3 -9 -7 -0 -4 -5 -4 -4 -4 -3 -4 -4 -5 -6 -6 -3 -0 -1 -3 2 -0 6 4 4 4 5 4 7 9 8
2 -1 -10 -22 -24 -27 -28 -16 -8 -7 -1 -2 3 3 -1 -6 -9 -10 -1 -3 -3 -3 -3 -2 -3 -3 -5 -7 -4 -6 -5 -5 0 6 -2 -1 1 3 4 2 4 3 5 8 6
3 2 0 -12 -21 -25 -26 3 4 6 5 -3 -0 -5 -9 -7 -2 -4 -4 -2 -3 -3 -2 -2 -1 -1 -5 -8 -9 -6 -6 -4 -2 -6 -5 -3 -3 1 3 4 2 4 4 6 7
3 2 2 -1 -11 -21 -13 2 2 5 3 -1 -1 -1 -1 -3 -2 -5 -2 -3 -2 -1 -3 -1 0 -4 -5 -6 -6 -5 -5 -6 -6 -6 -5 -5 -2 -5 1 3 2 2 3 3 4
3 2 2 2 -2 -11 1 2 4 6 2 -4 -3 -2 -3 -3 -3 -6 -3 -4 -3 -2 -3 -1 -3 -4 -4 -5 -4 -4 -3 -1 -4 -3 -4 -5 -4 -5 -3 1 2 2 2 4 4
1 3 2 2 -3 1 3 3 5 5 1 -6 -1 -2 -3 -3 -2 -5 -5 -5 -4 -3 -4 -3 -4 -3 -4 -4 -4 -2 -5 -4 -3 -3 -1 -2 1 2 -3 0 2 2 2 2 3
-3 2 2 1 4 4 5 5 6 6 -2 -6 -4 -1 -2 -3 -6 -5 -6 -5 -4 -4 -4 -2 -3 -2 -2 -4 -4 -3 -3 -3 -2 -1 -2 -3 -4 -0 -5 -3 -1 1 2 1 2
-2 -2 2 2 2 4 6 7 7 4 -1 -6 -2 -0 0 -2 -6 -6 -6 -5 -6 -5 -5 -4 -5 -5 -4 -5 -4 -4 -2 -2 -1 -1 3 -3 -3 1 -4 -7 -8 -3 0 1 1
-2 -4 1 2 2 3 6 7 3 -1 -9 -8 -2 -1 -0 -1 -4 -5 -4 -4 -4 -2 -1 -3 -3 -4 -5 -2 -3 -2 -0 3 3 3 3 1 -2 -3 2 -7 -7 -6 -5 -1 1
-1 -4 -0 2 1 4 6 7 -1 -11 -8 -5 -4 -1 -0 -3 -2 -3 -3 -3 -5 -4 -2 -1 -0 -3 -4 -3 -2 -1 -1 3 9 3 1 -0 -2 -3 -6 -6 -6 -5 -3 -3 -1
-1 -1 1 1 1 3 4 6 -2 -9 -13 -8 -5 0 1 -3 -4 -3 -3 -4 -5 -6 -3 -1 -2 -6 -5 -5 -4 -2 0 -2 3 1 2 -1 -4 -7 -8 -8 -7 -6 -3 -1 -1
0 1 0 0 1 3 4 5 -4 -11 -13 -8 -6 -3 0 -2 -4 -3 -3 -6 -6 -6 -7 -4 -1 -5 -4 -3 -3 -2 -2 1 1 4 6 -2 -3 -4 -5 -7 -8 -8 -6 -3 -0
1 1 -0 0 1 3 3 2 -1 -10 -12 -9 -5 -6 -2 -0 -4 -3 -3 -6 -7 -6 -7 -5 -3 -2 -1 0 -1 -1 1 -1 -1 1 5 4 -1 -4 -6 -7 -7 -6 -6 -5 -4
1 2 -0 -1 2 2 2 -1 -3 -7 -8 -9 -5 -4 -5 -0 -2 -5 -3 -5 -7 -7 -3 -5 -2 2 1 -2 -4 -3 -2 -1 2 2 1 3 2 -5 -6 -7 -6 -5 -6 -5 -3
1 1 0 1 2 3 -1 -1 -3 -4 -6 -7 -3 -1 -2 -1 1 -2 -4 -4 -5 -5 -3 -4 -2 2 0 -1 -2 -1 -2 -3 -1 -1 2 8 3 -5 -6 -6 -6 -6 -6 -5 -3
1 2 2 2 -1 -2 -2 -2 -4 -3 -4 -8 -4 -3 -1 2 -0 0 -2 -3 -3 -4 -5 -3 -3 -0 2 1 -2 -1 -3 -4 -2 4 2 1 -2 -4 -5 -5 -7 -6 -5 -4 -4
1 2 2 2 2 -0 -3 -5 -5 -4 -3 -4 -5 -3 -4 0 -0 0 -1 0 -0 -2 -2 -1 -1 -2 -3 -3 -4 -4 -3 -4 -3 -3 1 -1 -3 -4 -5 -6 -8 -3 -4 -5 -3
0 -1 -0 -1 0 -1 -2 -3 -6 -6 -6 -4 -3 -2 -2 -2 -2 0 -0 0 -0 -2 -0 -2 0 -1 -2 -3 -4 -4 -6 -7 -7 -5 -4 -5 -4 -6 -8 -8 -8 -6 -4 -3 -1
-0 -2 -2 -2 1 0 -0 -3 -6 -7 -7 -7 -6 -4 -1 -3 1 2 2 2 1 2 2 -1 2 1 3 -2 -2 2 -3 -5 -6 -7 -4 -2 -4 -6 -6 -7 -6 -4 -4 -0 2

GFSSW_850_dewp_048.txt.gz
Dewpoint
4 4 5 5 6 5 5 6 6 6 5 -3 -10 -11 -11 -10 -12 -15 -3 1 -1 -7 -15 -3 -2 -4 -5 -6 -8 -9 -7 -5 -5 -4 -5 -6 -5 -1 4 4 9 9 12 12 12
-3 -4 0 1 1 3 2 2 4 6 6 5 -1 -10 -11 -10 -11 -15 -4 -1 -6 -10 -16 -4 -6 -7 -7 -8 -9 -9 -7 -5 -8 -9 -7 -7 -5 5 7 7 7 3 6 11 13
-22 -18 -13 -7 -5 -4 -2 -3 -1 -1 4 4 4 -3 -11 -10 -4 -1 -5 -2 -7 -11 -9 -6 -9 -10 -10 -10 -10 -9 -7 -7 -9 -7 -7 -7 -4 -2 3 9 6 6 7 11 12
-25 -25 -25 -24 -22 -13 -8 -7 -2 -1 -3 3 2 3 -8 -9 -2 1 -1 -3 -8 -12 -11 -6 -8 -8 -9 -8 -8 -8 -9 -8 -8 -5 -6 -5 0 2 7 12 11 12 11 12 11
-26 -25 -26 -28 -27 -28 -24 -16 -5 -4 -4 -0 3 3 -2 1 -1 -1 -6 -8 -8 -13 -3 -6 -6 -7 -5 -7 -10 -8 -8 -8 -4 -3 -4 -2 3 6 9 12 12 11 11 11 11
-20 -24 -25 -27 -30 -30 -30 -28 -16 -6 -3 -6 0 3 4 1 -3 -4 -1 -12 -9 -11 -4 -5 -6 -5 -5 -5 -8 -9 -7 -7 -3 -4 -1 5 7 7 9 9 11 11 11 11 10
-8 -15 -23 -26 -28 -30 -30 -30 -24 -9 -4 -5 -4 3 5 0 -4 -5 -1 -2 -7 -5 -5 -5 -6 -4 -5 -4 -7 -8 -7 -7 -3 -2 -2 3 4 7 4 6 9 10 10 10 10
2 -2 -11 -23 -26 -27 -29 -30 -29 -15 -10 -5 -3 1 4 -6 -3 -3 -3 -2 -6 -6 -5 -5 -5 -4 -4 -4 -5 -6 -7 -5 -4 -0 4 3 7 4 4 5 5 10 10 10 9
3 2 -1 -14 -22 -25 -28 -30 -31 -20 -11 -7 -4 4 1 -3 -2 -6 -4 -3 -6 -5 -4 -4 -5 -4 -5 -4 -4 -6 -5 -3 -3 -2 0 7 9 7 6 4 3 7 8 9 10
3 3 2 1 -13 -21 -26 -29 -19 -4 3 3 3 2 0 -4 -6 -6 -6 -2 -6 -5 -4 -4 -5 -4 -4 -5 -2 -4 -5 -5 -0 0 -2 1 8 8 9 3 3 5 7 8 8
1 3 3 2 -1 -16 -23 -27 1 7 7 2 -2 -3 -7 -3 -5 -9 -8 -1 -4 -5 -3 -5 -2 -1 -3 -4 -7 -9 -7 -2 -1 -2 1 -4 -2 7 6 5 3 3 6 6 8
-2 2 2 2 2 -8 -12 3 -3 4 2 -4 -3 -0 -2 -2 -3 -5 -9 -3 -3 -2 -4 -2 0 -2 -4 -5 -6 -7 -6 -5 -7 -3 -5 -7 -4 4 7 6 2 3 5 5 7
-1 -0 2 2 2 -6 -10 -2 2 3 2 -5 -9 -7 -5 -4 -2 -3 -5 -5 -4 -3 -2 -1 -2 -3 -4 -4 -5 -6 -5 -4 -0 -3 -4 -4 -5 -1 2 0 1 2 3 5 6
-7 -2 -0 2 -2 3 -0 1 2 4 3 -10 -12 -6 -8 -5 -6 -4 -6 -4 -5 -3 -3 -3 -4 -3 -2 -5 -7 -4 -6 -5 -4 -3 -2 -3 1 -2 -3 3 1 0 2 3 4
-3 -3 -2 2 2 4 5 3 4 7 -3 -12 -9 -3 -3 -4 -6 -5 -5 -4 -3 -4 -3 -2 -3 -4 -1 -4 -6 -4 -3 -2 -3 -3 -2 -1 2 -3 -3 -0 1 1 1 3 4
-0 -3 -2 -1 1 -1 6 5 5 5 -1 -9 -2 -2 -2 -3 -4 -6 -5 -6 -5 -5 -4 -4 -6 -5 -3 -5 -5 -6 -3 -2 -2 -1 3 -1 -2 2 1 2 -2 0 1 1 3
-0 -1 -2 0 2 1 3 6 5 1 -14 -13 -4 -1 -2 -0 -2 -3 -3 -3 -2 -1 0 -4 -5 -5 -5 -4 -5 -4 -1 4 4 5 5 -2 -1 1 -0 -0 -3 -1 0 1 1
-2 0 -2 0 0 2 3 6 1 -8 -7 -7 -8 -3 -0 -1 -0 -1 -3 -3 -3 -4 -2 -1 0 -4 -4 -4 -2 -2 -1 5 9 10 8 3 1 -2 -3 -5 -6 -6 -6 -1 1
-0 1 1 1 0 2 4 5 -1 -6 -11 -10 -8 -3 -1 -1 -2 -1 -2 -2 -4 -4 -1 -1 -1 -6 -4 -5 -4 -2 1 -1 7 6 8 5 2 -2 -5 -7 -7 -6 -5 -3 -4
1 1 1 0 0 3 4 2 -3 -8 -9 -10 -9 -8 -2 -0 -1 -1 -1 -3 -3 -4 -5 -2 1 -4 -5 -5 -4 -3 -3 2 2 7 8 -0 -3 -2 -4 -6 -8 -8 -5 -3 -1
1 1 1 0 1 3 3 2 -2 -6 -7 -7 -8 -9 -7 -4 -1 -2 -2 -3 -3 -3 -5 -3 -1 -1 -4 -3 -3 -2 -0 2 2 2 7 7 2 3 -1 -6 -6 -6 -7 -6 -4
1 2 0 0 2 2 2 1 -2 -6 -7 -5 -6 -6 -6 -4 -3 2 -3 -3 -5 -5 -3 -3 0 2 -2 -4 -4 -3 -1 1 5 4 6 10 4 -3 -2 -5 -6 -5 -6 -6 -4
1 1 1 0 2 2 1 -2 -3 -3 -6 -6 -4 -5 -6 -3 0 0 1 -5 -5 -4 -2 -2 -0 3 1 1 -2 -1 -2 -2 0 2 5 9 5 -4 -5 -6 -6 -6 -5 -5 -4
1 1 2 2 -1 0 0 -0 -2 -4 -5 -8 -5 -7 -5 -2 2 0 1 -3 -3 -4 -4 -0 -1 0 4 3 -0 0 -1 0 2 6 5 4 2 -2 -4 -2 -6 -5 -6 -6 -5
1 2 1 2 2 -0 -1 -3 -3 -3 -5 -6 -6 -5 -5 3 1 3 1 2 -3 -3 -1 0 3 0 -1 -3 -2 -1 -1 -2 -2 -2 2 2 -1 -3 -4 -2 -2 -3 -4 -5 -5
-0 0 -0 -2 0 0 0 -0 -3 -5 -6 -4 -3 -4 -5 -1 -1 0 2 1 0 -1 -0 -1 2 1 2 -2 -2 0 0 -3 -4 -4 -4 -3 -2 -6 -7 -6 -4 -8 -7 -4 -4
0 -0 -2 -1 1 1 1 -0 -2 -4 -6 -8 -5 -3 -2 -3 -2 4 1 4 2 1 2 2 4 3 4 0 -1 2 0 -2 -4 -5 -5 -2 -3 -5 -5 -5 -7 -7 -6 -5 -4

GFSSW_850_dewp_051.txt.gz
Dewpoint
-9 -10 -11 -5 -3 0 -1 0 2 1 3 3 4 4 -0 -10 -11 -10 -12 -10 -1 -2 -10 -11 -5 -5 -4 -4 -5 -5 -7 -5 -6 -4 -5 -6 0 3 5 8 8 5 6 6 9
-22 -19 -21 -19 -16 -12 -7 -6 -4 -3 -4 -1 2 2 2 -4 -10 -10 -10 -4 -0 -5 -11 -12 -5 -6 -5 -6 -6 -7 -6 -6 -8 -7 -6 -6 -5 5 6 5 7 6 6 11 11
-24 -27 -27 -28 -27 -28 -22 -16 -10 -7 -6 -7 -7 -0 -1 -0 -8 -0 -5 -7 -3 -6 -13 -5 -5 -8 -8 -8 -9 -8 -7 -8 -8 -7 -6 -5 5 8 8 9 7 7 9 12 11
-17 -25 -27 -27 -28 -30 -30 -29 -26 -18 -12 -6 -10 -10 -3 -1 0 -1 -4 -2 -2 -8 -12 -6 -7 -9 -6 -8 -10 -7 -9 -9 -9 -4 -5 4 6 8 7 10 10 11 12 11 10
-8 -19 -25 -27 -28 -29 -30 -31 -31 -28 -19 -8 -7 -8 -5 2 -1 -4 -1 -5 -7 -8 -14 -10 -5 -7 -6 -7 -5 -7 -8 -6 -7 -3 2 3 5 8 5 11 11 11 11 11 11
0 -7 -18 -24 -27 -28 -30 -31 -32 -31 -25 -10 -3 -5 1 5 -6 -2 -5 -5 -10 -8 -15 -6 -4 -5 -5 -4 -5 -6 -7 -8 -8 -2 2 4 6 3 7 8 11 10 10 11 10
0 2 -4 -17 -22 -25 -28 -30 -32 -32 -27 -15 -3 -1 0 -12 -9 -3 -0 -1 -5 -8 -13 -6 -5 -6 -5 -3 -4 -4 -4 -7 -8 -3 4 4 5 5 6 6 11 11 10 9 10
1 2 3 -2 -14 -22 -26 -30 -31 -31 -30 -15 -4 1 2 -26 -9 -7 -5 -1 -2 -5 -6 -6 -5 -4 -4 -4 -4 -3 -4 -3 -7 -1 4 3 7 4 2 4 10 10 10 9 9
-1 1 3 2 -1 -15 -23 -29 -31 -31 -22 -2 -3 1 4 -3 -6 -13 -5 -4 -2 -5 -6 -6 -5 -5 -4 -2 -1 -2 -1 -3 -5 2 5 6 9 4 5 6 9 10 10 9 9
-1 -2 1 3 2 -6 -19 -28 -32 -28 -4 6 4 5 -3 -9 -6 -5 -6 -6 -2 -6 -6 -4 -4 -3 -3 -2 1 -1 -2 -5 1 -1 3 7 7 5 3 7 7 9 10 9 9
-0 -1 0 2 3 -2 -11 -24 -3 3 7 6 2 -13 -13 -5 -2 -6 -6 -5 -2 -4 -2 -4 -2 -1 -2 -3 -3 -3 -4 -6 -5 -2 -1 5 7 5 6 8 7 8 10 9 10
-3 -1 -2 1 2 1 -3 -12 -5 3 4 3 2 4 -1 -4 1 -3 -8 -5 -1 0 -3 -2 -1 -3 -3 -2 -2 -2 -4 -5 -2 -2 1 4 7 6 7 8 6 7 8 7 8
-2 -5 -2 -0 1 -1 -4 -12 -17 -0 4 1 -2 -3 -8 -6 -2 -2 -6 -4 -1 -1 -1 -1 -1 -3 -2 -1 -1 -3 -4 -4 -1 -2 -3 -3 7 7 6 7 5 7 7 7 8
0 -1 -6 -2 -1 3 3 5 1 3 7 -2 -8 -6 -6 -7 -3 -5 -2 -6 -3 -1 -1 -1 -3 -2 -2 -1 -3 -4 -5 -2 -1 -2 -1 -3 1 7 6 8 8 5 6 7 9
-0 0 -3 -3 -0 2 5 6 5 4 1 -11 -9 -9 -9 -7 -6 -6 -7 -3 -3 -3 -2 -1 -1 -1 -1 -1 -3 -4 -3 -1 -0 0 0 -0 1 -0 6 8 7 5 6 5 9
-1 -0 -2 -1 -1 -4 0 5 5 6 6 -7 -2 -2 -4 -8 -5 -5 -6 -5 -4 -3 -4 -3 -4 -3 -3 -3 -3 -3 -1 -1 -1 1 4 1 1 3 2 1 4 3 4 6 6
-1 -1 1 -2 -2 -0 3 4 6 6 -10 -14 0 -1 -1 -2 -5 -4 -3 -3 -2 1 1 -2 -3 -4 -5 -2 -3 -3 -1 4 8 6 6 3 3 3 0 0 1 2 3 4 5
-1 -1 0 -0 -3 -0 3 5 6 -6 -6 -8 -7 -0 1 -1 -0 -1 -2 -1 -3 -3 -0 1 2 -3 -4 -3 -1 -1 -0 6 9 9 8 5 5 1 -1 -1 -3 -2 1 3 4
1 1 0 -1 -3 -0 3 5 -0 -5 -8 -12 -10 -6 1 -0 0 -0 -0 -0 -1 -4 -0 0 -0 -4 -6 -4 -4 -1 1 0 8 8 9 7 3 -1 -2 -4 -6 -6 -4 1 3
1 1 1 -1 -1 1 3 4 1 -6 -9 -9 -5 -5 -4 -2 1 1 1 -1 -1 -4 -4 -1 1 -3 -4 -5 -3 -3 -2 2 6 9 12 5 5 3 1 -3 -7 -8 -5 -2 1
2 1 1 -1 -0 2 2 1 -1 -2 -2 -6 -6 -5 -4 -4 -4 -3 1 -1 -2 -4 -4 -3 -1 0 -1 -1 -1 -0 -0 0 4 6 6 6 4 3 -1 -2 -5 -6 -5 -3 -2
2 2 1 -0 2 1 1 0 -2 -4 -3 -3 -4 -4 -2 -2 -2 -2 -1 1 -3 -3 -2 -3 1 2 -1 -3 -4 -3 -1 1 7 6 7 6 5 -1 -2 -3 -3 -5 -6 -6 -1
2 1 1 0 2 2 -0 -0 -0 -1 -2 -3 -4 -4 -4 -3 -1 -2 2 0 1 -2 -1 -2 1 2 2 -1 -2 -2 -2 -0 3 6 7 7 7 -0 -1 -3 -6 -5 -5 -5 -5
1 1 2 2 -1 -1 -0 0 1 -2 -1 -2 -3 -4 -4 -2 -3 -1 2 3 3 -2 -2 -3 0 1 2 2 2 3 1 -1 2 5 5 6 4 2 0 -1 -6 -6 -5 -5 -5
0 1 1 2 2 0 -1 -2 -0 0 -3 -4 -3 -2 -3 -3 -2 -1 2 4 4 3 -1 -0 1 -0 0 -1 -0 1 1 -0 1 3 6 4 3 1 -2 -2 -2 -3 -4 -4 -4
-0 1 0 -1 0 1 -0 -0 -1 -2 -3 -3 -2 -3 -3 -4 -3 -1 4 5 6 5 2 1 3 1 2 0 1 -0 -2 0 1 1 2 2 2 -0 -3 -3 -3 -4 -4 -4 -5
1 -0 -0 -1 1 2 1 -0 -1 -2 -3 -4 -4 -3 -2 -3 -6 1 4 6 6 6 6 4 3 4 4 1 1 3 1 -0 1 0 -1 0 -2 -4 -4 -4 -4 -3 -4 -4 -5

GFSSW_850_dewp_054.txt.gz
Dewpoint
-23 -24 -22 -21 -19 -17 -15 -13 -11 -9 -7 -6 -5 -2 -0 -0 -1 -2 -8 -9 -10 -6 -7 -13 -8 -8 -5 -5 -5 -5 -4 -3 -5 -6 -5 0 3 4 6 8 7 6 7 7 7
-24 -24 -27 -28 -27 -27 -27 -26 -27 -22 -17 -12 -10 -11 -8 -3 -4 -4 -4 -10 -4 -1 -7 -13 -8 -4 -3 -5 -6 -6 -5 -5 -7 -8 0 7 5 6 7 7 7 6 7 10 11
-14 -24 -26 -28 -27 -28 -29 -29 -30 -31 -29 -22 -17 -13 -15 -10 -5 -4 -3 -7 -5 -2 -6 -12 -5 -4 -6 -7 -7 -8 -5 -8 -8 -8 2 6 7 6 5 6 9 10 9 10 10
-7 -19 -21 -25 -27 -28 -29 -30 -31 -32 -32 -29 -18 -13 -17 -14 -4 -0 -4 -4 -4 -2 -6 -12 -6 -7 -8 -7 -8 -8 -9 -8 -8 -4 2 5 6 9 9 10 11 10 10 10 10
1 -3 -11 -19 -24 -26 -29 -29 -31 -31 -31 -28 -18 -10 -12 -2 -7 -8 -7 -1 -3 -3 -6 -13 -7 -6 -6 -7 -6 -5 -6 -5 -7 -1 3 3 6 7 11 11 10 10 9 9 10
1 -1 -6 -4 -17 -23 -25 -28 -30 -30 -30 -27 -15 -8 -3 5 -16 -5 -2 -1 -4 -6 -7 -11 -10 -6 -5 -4 -3 -4 -4 -4 -7 2 3 4 5 5 6 11 10 10 10 10 10
-0 -0 -0 -3 -5 -17 -22 -27 -30 -29 -29 -27 -16 -6 3 -15 -23 -4 -0 0 0 0 -8 -11 -10 -3 -5 -4 -4 -4 -4 -5 -6 1 3 4 5 5 8 10 10 10 10 9 9
-2 -1 -1 0 -3 -13 -18 -22 -28 -29 -27 -26 -14 -3 1 -30 -28 -22 -18 -5 -2 0 -5 -13 -6 -5 -4 -4 -4 -3 -4 -3 -5 2 3 3 5 4 7 10 11 10 10 9 9
0 -1 -2 -2 0 -5 -19 -21 -25 -27 -26 -22 -1 2 -0 -10 -6 -13 -12 -7 -2 -2 -3 -5 -5 -5 -5 -3 -2 -2 -1 -1 -2 -2 4 3 5 5 5 6 11 10 10 8 6
2 0 -2 -2 -1 -0 -7 -23 -25 -30 -24 -8 6 4 -5 -15 -5 -2 -5 -6 -4 -2 -2 -3 -5 -3 -3 -2 1 -1 -1 -3 -4 2 4 6 5 4 7 9 10 10 10 7 7
-5 -2 -1 -3 -2 0 -3 -14 -9 4 4 5 4 -4 -5 -5 -6 -3 -4 -6 -5 -2 -3 -4 -2 -0 -2 -3 -3 -2 -2 -1 -3 -3 4 5 4 4 5 7 10 10 9 7 6
-0 -1 -5 -5 -2 -1 -1 -3 0 3 2 -2 1 3 -2 0 2 -4 -2 -4 -3 0 -3 -3 -1 -3 -3 -2 -1 -1 -0 -0 -4 -2 -1 4 5 5 5 7 7 9 10 9 8
1 1 -1 -4 -6 -4 -1 -2 4 5 4 1 -2 1 -1 -4 2 -7 -3 -6 -0 1 -1 -2 -2 -3 -3 -2 -1 -0 1 -2 -3 -2 -2 3 4 7 6 6 6 8 9 9 6
1 2 1 -1 -9 -2 2 4 4 5 5 2 -1 -6 -3 -3 -0 -17 -8 -7 -2 1 0 -1 -4 -3 -1 -1 -1 1 -2 -4 -2 -1 -0 -3 1 6 6 6 7 7 8 8 8
-0 -0 0 -0 -8 -0 3 4 4 5 -10 -14 -6 -10 -6 -7 -7 -5 -17 -3 -2 -1 -1 0 -0 -1 -0 -1 -2 -0 -2 -2 -1 0 0 -0 1 -0 6 7 7 7 7 7 6
0 -1 -1 -0 -4 -7 -3 0 5 6 5 -2 -5 -6 -5 -6 -6 -5 -4 -3 -3 -3 -3 -3 -4 -3 -2 -2 -2 -3 -2 -0 1 1 4 2 1 2 8 6 6 5 6 7 8
1 0 -0 -0 -1 -4 -1 3 6 4 -7 -10 0 -2 -6 -5 -7 -5 -4 -2 -1 1 0 -2 -3 -4 -4 -2 -3 -2 -1 3 4 6 5 2 4 2 3 4 5 5 5 6 8
1 1 -1 -1 -1 -2 -0 5 5 -1 -6 -7 -8 -1 0 -4 -6 -5 -3 -2 -3 -2 1 2 3 -2 -3 -2 -2 -1 -0 4 6 8 7 5 5 1 -1 -1 3 4 4 5 6
1 2 0 -2 -1 -1 1 4 2 -1 -7 -7 -9 -8 2 -0 0 -3 -1 -2 -3 -3 0 2 1 -3 -4 -4 -3 -1 1 0 6 7 7 6 4 -0 -2 -3 -2 2 3 4 6
2 2 1 -1 -0 -1 2 3 2 -2 -3 -3 -5 -4 -2 -2 -1 1 1 -1 -1 -2 -4 -1 2 -2 -4 -4 -4 -2 -1 3 6 8 8 7 6 3 -0 -4 -5 -4 0 2 4
2 2 1 0 1 1 2 1 -0 -1 -2 -0 -2 -4 -3 -2 -2 -2 0 0 -1 -1 -2 -3 -0 0 -1 -0 -1 -1 -0 1 4 6 6 6 4 2 0 -1 -4 -7 -3 0 2
2 2 1 0 1 0 0 -1 -2 -2 -3 -2 -2 -3 -2 -3 -1 -2 -1 -1 -0 -2 -1 -2 -1 1 -0 -2 -3 -3 -1 1 5 6 6 5 4 -1 -2 -3 -4 -4 -4 -1 -1
2 1 1 0 1 1 -2 -2 -1 -1 -1 -2 -2 -2 -5 -2 -1 -1 -1 -2 1 3 1 -1 1 3 1 -1 -2 -2 -1 -1 3 5 7 7 6 0 -1 -2 -2 -3 -5 -4 -2
0 1 1 1 0 -1 -1 -2 -1 -2 -2 -1 -0 -1 -2 -2 -3 -1 -1 -2 -1 4 3 3 1 0 2 1 0 2 -0 -1 2 6 5 6 4 2 0 -1 -2 -4 -5 -5 -2
0 1 1 2 1 0 -1 -2 -1 -1 -1 -2 -0 -1 -0 -0 -3 -3 -2 3 2 4 4 4 2 1 -1 -1 -1 -1 1 1 1 2 4 3 4 2 1 -1 -2 -4 -5 -4 -4
-0 1 1 -1 0 1 -0 -0 -1 -1 -2 -1 -1 -3 -2 -0 -2 -3 -2 2 4 5 6 5 6 1 3 -0 0 0 -2 0 1 1 2 2 3 -0 -1 -2 -3 -3 -4 -4 -5
1 1 -0 0 -0 2 1 -1 -1 -1 -2 -3 -3 -2 -2 -3 -4 -3 2 0 4 5 6 6 7 7 4 0 0 3 1 0 -1 1 1 3 2 -0 -1 -1 -2 -3 -3 -5 -4

GFSSW_850_dewp_057.txt.gz
Dewpoint
-21 -24 -25 -25 -27 -27 -27 -27 -27 -26 -27 -25 -19 -17 -14 -10 -7 -7 -6 -4 -8 -12 -5 -10 -10 -11 -9 -6 -4 -5 -4 -2 -4 -6 -6 2 3 5 5 7 8 6 7 6 6
-17 -16 -21 -24 -26 -27 -26 -29 -29 -29 -31 -31 -30 -26 -23 -19 -14 -12 -8 -5 -8 -9 -2 -10 -8 -3 -3 -4 -4 -6 -4 -4 -6 -8 -6 6 5 4 6 7 7 7 8 9 11
-8 -14 -14 -18 -22 -26 -27 -27 -29 -29 -31 -31 -32 -29 -26 -23 -15 -10 -3 -10 -3 -0 -3 -8 -9 -4 -4 -5 -6 -6 -6 -8 -9 -9 -7 6 7 7 7 6 8 9 9 10 10
-12 -13 -9 -12 -11 -18 -24 -25 -27 -27 -29 -31 -31 -29 -24 -18 -13 0 -4 -3 -4 -2 -2 -7 -10 -5 -8 -7 -8 -8 -8 -9 -8 -6 2 5 5 8 8 8 9 9 9 9 10
-5 -5 -10 -4 -3 -11 -16 -22 -23 -26 -27 -28 -29 -28 -16 -7 -19 -11 -7 -9 -2 -4 -2 -6 -9 -6 -7 -7 -6 -7 -5 -4 -5 -1 2 4 5 7 11 10 9 9 10 10 10
-2 -3 -2 -8 -2 -5 -12 -17 -20 -23 -25 -25 -27 -22 -5 4 -22 -18 -11 -11 -2 -2 -3 -6 -12 -7 -6 -5 -3 -4 -4 -4 -5 2 3 3 5 5 8 10 10 9 8 10 10
-4 -1 -4 -3 -7 -5 -7 -16 -19 -19 -21 -22 -23 -20 -0 -19 -30 -26 -4 -1 -1 -2 -2 -5 -8 -4 -4 -4 -4 -4 -3 -5 -4 2 2 3 4 6 5 10 10 10 9 9 9
-5 -2 -6 -7 -6 -6 -8 -11 -19 -21 -17 -20 -21 -12 -1 -29 -29 -28 -21 -2 -1 1 -0 -1 -7 -6 -4 -4 -4 -4 -4 -2 -4 2 2 3 4 2 8 11 10 10 10 9 9
-5 -2 0 -3 -8 -7 -8 -11 -21 -22 -20 -19 -15 -2 0 -12 -12 -5 -6 -19 -3 -4 -2 -0 -4 -4 -5 -3 -2 -2 -3 -2 -3 -2 2 3 4 3 9 11 10 10 10 9 7
-1 -3 -4 -5 -6 -6 -8 -12 -17 -14 -14 -14 2 1 -11 -12 -9 -3 -3 -3 -12 -5 -2 -1 -2 -3 -3 -3 0 -3 -1 -3 -3 -2 4 5 5 3 7 8 9 10 10 9 6
1 1 0 -2 -8 -8 -5 -8 -6 4 3 -2 1 -5 -7 -4 -2 -3 -1 -2 -6 -3 -1 -4 -3 -1 -2 -3 -3 -3 -2 -1 -3 -4 2 4 3 3 7 9 10 10 10 9 6
0 1 1 1 -2 -7 -6 -1 1 2 3 -2 -3 1 -4 -1 2 -7 -2 -2 -3 -1 -3 -3 -1 -4 -3 -3 -2 -2 -1 -0 -2 -3 2 1 1 4 5 7 10 10 10 9 8
-0 -0 1 1 -0 -4 -7 -0 3 3 4 3 -12 -12 -8 -6 1 -6 -5 -3 -3 -1 -1 -0 -2 -4 -2 -2 -1 -1 0 0 0 -2 -0 3 1 6 4 5 7 9 9 8 7
-0 1 -0 1 0 -3 -0 3 3 3 4 -1 1 -6 -4 -2 2 -12 -10 -5 -1 -2 1 -0 -3 -2 -2 -2 -2 0 -1 -1 -2 -1 1 -2 2 -2 6 5 7 7 8 9 8
0 1 -0 -0 0 -2 -1 1 -1 4 -6 -15 -4 -6 -3 -3 -9 -4 -11 -7 -4 0 0 2 -0 -1 -1 -2 -2 0 -1 0 -1 0 -0 -0 0 -1 6 6 4 6 7 8 8
0 1 -0 -0 -0 -1 -4 -5 3 6 2 -5 -5 -2 -1 -3 -7 -4 -3 -4 -4 -2 -2 -1 -3 -2 -2 -2 -2 -2 -1 -0 1 1 4 1 1 2 6 5 2 4 6 7 7
1 1 1 0 1 -1 -2 -1 6 5 -6 -8 -3 -4 -4 -4 -6 -4 -2 -2 -1 0 -0 -3 -3 -4 -4 -2 -3 -1 -1 3 3 5 5 2 4 2 -0 3 2 3 5 6 7
1 1 1 1 -0 0 -0 3 5 -1 -3 -7 -8 -4 -4 -5 -6 -6 -2 -4 -2 -2 -1 -1 1 -2 -3 -2 -1 -0 -0 4 5 6 4 4 6 2 -1 -2 0 2 3 5 7
1 2 2 2 -0 0 -0 4 3 0 -4 -2 -7 -4 -1 -1 -4 -4 -3 -3 -5 -2 0 2 1 -3 -3 -4 -3 -1 1 -0 5 7 8 5 3 1 -2 -2 1 4 4 5 6
1 2 1 2 1 1 0 2 3 -1 -1 -1 -5 -5 -2 -2 -1 -1 -0 -2 -2 -4 -3 -1 1 -1 -3 -4 -4 -2 -1 3 5 8 8 5 5 4 1 -2 -2 -0 4 4 4
1 2 1 2 1 1 0 -1 -1 -2 -2 -0 0 -1 -1 -1 -1 -3 -2 0 -1 -1 -3 -3 -0 -0 -2 -1 -1 -1 1 1 3 5 5 6 4 1 1 0 -3 -5 -4 2 3
1 2 1 1 1 1 0 -2 -4 -3 -2 -1 -1 -2 -2 -1 -1 -2 -1 -2 -0 1 0 -1 1 2 -0 -3 -3 -3 -0 1 4 5 5 5 3 -2 -1 -1 -2 -5 -6 -4 0
1 0 1 1 1 0 -1 -2 -3 -2 -2 -2 -2 -2 -3 -3 -3 -2 -0 -3 -0 1 4 3 2 2 1 -1 -2 -1 -1 -1 3 4 6 6 5 -0 -0 -2 -3 -3 -3 -4 -3
0 1 1 1 0 -1 0 -1 -1 -2 -1 -1 -1 -1 -2 -2 -3 -2 -2 -3 -5 4 3 4 3 2 4 1 -0 1 -1 -1 1 4 3 4 2 1 0 -0 -1 -2 -3 -3 -5
-0 0 1 2 1 -0 -1 -2 -1 -1 -2 -1 -1 -1 -1 1 -1 -2 -3 -3 -2 3 4 5 6 5 2 -1 -1 -0 0 -0 1 1 3 1 3 0 0 -0 -1 -2 -2 -3 -5
-0 0 1 0 0 0 -0 -0 -2 -2 -2 -1 -1 -1 -2 -1 -2 -2 -3 -3 -1 2 4 5 6 6 4 1 0 0 -1 -1 -1 1 2 1 2 0 -1 -1 -1 -2 -2 -3 -5
0 0 1 2 1 1 -0 -1 -1 -2 -2 -4 -2 -1 -1 -2 -3 -4 -4 -3 1 2 4 5 6 6 7 5 2 4 1 -0 -0 1 2 4 2 -0 -0 -1 -1 -2 -2 -3 -4

GFSSW_850_dewp_060.txt.gz
Dewpoint
-15 -17 -19 -22 -24 -26 -25 -25 -26 -28 -28 -29 -30 -31 -31 -29 -22 -16 -14 -13 -7 -7 -3 -8 -10 -12 -12 -9 -4 -5 -4 -2 -3 -5 -6 -3 1 4 5 7 8 7 7 6 6
-2 -8 -16 -19 -18 -20 -23 -24 -22 -27 -27 -28 -31 -31 -31 -29 -26 -18 -15 -12 -3 -7 -4 -8 -8 -6 -5 -4 -4 -5 -4 -4 -6 -7 -7 -7 2 4 6 7 7 7 6 6 8
-3 -3 -4 -5 -10 -18 -16 -18 -23 -15 -27 -26 -27 -31 -30 -26 -20 -10 -3 -5 -6 -8 -2 -7 -7 -3 -4 -5 -6 -6 -5 -7 -8 -8 -8 -5 6 6 7 6 5 7 8 9 10
-5 -4 -4 -3 -2 -5 -16 -19 -18 -17 -17 -25 -24 -28 -30 -22 -12 -1 -4 -1 -0 -0 -2 -5 -9 -4 -7 -7 -7 -6 -7 -8 -7 -6 -3 4 4 6 5 3 7 9 9 10 9
-0 -3 -4 -3 -3 -2 -4 -14 -18 -17 -15 -18 -21 -24 -26 -9 -21 -15 -3 -5 -7 -2 -2 -3 -9 -6 -8 -8 -7 -8 -6 -5 -4 -5 -1 4 5 6 8 8 9 9 10 11 10
-0 1 -1 -3 -5 -4 -3 -4 -15 -17 -17 -14 -16 -22 -12 1 -23 -21 -21 -20 -15 -5 -3 -2 -8 -9 -6 -6 -5 -4 -5 -4 -5 -3 1 4 4 5 3 8 10 9 10 11 10
-5 -4 -3 -3 -4 -9 -6 -3 -10 -14 -16 -16 -12 -13 -9 -27 -30 -27 -21 -4 -2 -1 -2 -3 -5 -4 -5 -4 -4 -4 -3 -5 -6 -1 2 3 4 5 3 8 10 10 10 10 9
-4 -5 -7 -5 -1 -6 -11 -11 -1 -8 -14 -18 -12 -10 -7 -32 -31 -28 -26 -11 0 -0 -2 -1 -3 -6 -6 -4 -4 -4 -4 -2 -6 2 2 3 3 1 5 9 10 10 10 10 9
-4 -3 -3 -4 -6 -10 -14 -15 -12 -2 -13 -17 -10 -10 -6 -20 -18 -7 -5 -18 -7 0 2 -5 -3 -5 -4 -3 -2 -3 -2 -3 -4 -2 3 3 3 3 8 10 10 10 10 10 8
0 0 0 0 0 -0 -8 -16 -11 -7 -4 -7 2 -2 -19 -26 -9 -4 -2 -1 -9 -0 -3 -1 -2 -3 -3 -2 1 -1 -1 -2 -2 -3 2 4 4 3 9 10 10 9 10 9 8
-1 -0 -0 0 1 1 -1 -11 -3 2 -0 2 1 -11 -17 -5 -3 -0 -0 -1 -4 -5 -1 -2 -1 0 -2 -3 -5 -4 -2 -2 -3 -4 -2 -1 2 1 4 10 8 8 9 10 9
-1 -1 -1 -0 1 1 -0 -4 1 2 3 -1 -4 -1 -8 -1 4 -7 -5 -1 -3 -1 -2 -2 0 -2 -3 -3 -3 -2 -2 -1 -2 -3 -2 -1 1 1 5 7 8 7 8 9 9
-1 -1 -1 0 0 0 -2 -3 2 0 3 1 -3 -5 -9 -3 1 -7 -5 -2 -2 -1 -1 -0 -1 -4 -3 -2 -1 -1 -1 -1 -0 -1 -2 1 2 1 3 5 7 8 8 8 9
-1 -1 -0 1 -0 -1 0 2 1 -1 3 0 3 -3 -7 -6 1 -14 -7 -5 -2 -2 -1 -1 -2 -2 -2 -2 -2 -0 -2 -2 -1 -1 1 -1 4 -2 -0 4 6 7 8 8 8
-2 -1 0 1 1 0 -1 -1 -4 3 -2 -13 -1 -5 -3 -4 -8 -2 -7 -6 -1 -1 0 1 0 -1 -1 -1 -3 -2 -2 -1 -0 0 -0 -0 1 -1 5 3 3 5 6 6 6
-2 -1 1 1 1 -0 -1 -2 -1 5 3 -5 -5 -2 1 -1 -5 -2 -3 -6 -6 -1 -2 -2 -2 -2 -2 -3 -3 -2 -1 -0 1 1 4 1 1 2 0 2 1 2 3 3 5
-3 -1 1 1 2 0 -0 -1 4 5 -4 -7 -5 -2 -1 -2 -3 -3 -2 -1 -2 -1 -0 -2 -1 -4 -4 -2 -2 -1 -0 3 4 5 6 1 3 1 -0 -1 1 1 2 2 3
-2 -1 0 2 1 1 1 2 3 1 1 -4 -5 -6 -2 -4 -5 -4 -3 -2 -3 -3 -2 -1 -1 -3 -4 -2 -1 0 1 4 5 6 3 4 6 2 -1 -1 -2 -1 0 2 4
-1 -1 0 1 1 2 0 2 2 1 -1 -0 -3 -3 -1 -3 -3 -5 -3 -5 -5 -2 -1 -0 -1 -3 -3 -3 -3 -1 1 -0 4 6 7 5 2 -0 -2 -2 -2 2 3 3 3
-1 -0 -1 0 2 1 1 -1 1 0 -1 -1 -0 -2 -0 -2 -1 -3 -2 -1 -4 -3 -3 -0 1 -1 -3 -4 -3 -1 -1 4 4 7 8 5 5 2 -1 -1 -2 -1 4 3 3
-0 0 -1 0 1 1 1 0 -3 -5 -2 -1 1 0 -1 -1 -1 -2 1 -1 0 -0 -2 -2 -1 -0 -2 -1 -1 -1 0 1 3 4 5 5 4 1 -0 -0 -0 -3 -3 -0 2
-0 0 -1 1 1 -0 2 1 -5 -4 -3 -2 -0 0 -1 -2 -3 -0 1 0 -3 2 -0 -1 0 2 -1 -3 -3 -3 -0 1 4 4 5 5 2 -2 -1 -1 -1 -2 -4 -7 -5
-0 -0 -0 1 2 1 2 -0 -3 -4 -2 -1 -1 -0 -2 -2 -5 -2 -1 -2 -4 -3 5 3 2 3 2 -1 -2 -1 -2 -1 2 2 4 5 3 -1 -1 -1 -2 -3 -4 -3 -4
-0 -0 0 1 1 0 0 -0 -1 -3 -3 -1 -1 -1 -1 -1 -3 -1 -2 -3 -5 -6 -2 5 4 3 4 2 -0 1 -1 -2 1 4 3 4 2 -0 0 -0 -2 -2 -3 -3 -3
-1 -1 0 1 1 -0 -1 -1 -0 -1 -3 -2 -1 -1 -1 0 -1 -2 -2 -2 -2 -4 3 4 6 6 5 4 2 1 0 -0 0 1 2 0 2 0 -1 -1 -1 -3 -3 -3 -2
-1 -0 0 1 0 1 0 -0 -1 -2 -2 -1 -1 -1 -1 -0 -1 -1 -3 -4 -2 -1 1 4 5 5 4 4 4 4 -0 -1 -1 -0 1 1 1 -1 -1 -2 -2 -2 -2 -2 -2
-1 -0 1 1 1 1 1 -1 -1 -2 -3 -3 -3 -2 -1 -2 -3 -4 -3 -3 -2 -1 2 4 4 5 6 5 4 4 1 1 -0 -1 -0 2 1 -1 -0 -0 -0 -1 -2 -2 -2

GFSSW_850_dewp_063.txt.gz
Dewpoint
-5 -6 -9 -10 -10 -12 -18 -17 -17 -21 -25 -28 -30 -32 -33 -33 -33 -30 -22 -16 -14 -5 -4 -5 -6 -10 -7 -8 -5 -5 -3 -2 -3 -4 -5 -7 -1 1 3 6 7 7 6 5 5
-4 -4 -4 -4 -3 -3 -4 -11 -17 -16 -19 -25 -27 -30 -32 -33 -33 -30 -14 -14 -14 -6 -5 -5 -10 -11 -10 -7 -4 -4 -2 -3 -5 -6 -6 -7 -4 -3 5 7 7 6 6 5 6
-3 -4 -4 -4 -4 -3 -2 -2 -7 -16 -17 -19 -23 -29 -30 -32 -29 -12 -3 -1 -10 -3 -3 -7 -8 -9 -3 -4 -4 -5 -4 -5 -7 -7 -7 -7 1 3 5 5 6 6 6 7 9
-2 -3 -4 -3 -3 -4 -5 -3 -2 -5 -14 -15 -19 -26 -30 -29 -18 -1 -2 -3 -4 -3 -3 -6 -3 -4 -4 -4 -5 -5 -6 -7 -8 -7 -4 -4 2 6 6 5 5 5 7 7 9
-3 -5 -5 -7 -8 -5 -5 -9 -4 -2 -6 -12 -15 -22 -26 -16 -28 -31 -3 -2 1 -3 -3 -7 -5 -5 -5 -7 -7 -6 -7 -7 -7 -5 -4 1 3 4 6 5 7 7 8 10 10
-2 -6 -7 -8 -11 -12 -7 -7 -12 -6 -2 -5 -12 -19 -14 -2 -24 -23 -23 -16 -9 -6 -0 -3 -8 -8 -6 -7 -6 -5 -6 -5 -4 -5 -1 2 3 4 3 5 9 8 9 10 9
1 -3 -6 -6 -8 -10 -11 -13 -14 -15 -10 -2 -9 -15 -9 -27 -30 -31 -30 -22 -7 -10 -4 -2 -6 -7 -7 -3 -5 -4 -3 -4 -5 -5 -1 3 2 4 4 7 10 11 9 10 9
-6 -6 -3 -2 -3 -3 -5 -7 -13 -16 -14 -5 -6 -15 -8 -27 -29 -31 -30 -22 -5 -1 -2 -2 -4 -6 -6 -4 -4 -3 -3 -2 -6 0 1 2 -1 -1 4 9 10 10 10 9 9
-3 -2 -1 -1 -1 -1 -4 -6 -9 -15 -9 -6 -5 -14 -5 -16 -22 -14 -13 -19 -23 -0 -1 -2 -2 -5 -4 -4 -2 -2 -2 -3 -5 -3 2 3 0 1 7 9 9 10 10 10 9
-1 -2 -2 -1 -1 -1 -3 -3 -11 -1 0 -3 -2 -5 -11 -17 -12 -2 -2 -0 -10 -5 0 -2 -3 -3 -3 -4 -3 -1 -1 -2 -3 -2 0 2 2 -0 6 9 8 9 10 9 9
-1 -1 -1 -1 -2 -1 -1 -2 -6 -1 -3 2 2 -6 -10 -7 -6 -1 0 -0 -3 -6 1 -1 0 -0 -4 -2 -4 -3 -3 -3 -4 -5 -4 -1 -0 -2 1 8 9 9 9 9 10
-2 -1 -2 -2 -1 -0 -1 -2 2 1 1 -1 -6 -2 -5 -8 2 -2 -0 -2 -2 -4 -1 -1 2 -1 -3 -3 -3 -3 -2 -2 -3 -3 -3 -1 -1 -2 1 4 7 8 8 9 10
-3 -2 -2 -1 0 -1 -0 -2 1 -2 2 0 -0 -0 -3 -4 -1 -4 -6 -1 -3 -1 -2 -0 -2 -2 -2 -2 -2 -1 -1 -1 -2 -2 -2 -0 0 -1 -0 4 6 7 7 8 8
-3 -3 -3 -1 -0 -0 0 1 -0 -2 3 -0 0 -1 -3 -4 -0 -8 -7 -6 -2 -2 -1 -3 -3 -2 -2 -2 -2 -0 -2 -2 -2 -2 1 -1 2 -0 -2 -0 4 5 8 8 9
-4 -4 -2 -0 1 1 0 -1 -1 1 2 -8 -1 -4 -3 -5 -7 -1 -7 -6 -4 -1 -1 -1 -0 -1 -1 -3 -3 -4 -2 -1 -2 -1 1 0 1 -1 -0 0 -1 1 5 7 7
-4 -4 -2 -1 1 1 1 -1 -3 4 2 -2 -3 -1 -0 -2 -3 -1 -4 -5 -7 -1 -0 -3 -2 -2 -4 -2 -3 -3 -2 0 1 2 4 1 1 -0 -0 -1 -1 -1 2 6 6
-4 -4 -2 -1 1 1 1 -2 2 3 -3 -4 -4 -5 -4 -2 -0 -2 -2 -3 -3 1 3 -1 -2 -3 -3 -1 -2 -2 -0 3 5 6 5 1 1 -0 -1 -2 -1 -1 -1 2 4
-4 -3 -2 -1 0 2 1 1 3 -3 1 -2 -3 -3 -3 -3 -3 -3 -2 -3 -4 -4 -1 1 1 -1 -2 -1 -0 -0 -1 4 5 5 3 2 4 -0 -0 -1 -1 -1 -1 0 3
-4 -3 -2 -2 -1 1 1 1 -1 -2 -1 0 -1 -2 -1 -3 -3 -3 -2 -3 -6 -2 -1 -0 -1 -4 -3 -3 -2 0 1 -0 4 6 6 3 3 -0 -2 -3 -3 -2 2 3 6
-2 -3 -3 -3 -1 0 0 0 -3 -1 -2 -1 1 -0 -0 -1 -1 -1 -1 -3 -2 -2 -2 -0 2 -1 -3 -4 -3 -1 -1 2 3 5 6 4 4 1 -1 -2 -2 -1 -1 3 4
-2 -1 -2 -3 -1 1 1 1 -3 -5 -5 -1 0 0 -0 -1 -3 1 1 -4 -4 0 -2 -1 -1 -0 -1 -1 -1 -1 0 2 2 4 4 4 3 2 1 -0 -0 1 -1 -3 0
-2 -1 -3 -1 1 0 2 0 -4 -5 -4 -2 -1 -0 -0 -2 -3 -2 -0 -1 -3 -4 1 -1 1 2 0 -3 -3 -2 -1 1 4 4 5 5 2 -2 0 -0 -0 -1 -2 -4 -7
-1 -2 -2 -1 1 1 2 -0 -3 -4 -3 -2 -1 -1 -1 -1 -2 -1 -2 -4 -4 -4 -3 5 2 3 1 -1 -2 -1 -1 0 2 3 3 6 2 -2 -1 -1 -1 -1 -2 -3 -4
-1 -0 -1 0 0 0 1 1 -1 -2 -3 -4 -1 -1 -2 -1 -2 -2 -3 -5 -3 -2 -1 4 5 3 2 3 3 2 -0 -1 0 5 3 3 1 -0 -1 -0 -1 -1 -3 -3 -4
-1 -1 -1 0 -1 0 -0 -1 -1 -1 -3 -3 -2 -2 -2 -1 -2 -3 -4 -3 -5 -1 1 5 6 6 5 4 4 3 2 1 -0 0 2 1 1 -1 -0 -1 -2 -1 -2 -2 -3
-1 -1 -0 -0 0 -0 1 -0 -1 -2 -2 -1 -1 -1 -1 -0 -2 -2 -2 -3 -3 -2 -1 -1 5 5 4 3 3 3 2 1 -0 -0 0 0 1 -1 -2 -2 -2 -2 -2 -2 -3
-2 -1 -1 -2 -1 1 2 -1 -1 -2 -2 -4 -2 -2 -1 -2 -3 -3 -3 -3 -3 -2 -1 1 5 5 4 4 3 5 2 1 1 -0 0 2 0 -1 -1 -0 -0 -1 -1 -2 -2

GFSSW_850_dewp_069.txt.gz
Dewpoint
-4 -4 -4 -4 -4 -4 -4 -4 -4 -4 -5 -4 -4 -11 -23 -27 -32 -24 -9 -10 -5 -12 -12 -1 -0 -2 -5 -7 -6 -7 -6 -7 -9 -9 -10 -9 -8 -8 -7 -5 -6 0 3 4 9
-6 -10 -8 -8 -9 -9 -10 -13 -8 -8 -5 -6 -4 -4 -9 -21 -29 -13 -9 -11 -12 -18 -12 -2 -1 -4 -6 -7 -8 -7 -7 -8 -11 -11 -11 -10 -9 -8 -7 -7 -7 -4 2 6 8
-6 -12 -15 -14 -15 -16 -17 -17 -16 -17 -15 -13 -8 -4 -3 -10 -7 -5 -3 -2 -3 -3 -15 -5 -3 -5 -6 -9 -9 -8 -7 -10 -11 -11 -11 -10 -9 -8 -6 -6 -6 -2 -1 5 7
-3 -9 -14 -17 -16 -17 -16 -17 -16 -18 -17 -16 -12 -10 -6 -4 -11 -12 -18 -15 -3 -2 -4 -3 -3 -5 -6 -8 -10 -9 -10 -10 -11 -11 -10 -9 -9 -8 -7 -6 -5 0 2 5 8
-0 -4 -6 -13 -14 -14 -13 -15 -16 -18 -15 -14 -16 -16 -14 -2 -5 -11 -17 -8 -9 -3 -0 -4 -3 -4 -5 -9 -11 -9 -10 -10 -11 -12 -11 -9 -9 -7 -7 -7 -5 2 7 6 8
-1 -7 -11 -12 -12 -12 -13 -15 -16 -18 -17 -18 -15 -17 -2 0 -3 -10 -11 -13 -6 1 -0 -3 -5 -5 -7 -8 -9 -10 -10 -9 -12 -11 -11 -10 -8 -7 -8 -7 -4 2 6 7 8
1 0 -2 -5 -8 -9 -12 -14 -16 -17 -19 -19 -15 -15 -1 -4 -4 -7 -12 -11 -15 -7 -1 -3 -5 -6 -6 -6 -8 -9 -9 -10 -9 -11 -11 -11 -8 -7 -8 -8 -3 1 5 6 7
-2 -0 -0 -2 -6 -8 -11 -14 -16 -17 -18 -17 -14 -0 -2 -8 -5 -5 -5 -7 -9 -13 -11 -4 -2 -3 -5 -8 -8 -7 -8 -6 -9 -10 -9 -9 -4 -9 -8 -4 -1 2 4 6 7
-0 -2 -1 -3 -6 -7 -11 -17 -16 -13 -14 -10 -0 2 -3 -5 -5 -7 -5 -6 -5 -6 -12 -7 -5 -3 -3 -3 -4 -4 -4 -5 -6 -9 -9 -7 -5 -8 -2 -3 -1 1 3 6 6
-1 -1 -2 -2 -5 -7 -12 -12 -3 -2 1 3 2 1 -1 -7 -6 -6 0 1 -1 -3 -9 -6 -4 -3 -3 -2 -1 -3 -4 -4 -4 -7 -8 -8 -4 -7 -5 -2 -1 -0 3 5 6
-1 -1 -2 -3 -6 -6 -6 -1 -3 1 -2 -7 -6 -2 -7 -8 -3 -4 -3 0 1 0 0 -10 -4 -1 -2 -3 -4 -5 -6 -5 -5 -8 -6 -6 -7 -7 -8 -5 -2 0 1 4 6
-2 -1 -2 -4 -7 -5 1 -1 0 1 1 -3 -3 -4 -5 -6 -7 -4 1 1 1 3 -0 -10 -5 -5 -5 -4 -4 -4 -5 -4 -6 -8 -7 -7 -9 -10 -9 -7 -5 -2 -0 2 6
-1 -2 -3 -5 -6 0 -0 0 0 1 -0 -5 -4 -4 -4 -4 -5 -7 -1 2 2 3 4 -2 -8 -6 -4 -3 -2 -3 -2 -3 -4 -6 -5 -6 -6 -7 -8 -8 -7 -4 -3 -0 4
-2 -3 -5 -8 -2 1 -1 -0 1 2 1 -5 -6 -3 -2 -3 -4 -6 -5 0 2 3 3 1 -6 -4 -2 -1 -2 -1 -5 -5 -5 -4 -2 -6 -4 -5 -7 -6 -6 -5 -3 -2 2
-2 -3 -3 -3 -1 -2 -1 -0 1 2 -4 -9 -5 -3 -3 -4 -7 -5 -5 -1 2 2 2 4 -0 -4 -2 -1 -3 -1 -4 -5 -5 -3 -2 -3 -4 -5 -6 -7 -7 -8 -6 -1 1
-3 -3 -4 -3 -0 -0 -0 2 2 5 -5 -8 -6 -5 -2 -4 -5 -3 -6 -4 -1 2 3 1 -1 0 -4 -6 -4 -5 -4 -4 -3 -2 1 -2 -2 -3 -4 -6 -7 -8 -7 -2 1
-5 -4 -4 -1 -1 2 0 2 1 -3 -16 -12 -6 -6 -6 -7 -5 -5 -3 -1 3 6 5 2 1 -1 -2 -6 -4 -5 -2 1 3 3 3 -2 -2 -3 -7 -7 -7 -6 -6 -2 0
-3 -5 -3 -2 -1 -0 1 0 -0 -15 -11 -15 -8 -8 -12 -11 -3 -3 -1 -1 -1 0 3 7 5 -0 -3 -4 -4 -3 -2 2 5 5 2 -2 0 -1 -5 -7 -6 -5 -4 -4 -0
-4 -4 -3 -2 -1 0 1 2 -7 -11 -15 -9 -6 -11 -11 -6 -4 -3 -1 -1 -1 -2 4 3 2 -2 -0 -4 -4 -2 -1 -4 -0 3 5 1 -1 -3 -4 -6 -7 -7 -4 -2 -1
-3 -3 -2 -2 -1 1 1 -1 -7 -10 -6 -6 -8 -12 -7 -6 -3 -0 -0 0 1 -1 -2 1 2 -1 1 -2 -3 -1 -3 0 -1 6 7 3 2 0 -3 -4 -6 -4 -3 -2 -0
-3 -2 -4 -2 -0 1 2 -3 -6 -9 -10 -5 -7 -7 -5 -5 -4 1 4 3 1 0 -1 -3 -2 2 -1 3 1 -1 -1 -1 -1 1 4 5 4 -2 -3 -3 -4 -3 -4 -2 2
-5 -1 -2 -1 0 -1 0 -3 -6 -7 -8 -8 -8 -6 -4 -4 -3 -3 6 1 0 -1 1 -4 -2 3 2 -1 -1 -1 -1 -0 3 3 2 4 5 -4 -3 -3 -3 -4 -4 -3 -3
-3 -4 -2 -0 1 -0 -3 -5 -6 -7 -7 -7 -7 -8 -7 -5 -2 -4 1 2 0 -1 1 3 1 1 2 2 -2 1 0 -1 -0 2 7 7 3 -2 -3 -4 -4 -4 -5 -4 -3
-1 -1 -5 -1 -1 -2 -3 -3 -5 -6 -6 -7 -5 -8 -7 -3 -2 -3 -3 -1 -1 -1 -1 -1 3 3 3 2 -1 0 -1 -2 -0 4 3 4 2 -1 -3 -4 -4 -5 -4 -3 -3
-2 -2 -3 -1 -2 -4 -3 -2 -5 -6 -6 -8 -6 -6 -4 -2 -2 -2 -5 -5 -5 -1 -1 0 7 6 0 3 0 -0 -1 -1 -1 -0 1 0 -1 -3 -4 -4 -4 -4 -3 -3 -4
-3 -4 -5 -5 -5 -4 -4 -3 -3 -6 -6 -4 -5 -7 -6 -5 -5 -4 -5 -4 -2 -3 -1 0 5 6 5 -0 1 1 -1 -1 -1 -0 -0 -1 -0 -3 -4 -3 -3 -3 -3 -3 -3
-3 -4 -3 -4 -4 -2 -2 -5 -6 -6 -7 -5 -5 -6 -6 -4 -3 -2 -2 -2 -3 -2 -1 -1 3 6 8 4 2 3 2 1 2 -0 1 2 1 -0 -1 -1 -0 0 0 2 1

GFSSW_850_dewp_072.txt.gz
Dewpoint
-7 -9 -12 -12 -11 -11 -13 -11 -11 -16 -16 -11 -8 -7 -5 -5 -9 -19 -4 -9 -10 -8 -8 -10 0 1 -1 -4 -7 -7 -5 -4 -6 -8 -10 -11 -8 -8 -9 -9 -7 -7 -3 1 9
-7 -12 -12 -15 -16 -15 -16 -17 -18 -20 -20 -19 -18 -18 -9 -6 -6 -7 -7 -9 -9 -10 -13 -7 -2 -1 -2 -5 -7 -7 -4 -5 -9 -11 -11 -11 -11 -9 -8 -8 -7 -8 -4 4 7
-0 -3 -4 -13 -17 -17 -17 -18 -20 -20 -20 -20 -19 -19 -14 -10 0 -2 -3 -5 -5 -3 -4 -10 -5 -3 -3 -6 -7 -8 -5 -8 -10 -12 -11 -11 -11 -10 -9 -8 -7 -6 -2 1 7
-4 -2 -3 -11 -14 -18 -19 -19 -20 -20 -20 -20 -20 -19 -19 -11 -1 -7 -9 -9 -17 -24 -2 -4 -5 -5 -3 -5 -8 -8 -10 -9 -10 -11 -11 -11 -11 -10 -10 -7 -7 -7 -1 2 4
-4 -1 -6 -10 -15 -16 -19 -20 -20 -21 -20 -19 -19 -16 -16 -4 -2 -5 -4 -9 -11 0 -0 -2 -3 -5 -4 -5 -7 -8 -10 -11 -11 -11 -11 -11 -11 -9 -9 -9 -8 -8 3 5 5
-0 -1 -0 1 -5 -11 -17 -18 -18 -20 -21 -21 -19 -15 -3 -2 -9 -6 -8 -12 -14 -9 1 -2 -3 -4 -5 -5 -6 -9 -11 -12 -11 -11 -10 -11 -10 -11 -9 -9 -8 -7 1 5 6
-1 1 -1 -2 -2 -6 -16 -17 -20 -21 -23 -20 -17 -11 2 -7 -13 -9 -5 -8 -12 -13 -10 -1 -3 -5 -6 -5 -7 -9 -8 -9 -10 -10 -9 -11 -9 -9 -11 -10 -9 -8 -3 3 6
-1 -0 -1 -3 -4 -10 -20 -22 -25 -22 -20 -17 -13 -4 1 -11 -7 -6 -5 -5 -4 -8 -12 -12 -5 -3 -2 -5 -6 -6 -6 -5 -8 -10 -10 -9 -6 -10 -10 -9 -9 -5 -2 3 5
-2 -1 0 -3 -8 -15 -22 -26 -26 -7 -5 -4 -6 3 -0 -5 -4 -7 -7 -5 -6 -7 -10 -10 -9 -2 -2 -2 -1 -4 -3 -5 -7 -10 -9 -8 -6 -8 -8 -6 -6 -4 -1 2 5
-1 -3 -1 -2 -6 -16 -21 -21 -8 -3 0 3 4 1 -1 -4 -6 -5 -4 -0 -2 -3 -4 -8 -9 -2 -2 -1 3 -1 -4 -5 -4 -7 -7 -7 -7 -8 -6 -4 -4 -4 -3 2 5
-1 -2 -2 -2 -4 -15 -6 0 -3 0 2 -3 -4 -2 -5 -5 -8 -8 -5 -3 -0 -1 -1 -7 -3 -1 -2 -2 -2 -3 -3 -4 -6 -7 -6 -5 -6 -8 -8 -7 -3 -3 -2 1 5
-2 -3 -1 -3 -7 -11 0 2 -1 -0 -0 -2 -3 -4 -6 -6 -6 -8 -6 -1 -1 1 -1 -0 -2 -2 -4 -4 -3 -3 -1 -2 -5 -7 -6 -6 -6 -7 -9 -8 -7 -4 -2 -1 4
-3 -2 -2 -3 -11 -2 2 -0 -1 0 0 -3 -6 -7 -7 -5 -5 -6 -9 -3 -1 0 2 5 1 -4 -3 -6 -2 -2 -1 -1 -3 -6 -6 -6 -5 -5 -8 -9 -10 -7 -5 -2 3
-3 -2 -3 -5 -3 1 -1 -1 -0 1 2 -3 -4 -4 -3 -4 -4 -7 -8 -6 2 3 1 6 4 -2 1 1 -5 -1 -3 -2 -3 -2 -0 -5 -1 -4 -6 -6 -8 -7 -6 -5 -1
-3 -3 -1 -4 -5 -2 -2 -0 0 1 3 -6 -6 -3 -4 -4 -5 -6 -8 -6 -0 1 4 4 4 3 3 1 -3 -1 -0 1 -2 -2 -1 -3 -2 -3 -7 -5 -6 -6 -5 -4 -4
-2 -4 -4 -3 -2 -1 -1 1 2 5 1 -7 -6 -3 -3 -3 -5 -4 -7 -4 -1 -1 1 1 0 2 3 2 -1 -2 0 3 1 0 2 -1 -1 -1 -3 -5 -6 -7 -8 -4 -2
-2 -4 -5 -2 -2 0 1 1 4 1 -16 -15 -10 -7 -7 -8 -13 -5 -4 -3 -1 3 3 2 1 2 1 3 0 -0 5 8 7 4 5 -1 -1 -1 -4 -6 -7 -7 -8 -4 -1
-2 -4 -3 -3 -2 -2 0 0 3 -9 -8 -15 -10 -13 -10 -15 -16 -4 -3 -2 -3 0 1 5 6 2 3 3 3 1 4 5 8 7 3 -1 1 -1 -5 -8 -7 -6 -7 -4 -2
-3 -2 -2 -2 -3 -2 1 2 -4 -8 -13 -16 -16 -8 -9 -18 -8 -7 -1 -2 -3 -2 3 5 4 1 2 2 3 4 3 -0 3 4 7 2 -2 -2 -5 -6 -6 -7 -6 -5 -3
-1 -1 -2 -4 -3 -1 1 1 -4 -9 -11 -8 -7 -10 -12 -12 -5 -4 0 3 3 -0 -3 1 7 2 2 1 3 4 1 5 2 7 10 6 3 1 -1 -3 -6 -6 -2 -2 -2
-2 -1 -5 -4 -2 0 1 -1 -5 -7 -8 -9 -7 -7 -9 -9 -8 -6 -1 5 1 0 -1 0 5 4 4 6 5 4 2 2 1 1 8 9 6 5 1 -3 -4 -2 -3 -2 1
-2 -1 -6 -2 0 1 1 -2 -5 -7 -9 -9 -9 -7 -6 -5 -5 -4 -3 3 -0 -1 2 3 4 4 1 -2 2 2 3 2 5 5 2 6 6 2 -0 -3 -2 -3 -4 -3 -2
-2 -5 -5 1 1 0 -3 -4 -5 -6 -8 -8 -7 -8 -9 -8 -6 -5 -4 0 0 2 2 1 4 3 2 0 5 5 4 3 3 6 7 10 4 0 -1 -3 -4 -4 -4 -3 -3
-1 -2 -6 -0 -1 -2 -3 -2 -4 -7 -8 -8 -8 -9 -7 -8 -9 -2 0 1 -0 -1 1 2 3 4 5 6 6 6 3 3 5 8 8 8 5 4 0 -3 -4 -4 -4 -3 -2
-2 -2 -2 -1 -1 -2 -2 1 -3 -5 -8 -9 -8 -8 -7 -3 -6 -3 -6 -3 -0 0 0 3 7 7 6 4 5 7 5 4 5 5 6 4 4 3 2 1 -2 -3 -3 -3 -3
-2 -5 -6 -1 -3 -4 -5 -4 -4 -3 -5 -6 -6 -8 -9 -7 -7 -4 -6 -4 0 -1 -1 1 5 4 4 2 4 8 4 3 5 4 2 -0 2 -0 -2 -2 0 2 2 2 2
-2 -3 -4 -3 -3 -3 -0 -4 -7 -7 -6 -3 -3 -3 -3 -5 -4 -2 -2 0 0 0 1 -0 3 6 6 6 6 5 5 4 2 1 2 5 5 1 0 -1 2 2 3 3 3

GFSSW_850_dewp_075.txt.gz
Dewpoint
-7 -6 -4 -10 -17 -16 -17 -17 -18 -19 -20 -21 -21 -20 -20 -19 -15 -12 -9 -9 -11 -8 -10 -10 -10 -4 -4 1 -2 -3 -2 -2 -4 -5 -6 -9 -7 -8 -8 -9 -8 -7 -7 -5 6
-4 -8 -9 -8 -15 -18 -20 -20 -19 -21 -21 -22 -22 -23 -23 -21 -15 -7 -5 -5 -5 -7 -6 -8 -12 -3 1 0 -0 -4 -4 -4 -6 -7 -7 -10 -10 -8 -7 -8 -7 -7 1 4 5
-2 -4 -11 -15 -17 -17 -19 -21 -20 -20 -20 -20 -22 -23 -24 -24 -17 -2 -10 -10 -9 -11 -19 -4 -10 -7 -1 -0 -1 -4 -4 -7 -7 -7 -7 -8 -10 -11 -9 -7 -7 -3 1 3 4
-2 -3 -4 -14 -18 -21 -18 -19 -19 -20 -20 -19 -21 -21 -22 -22 -7 -6 -6 -5 -5 -7 -12 -1 -6 -9 -5 -2 -3 -3 -6 -6 -7 -8 -8 -9 -10 -10 -10 -9 -8 -8 -6 3 5
-2 -4 -2 -2 -8 -12 -17 -20 -20 -20 -20 -19 -19 -18 -16 -7 -11 -17 -6 -6 -8 -11 -1 0 -2 -7 -4 -4 -3 -3 -6 -7 -8 -9 -9 -10 -10 -10 -10 -10 -10 -9 -3 0 3
-2 -4 -7 -5 -7 -11 -21 -23 -25 -24 -23 -20 -15 -14 -7 -0 -23 -5 -7 -8 -10 -12 -13 -5 -1 -3 -3 -3 -4 -5 -5 -6 -7 -9 -11 -10 -10 -9 -11 -12 -10 -10 -2 1 2
-3 -5 -5 -7 -10 -15 -23 -25 -27 -28 -26 -14 -10 -8 -2 -22 -28 -21 -7 -7 -6 -12 -9 -11 -11 -9 -4 -2 -4 -4 -3 -5 -7 -8 -10 -11 -8 -8 -10 -11 -10 -10 -8 2 3
-3 -1 -4 -5 -10 -15 -23 -26 -29 -31 -15 -4 -4 -2 0 -20 -7 -9 -8 -6 -5 -5 -5 -8 -12 -11 -5 -2 -2 -1 -4 -3 -6 -7 -8 -8 -5 -8 -10 -10 -11 -11 -9 3 5
-2 -0 -1 -5 -6 -15 -24 -28 -30 -19 -10 -2 -0 -1 3 -3 -5 -8 -6 -5 -3 -6 -5 -8 -10 -10 -5 -0 1 -1 -0 -1 -4 -7 -8 -8 -7 -9 -9 -10 -8 -7 -6 2 5
-2 -2 -1 -3 -5 -14 -25 -9 -4 -3 -1 2 3 5 2 -5 -7 -8 -6 -4 -2 -3 -5 -6 -7 -8 -1 1 3 2 1 -2 -4 -6 -7 -7 -8 -9 -8 -7 -6 -5 -4 1 4
-2 -3 -3 -3 -6 -17 -10 -0 -1 -1 -3 1 2 2 -1 -3 -6 -9 -9 -4 -2 -0 0 -3 -6 -5 -5 -1 -0 -0 0 0 -3 -6 -5 -4 -6 -8 -8 -8 -3 -4 -4 -2 4
-2 -3 -3 -3 -6 -7 0 1 -0 -0 0 -0 -4 -4 -2 -3 -6 -7 -10 -6 -2 1 0 1 -2 -4 -4 -2 -1 -0 0 -1 -2 -3 -3 -3 -1 -7 -7 -7 -7 -3 -4 -3 4
-2 -3 -3 -2 -9 -2 1 1 -0 0 1 -2 -3 -3 -4 -5 -4 -5 -6 -9 -1 0 1 3 2 1 1 -3 -0 -1 -1 -1 -1 -3 -3 -3 -3 -6 -6 -7 -7 -5 -3 -3 5
-2 -4 -4 -3 -7 -1 -1 -1 -1 0 2 -2 -3 -6 -5 -5 -3 -5 -6 -9 1 2 3 5 3 4 4 1 -2 2 -1 -1 -1 0 6 1 2 -3 -5 -5 -6 -7 -4 -3 5
-3 -3 -3 -3 -3 -6 -2 -1 0 0 4 -3 -4 -5 -3 -3 -5 -6 -6 -9 1 2 3 2 5 4 6 3 -1 1 1 2 4 6 6 5 2 -2 -4 -4 -5 -7 -4 -2 5
-4 -4 -3 -4 -5 -2 -0 -0 -0 3 3 -3 -4 -4 -4 -4 -4 -5 -7 -7 -3 0 2 2 -1 3 4 2 -0 2 4 3 5 6 9 6 3 -0 -2 -3 -3 -6 -4 -5 5
-4 -3 -2 -4 -5 -3 1 -0 3 3 -5 -8 -2 -2 -2 -4 -3 -2 -5 -2 1 3 3 1 1 1 2 3 2 2 5 9 10 10 10 3 2 -1 -2 -4 -5 -5 -4 -4 5
-3 -1 -2 -4 -5 -4 -0 1 2 -3 -9 -11 -8 -9 -9 -10 -9 -5 -4 -2 -2 -0 2 3 5 3 2 3 4 3 7 9 10 9 6 1 2 -0 -4 -5 -7 -7 -6 -2 4
-3 -2 -2 -5 -6 -3 -0 1 -1 -7 -9 -8 -9 -10 -9 -9 -9 -5 -1 -1 -2 -3 2 3 4 1 1 2 4 6 8 4 8 5 9 8 -1 -3 -4 -4 -5 -5 -4 0 4
-3 -2 -2 -5 -3 -2 -0 -1 -3 -7 -6 -6 -5 -8 -7 -10 -6 -4 2 4 3 0 -1 2 5 1 1 4 5 5 4 7 8 10 10 7 7 1 -2 -3 -4 -5 -3 -2 2
-2 -2 -4 -5 -3 -2 -0 -1 -3 -5 -5 -5 -6 -6 -5 -5 -4 -6 4 4 1 0 -1 1 5 4 5 7 7 7 8 7 7 8 9 11 10 6 5 1 -2 -1 -1 0 1
-2 -1 -7 -3 -2 -0 -1 -3 -5 -4 -5 -4 -5 -6 -5 -5 -4 -4 -1 3 1 -0 4 4 6 6 3 1 3 3 7 7 9 9 6 6 9 5 2 -0 -2 -1 -2 -2 1
-2 -2 -5 -4 -0 -1 -2 -3 -4 -3 -3 -5 -5 -6 -6 -6 -4 -5 1 0 0 1 2 2 6 7 3 1 -1 5 6 6 7 7 9 10 8 5 0 -1 -2 -1 -1 -1 2
-2 -2 -3 -2 -2 -0 -2 -2 -2 -5 -4 -6 -6 -7 -6 -4 -5 -5 -3 2 -0 1 1 1 3 4 6 6 6 7 8 6 7 9 8 8 7 7 6 2 -0 -0 1 1 1
-3 -2 -3 -4 -1 -0 -1 1 -0 -2 -5 -6 -4 -7 -5 -4 -3 -2 -4 2 1 1 2 3 4 4 4 3 4 5 6 7 7 7 10 8 6 7 6 5 3 3 3 3 3
-2 -2 -4 -1 -1 1 -2 -2 -1 -1 -1 -1 -3 -5 -3 -5 -6 -3 -2 -1 1 2 2 2 4 4 4 2 4 6 6 7 8 6 7 7 8 6 5 5 3 3 3 3 4
-2 -3 -2 -3 -3 -0 1 -1 -3 -5 -6 -4 0 1 1 0 -0 -1 -1 -1 -0 1 4 3 3 3 5 4 5 7 7 8 7 7 7 9 7 6 7 4 3 3 3 3 4

GFSSW_850_dewp_078.txt.gz
Dewpoint
-8 -11 -10 -14 -16 -14 -18 -21 -22 -23 -22 -23 -24 -26 -26 -25 -26 -24 -20 -6 -8 -10 -9 -9 -10 -9 -1 -2 -2 -2 -1 -0 -1 -2 -3 -6 -7 -8 -8 -8 -5 -5 -3 -6 1
-8 -8 -11 -8 -15 -19 -19 -20 -22 -22 -23 -23 -23 -25 -26 -25 -28 -31 -6 -6 -6 -7 -7 -8 -7 -10 1 -0 -0 -1 -1 -1 -4 -5 -5 -6 -7 -8 -9 -8 -8 -3 -3 -2 3
-5 -6 -6 -11 -12 -17 -22 -22 -22 -22 -22 -21 -21 -23 -26 -23 -27 -12 -9 -5 -5 -6 -8 -16 -12 -8 -3 0 0 -1 0 -3 -5 -6 -7 -7 -6 -7 -9 -7 -7 -2 2 3 6
-0 -3 -6 -8 -9 -17 -22 -23 -23 -24 -22 -20 -21 -21 -26 -22 -19 -2 -6 -6 -5 -8 -8 -5 -2 -8 -7 -0 -0 0 -2 -3 -4 -5 -6 -7 -7 -7 -9 -9 -9 -7 -3 2 4
-1 -3 -7 -8 -12 -14 -20 -25 -26 -25 -25 -22 -20 -19 -18 -11 -20 -25 -8 -7 -5 -9 -12 0 -1 -7 -6 -5 -5 -2 -2 -3 -3 -4 -6 -7 -7 -8 -8 -10 -11 -8 -1 2 3
-1 -3 -4 -8 -15 -17 -23 -25 -28 -28 -28 -25 -15 -7 -5 -0 -29 -10 -9 -7 -7 -7 -9 -8 -3 -2 -5 -4 -3 -4 -4 -3 -4 -5 -6 -7 -8 -9 -10 -10 -11 -8 -4 1 4
-2 -2 -2 -2 -7 -18 -25 -26 -28 -30 -30 -23 -7 -2 1 -19 -30 -25 -19 -9 -7 -8 -9 -9 -7 -11 -10 -3 -3 -2 -2 -3 -4 -5 -6 -7 -7 -8 -10 -11 -9 -10 -9 -3 2
-1 -2 -4 -4 -6 -16 -24 -27 -30 -31 -20 -11 -4 1 2 -25 -4 -7 -9 -13 -9 -7 -6 -9 -6 -10 -11 -5 -2 -1 -1 0 -3 -5 -6 -7 -3 -7 -8 -9 -10 -10 -10 -9 1
-1 -2 -4 -6 -9 -17 -23 -28 -20 -9 -11 -10 -2 1 0 -4 -4 -6 -6 -5 -2 -3 -5 -5 -5 -8 -9 -1 1 0 1 0 -2 -5 -5 -6 -4 -7 -9 -9 -9 -9 -10 -10 0
-2 -2 -3 -5 -9 -14 -22 -9 -4 -1 0 1 3 4 -3 -8 -5 -7 -8 -8 -4 -3 -4 -6 -7 -8 -3 1 3 2 1 -0 -1 -4 -5 -4 -5 -7 -8 -9 -9 -9 -7 -6 3
-2 -1 -2 -5 -6 -12 -3 -2 -0 -1 -1 1 2 2 -1 -0 -1 -3 -7 -8 -3 -1 -0 -3 -3 -2 -7 -3 0 1 1 1 -1 -2 -1 -1 -2 -4 -5 -4 -9 -8 -7 0 3
-3 -2 -2 -5 -7 -8 1 -1 0 2 1 -1 -3 -5 -3 -2 -1 -5 -7 -8 -1 2 0 1 0 -3 -5 -4 -2 -1 1 1 -1 -2 -2 -2 -2 -2 -3 -4 -6 -6 -5 0 6
-2 -2 -3 -5 -8 -8 -0 -1 0 1 0 -1 -4 -3 -5 -8 -3 -8 -7 -6 -2 0 1 3 2 -1 -3 2 4 0 0 0 0 0 -1 -2 1 0 -2 -4 -7 -7 -6 -4 4
-4 -4 -4 -4 -7 -4 -2 -2 -0 1 1 -1 -2 -3 -4 -4 -4 -9 -5 -7 -4 1 3 3 3 4 4 4 3 6 -2 -1 2 4 6 2 6 2 0 -1 -5 -6 -6 -4 3
-5 -4 -4 -4 -4 -6 -3 -1 -2 1 -1 -7 -4 -6 -5 -4 -4 -4 -5 -7 2 2 2 2 3 4 5 5 4 5 -2 1 4 5 6 3 6 2 0 -1 -4 -5 -6 -3 2
-4 -4 -4 -4 -4 -6 -3 -2 -1 1 1 -4 -4 -5 -2 -3 -4 -6 -7 -7 -2 2 2 1 0 2 3 2 3 0 2 2 4 6 7 3 6 4 2 -1 -3 -5 -5 -4 4
-4 -4 -3 -2 -4 -5 -5 -2 1 2 -7 -5 -1 -3 -2 -2 -3 -5 -5 -0 0 2 3 1 1 -0 2 3 2 3 5 7 8 8 7 2 5 3 1 -2 -4 -4 -5 -4 5
-4 -4 -3 -2 -4 -4 -1 1 1 -5 -5 -7 -5 -4 -2 -3 -3 -3 -3 -1 -1 -0 2 3 3 2 2 2 5 5 7 9 8 9 7 3 5 2 -1 -3 -4 -5 -5 1 7
-3 -3 -4 -7 -4 -4 -1 1 -2 -4 -6 -3 -4 -6 -3 -10 -9 -2 -3 -2 -2 -2 1 3 4 1 2 2 3 7 8 6 9 9 9 8 4 -2 -3 -4 -4 -5 2 6 7
-4 -2 -4 -8 -4 -2 -0 -1 -3 -6 -5 -5 -2 -4 -3 -4 -4 -4 2 4 3 -0 -1 2 4 1 3 2 4 5 6 8 8 9 10 7 6 4 5 2 -3 -4 1 6 6
-4 -3 -8 -6 -4 -1 -2 -3 -5 -6 -7 -3 -1 -2 -4 -4 -5 -4 4 4 1 0 0 3 4 3 5 6 6 7 8 8 7 8 11 10 10 5 7 6 2 -1 -1 5 6
-3 -3 -5 -3 -2 -2 -2 -4 -6 -6 -5 -5 -4 -3 -3 -4 -4 -5 1 3 1 0 3 4 4 5 4 1 4 6 7 7 8 9 8 8 9 8 8 5 0 -1 1 1 4
-4 -3 -7 -5 -1 -2 -3 -4 -5 -5 -5 -4 -2 -4 -5 -4 -5 -4 2 1 0 1 2 2 4 4 3 2 4 5 5 6 8 8 10 10 8 7 6 6 3 2 3 3 5
-3 -3 -3 -3 -5 -1 -2 -3 -2 -5 -4 -5 -6 -4 -3 -4 -4 -4 -0 2 0 2 1 1 3 3 4 4 5 7 6 6 8 8 7 8 7 7 7 7 6 3 5 5 6
-3 -4 -4 -2 -1 -2 -2 -2 -1 -3 -5 -4 -3 -3 -3 -3 -5 -4 -3 2 1 2 2 3 3 3 3 3 3 3 6 5 6 7 8 5 7 8 9 8 6 4 5 6 7
-4 -3 -4 -2 -1 -1 0 -1 0 -2 1 -0 0 -1 -1 -1 -1 0 -2 -1 1 1 2 2 3 3 3 1 3 5 5 3 4 6 6 6 8 6 8 7 5 3 5 7 7
-4 -4 -3 -4 -4 -2 -2 -1 1 1 -0 -2 -1 1 1 0 1 -0 -1 -1 -0 3 3 3 4 3 3 3 3 6 5 4 4 6 6 8 5 7 8 7 6 3 5 7 6

GFSSW_850_dewp_081.txt.gz
Dewpoint
-14 -16 -17 -21 -24 -25 -24 -24 -24 -25 -25 -25 -23 -25 -26 -27 -30 -31 -32 -19 -6 -10 -12 -10 -8 -6 -3 -3 -3 -2 -2 -0 -1 -2 -4 -5 -5 -6 -7 -7 -7 -6 0 -1 3
-11 -12 -14 -17 -17 -22 -24 -24 -23 -23 -23 -24 -26 -27 -27 -28 -30 -33 -12 -6 -8 -8 -7 -8 -8 -7 -3 -0 -1 -1 -0 -2 -4 -6 -4 -5 -6 -6 -7 -7 -7 -7 -6 -4 2
-4 -7 -12 -16 -19 -19 -21 -24 -23 -23 -23 -24 -26 -28 -30 -28 -30 -11 -6 -5 -7 -7 -8 -11 -12 -10 -3 1 -0 -0 -1 -4 -4 -4 -4 -4 -6 -6 -6 -6 -7 -8 -9 -3 1
-3 -5 -6 -12 -17 -24 -25 -25 -24 -24 -24 -25 -26 -26 -31 -25 -24 -3 -9 -7 -5 -7 -7 -5 -1 -8 -8 -3 -0 1 -1 -2 -3 -3 -3 -5 -4 -6 -7 -7 -7 -8 -9 2 3
-2 -3 -6 -7 -14 -19 -24 -27 -27 -25 -26 -26 -25 -23 -18 -9 -20 -28 -6 -8 -6 -6 -8 -0 -1 -6 -7 -7 -5 -1 -1 -2 -2 -2 -3 -4 -5 -5 -6 -6 -7 -8 -9 -2 2
-1 -2 -3 -5 -11 -17 -23 -25 -28 -28 -27 -27 -23 -15 0 1 -29 -14 -20 -13 -8 -7 -9 -5 -1 -3 -5 -5 -6 -5 -4 -4 -4 -3 -3 -4 -4 -5 -6 -6 -7 -8 -9 -7 2
-1 -1 -2 -5 -10 -16 -23 -25 -27 -29 -28 -24 -17 -7 1 -13 -24 -25 -26 -12 -9 -7 -7 -9 -7 -6 -9 -8 -6 -2 -1 -2 -3 -4 -4 -5 -4 -5 -6 -7 -8 -9 -9 -8 -2
-1 -2 -3 -6 -8 -13 -23 -26 -29 -26 -16 -11 -8 -3 -1 -23 -17 -14 -8 -15 -15 -10 -6 -8 -8 -5 -9 -10 -4 -1 -1 1 -3 -3 -4 -5 -1 -5 -6 -7 -8 -8 -9 -8 -3
-0 -1 -2 -4 -7 -12 -21 -24 -19 -2 -3 -3 -4 -4 -1 -7 -9 -4 -6 -8 -8 -3 -5 -6 -5 -5 -9 -5 -1 -0 1 0 -1 -4 -4 -6 -3 -5 -6 -7 -8 -8 -8 -9 -9
-2 -3 -3 -4 -5 -11 -13 -11 -7 -0 1 1 2 3 -6 -7 -1 -5 -8 -8 -5 -4 -2 -5 -6 -7 -3 -1 0 2 2 0 0 -3 -3 -2 -1 -2 -4 -4 -5 -6 -5 -6 -9
-4 -3 -2 -3 -6 -10 -1 -6 -4 -1 -1 0 2 3 -1 -1 -0 -2 -4 -7 -7 -2 -1 -3 -4 -3 -6 -3 -2 0 1 1 0 -2 -1 -1 -1 -2 -3 -4 -4 -4 -4 -5 -7
-5 -3 -4 -4 -6 -9 -1 -1 -0 -0 0 -1 -3 -3 -4 -4 -1 -4 -3 -6 -3 1 0 1 1 -2 -5 -5 -5 -3 -0 -0 -1 -2 -1 -1 -0 -2 -3 -4 -3 -4 -4 -5 -6
-6 -6 -5 -5 -7 -5 -4 -1 -1 -0 1 -1 -4 -3 -4 -5 -2 -6 -4 -6 -2 1 1 3 2 0 -2 -3 -0 1 3 1 1 -0 -1 -0 0 -2 -3 -3 -2 -2 -3 -6 -5
-6 -4 -5 -5 -6 -7 -4 -2 -2 -1 1 -2 -1 -3 -4 -6 -2 -8 -8 -9 -6 -0 1 2 2 3 2 4 3 5 2 2 -0 3 4 3 6 3 1 -1 -2 -2 -4 -5 -2
-4 -4 -4 -5 -5 -5 -5 -3 -3 0 -3 -11 -4 -5 -3 -5 -5 -5 -8 -7 -3 2 2 2 3 3 4 4 3 4 3 2 3 4 5 4 6 3 0 0 -0 -2 -4 -6 -5
-3 -4 -4 -4 -5 -5 -5 -4 -2 0 -1 -6 -4 -3 -3 -3 -4 -5 -5 -6 -2 2 1 0 0 2 2 2 2 2 3 2 2 5 7 4 5 3 1 -0 -1 -2 -4 -5 -5
-5 -3 -4 -4 -6 -3 -5 -4 0 1 -9 -6 -4 -4 -3 -1 -2 -6 -4 -0 2 3 4 1 1 1 2 3 2 3 5 6 6 7 6 2 3 2 -1 -1 -1 -1 -3 -4 -5
-6 -4 -4 -6 -7 -3 -4 -1 -0 -9 -7 -7 -4 -4 -2 -2 -2 -4 -4 -2 -1 -1 2 3 2 1 2 2 3 5 5 7 8 8 7 1 4 2 -1 -1 -2 -1 -2 -3 -4
-7 -6 -8 -9 -6 -3 -3 -1 -4 -5 -5 -4 -5 -0 0 -1 -4 -3 -3 -4 -2 -1 -0 3 3 0 2 2 2 5 7 5 9 8 9 6 6 1 6 -0 3 2 1 -3 -1
-5 -6 -11 -6 -4 -2 -2 -3 -3 -6 -6 -6 -2 2 2 1 -3 -3 -0 4 2 -2 -2 1 3 1 3 2 2 4 5 9 7 8 9 7 6 9 9 7 4 2 0 -1 5
-5 -5 -8 -5 -3 -1 -2 -5 -5 -7 -6 -3 -1 1 2 2 -3 -4 4 4 1 1 1 2 2 2 4 5 5 6 5 7 8 8 10 10 10 8 8 7 6 4 4 3 6
-4 -6 -4 -3 -2 -2 -2 -4 -6 -6 -6 -5 -4 -3 1 2 -1 -2 3 4 2 2 3 4 4 4 3 1 3 5 5 7 9 10 8 8 7 8 7 5 5 4 5 4 7
-4 -5 -6 -5 -2 -2 -3 -3 -5 -5 -6 -6 -4 -3 -0 1 2 -2 3 1 1 1 3 2 3 3 -1 3 5 6 6 5 7 7 7 8 6 6 5 5 6 5 7 6 7
-4 -4 -5 -3 -4 -5 -4 -3 -3 -6 -4 -4 -4 -6 -6 0 -0 -2 -0 1 1 2 1 0 2 2 2 1 4 4 4 4 5 8 8 7 6 7 7 6 6 6 7 8 8
-4 -5 -5 -7 -4 -3 -4 -4 -4 -4 -5 -6 -4 -2 -2 2 1 -4 0 2 1 2 2 1 2 3 3 2 2 3 3 3 4 4 6 3 7 6 7 7 6 7 7 6 7
-3 -3 -4 -3 -4 -2 -2 -0 -0 -3 0 -2 -2 -2 -0 2 -1 1 -0 -0 1 1 2 2 2 3 3 1 1 3 -0 1 3 4 4 4 6 5 7 7 7 6 6 5 5
-4 -4 -3 -4 -4 -3 -3 -2 -1 -0 0 -1 -1 1 1 -0 -0 -0 -1 -1 -0 2 3 2 3 3 2 0 1 3 4 4 4 4 3 5 4 7 8 8 7 7 5 4 4

GFSSW_850_dewp_084.txt.gz
Dewpoint
-23 -22 -25 -26 -25 -26 -26 -26 -25 -25 -26 -26 -26 -28 -27 -29 -32 -32 -33 -33 -25 -12 -16 -7 -3 -3 -3 -3 -2 -3 -3 -2 -3 -3 -6 -5 -5 -6 -6 -6 -7 -7 -7 -6 -1
-12 -15 -15 -20 -27 -27 -26 -26 -26 -26 -27 -27 -27 -27 -29 -30 -31 -33 -15 -9 -7 -7 -10 -11 -8 -6 -3 -1 -1 -2 -1 -3 -5 -6 -6 -6 -5 -5 -6 -6 -6 -6 -8 -6 -7
-4 -7 -11 -14 -20 -25 -27 -26 -27 -28 -27 -27 -28 -29 -29 -31 -29 -12 -6 -6 -7 -7 -9 -7 -6 -5 -2 1 0 -0 -1 -4 -4 -6 -6 -5 -5 -5 -6 -5 -6 -6 -8 -8 -7
-6 -6 -9 -13 -15 -19 -23 -25 -26 -27 -28 -28 -27 -27 -29 -29 -27 -7 -8 -6 -6 -8 -7 -7 -8 -8 -5 -2 -0 1 -1 -2 -4 -5 -4 -4 -4 -4 -5 -5 -6 -6 -7 -7 -8
-5 -5 -6 -7 -11 -15 -21 -25 -27 -27 -27 -27 -26 -26 -22 -13 -25 -31 -6 -8 -7 -6 -7 -2 -0 -7 -8 -8 -6 -1 -0 -1 -2 -2 -3 -3 -3 -3 -4 -4 -5 -5 -6 -6 -7
-0 -2 -5 -7 -9 -11 -19 -23 -26 -27 -26 -27 -25 -22 -10 -2 -25 -24 -27 -15 -9 -7 -7 -3 1 -1 -6 -6 -7 -7 -5 -5 -4 -4 -3 -3 -3 -3 -4 -4 -4 -5 -6 -6 -7
-1 -2 -4 -6 -9 -12 -18 -24 -27 -27 -25 -24 -16 -9 -5 -20 -28 -25 -26 -13 -15 -10 -6 -8 -6 -9 -9 -10 -8 -5 -1 -2 -2 -3 -3 -4 -3 -3 -4 -5 -5 -5 -6 -7 -8
-3 -2 -4 -7 -10 -12 -19 -24 -26 -17 -14 -8 -2 -1 -3 -28 -27 -27 -17 -19 -20 -10 -7 -7 -6 -5 -6 -8 -7 -2 -2 0 -3 -3 -3 -4 -2 -5 -5 -5 -5 -6 -7 -8 -8
-7 -7 -3 -7 -10 -13 -18 -22 -17 -6 -1 -2 -3 -1 -3 -12 -8 -8 -5 -6 -10 -12 -12 -6 -6 -5 -8 -5 -5 -2 -1 -0 -1 -4 -4 -4 -2 -5 -6 -6 -7 -6 -6 -5 -5
-6 -7 -5 -6 -11 -13 -17 -17 -14 -1 -0 1 3 2 -8 -7 -1 -2 -5 -6 -5 -3 -4 -5 -5 -7 -5 -5 -3 -2 0 0 1 -2 -2 -1 -1 -3 -3 -3 -3 -3 -4 -5 -5
-7 -8 -8 -9 -11 -11 -10 -6 -7 -4 -5 -2 -1 3 -1 -3 -3 -1 -5 -4 -8 -2 -1 -5 -4 -3 -5 -3 -5 -2 -0 -0 -2 -3 -1 -3 -2 -3 -3 -3 -4 -4 -4 -4 -5
-7 -9 -6 -10 -9 -9 -6 -1 -2 -2 -1 -2 -3 -5 -11 -12 -2 -8 -4 -4 -3 1 -1 1 -0 -4 -6 -6 -5 -4 -3 -2 -2 -3 -2 -1 -0 -2 -3 -3 -3 -4 -4 -4 -4
-9 -8 -6 -9 -10 -9 -8 -1 -3 -2 -1 -1 -4 -2 -2 -3 -1 -4 -6 -5 -4 1 2 2 1 0 -1 -1 -1 -1 1 2 2 1 -1 -0 0 -2 -4 -4 -4 -4 -4 -3 -2
-4 -5 -6 -10 -10 -8 -6 -7 -3 -1 1 -2 -2 -4 -4 -3 -1 -8 -7 -5 -6 -0 1 2 -0 2 1 1 -1 4 2 3 3 3 3 2 5 -1 -1 -0 -1 -2 -2 -3 -3
-5 -4 -6 -7 -6 -6 -5 -8 -3 -0 -0 -13 -6 -3 -3 -3 -6 -5 -6 -6 -5 -0 1 1 4 4 4 3 3 4 3 4 4 4 4 3 5 1 -1 -0 -0 -1 -2 -3 -3
-9 -7 -5 -6 -6 -5 -5 -8 -4 -1 -2 -7 -7 -6 -5 -3 -3 -6 -7 -7 -5 2 1 -1 0 1 0 1 2 2 3 3 2 3 6 2 3 3 1 0 -1 -2 -3 -3 -4
-10 -9 -7 -5 -5 -6 -5 -6 -2 -0 -9 -11 -4 -6 -5 -5 -3 -5 -3 1 1 3 3 1 2 1 2 2 2 3 4 5 5 7 6 1 3 2 -0 -1 -2 -1 -2 -3 -4
-9 -9 -11 -9 -7 -6 -4 -2 -2 -11 -7 -7 -6 -4 -0 1 -1 -3 -2 -1 -1 -1 2 2 1 1 2 1 3 4 4 5 7 7 6 4 3 2 6 5 5 4 2 1 -2
-8 -9 -10 -9 -7 -6 -5 -3 -6 -4 -5 -4 -5 1 0 1 2 -2 -3 -2 -2 -1 -0 2 2 1 2 1 2 5 6 4 7 6 8 6 4 4 6 6 6 5 4 4 3
-6 -8 -8 -6 -4 -2 -3 -4 -4 -6 -7 -5 -3 0 2 1 2 1 -0 1 0 -1 -2 1 2 1 3 2 2 3 5 8 7 7 8 6 6 8 8 6 6 6 5 7 6
-5 -7 -6 -4 -3 -3 -3 -4 -6 -8 -7 -4 -3 -2 -1 0 2 2 1 4 1 1 0 1 1 2 3 5 5 6 6 7 7 8 8 8 7 7 7 6 6 6 7 8 5
-5 -6 -4 -3 -3 -3 -5 -5 -6 -5 -6 -6 -4 -3 -2 -1 -1 2 4 5 2 2 4 3 3 4 2 0 3 4 4 4 8 7 7 7 6 7 7 5 4 5 7 8 7
-5 -5 -6 -4 -7 -5 -3 -4 -5 -4 -5 -6 -5 -6 0 -2 0 1 3 3 3 2 4 3 3 2 -3 2 5 6 5 6 5 7 8 9 5 5 4 4 4 5 7 7 8
-4 -5 -6 -3 -3 -5 -3 -4 -4 -4 -4 -5 -5 -4 -4 -3 -3 -0 2 2 2 2 1 -1 2 0 -0 -0 2 3 2 2 4 5 4 6 5 1 5 6 5 6 6 6 7
-5 -6 -5 -5 -5 -4 -3 -3 -3 -3 -6 -6 -4 -4 -4 -1 1 1 2 3 2 2 2 -1 2 3 2 1 2 2 2 2 3 3 4 2 3 2 3 6 7 7 5 6 5
-4 -4 -4 -3 -4 -4 -3 -3 -3 -2 -1 -2 -2 -4 -3 1 -0 3 1 -0 1 1 2 2 2 2 3 0 -0 2 -1 -2 -1 -0 2 2 3 1 2 7 7 5 4 4 4
-5 -4 -4 -5 -4 -5 -4 -3 -2 -1 -2 -2 -2 0 1 0 -2 -1 0 -0 -0 1 2 2 2 2 1 -1 1 -0 1 3 2 2 3 5 3 4 6 7 7 5 3 2 2

GFSSW_850_dewp_087.txt.gz
Dewpoint
-12 -15 -16 -17 -22 -24 -25 -26 -28 -29 -29 -29 -29 -31 -32 -32 -33 -34 -33 -32 -31 -30 -28 -14 -5 -4 -3 -2 -3 -5 -5 -4 -5 -5 -8 -6 -6 -6 -7 -6 -7 -7 -7 -7 1
-15 -16 -20 -22 -23 -25 -25 -25 -26 -27 -28 -29 -29 -31 -32 -33 -33 -33 -12 -11 -23 -21 -10 -17 -4 -2 -1 -2 -2 -3 -3 -4 -6 -7 -8 -8 -7 -7 -6 -6 -6 -6 -11 -8 -7
-18 -21 -16 -22 -21 -23 -25 -25 -26 -27 -27 -28 -29 -29 -30 -32 -32 -27 -5 -6 -7 -6 -5 -9 -7 -5 -2 0 -0 -2 -2 -5 -6 -6 -6 -8 -7 -7 -7 -6 -6 -7 -7 -6 -6
-18 -14 -14 -15 -19 -23 -26 -26 -25 -26 -27 -27 -28 -30 -30 -29 -28 -11 -7 -6 -5 -5 -6 -5 -5 -5 -4 -1 0 -1 -1 -3 -6 -6 -4 -5 -7 -6 -6 -6 -7 -6 -6 -5 -6
-8 -9 -10 -11 -17 -25 -27 -27 -26 -27 -27 -27 -27 -26 -22 -17 -31 -30 -26 -7 -7 -5 -5 -6 -5 -8 -7 -7 -6 -0 -1 -2 -2 -2 -3 -3 -3 -3 -3 -3 -4 -4 -4 -4 -5
-7 -12 -15 -16 -24 -27 -28 -29 -28 -27 -28 -27 -22 -14 -7 -5 -28 -26 -24 -19 -8 -9 -6 -3 1 -3 -6 -8 -7 -7 -5 -5 -4 -4 -4 -4 -4 -4 -5 -4 -4 -4 -4 -5 -5
-12 -15 -18 -21 -22 -28 -30 -31 -30 -29 -28 -22 -12 -4 -1 -15 -23 -27 -25 -26 -17 -13 -9 -5 -1 -3 -6 -8 -7 -6 -5 -3 -2 -3 -3 -3 -5 -3 -4 -4 -3 -4 -4 -5 -6
-10 -15 -20 -23 -25 -27 -28 -31 -30 -28 -24 -16 -7 -2 -3 -15 -18 -20 -17 -22 -20 -13 -12 -6 -4 -7 -7 -7 -7 -5 -3 -3 -4 -3 -3 -3 -3 -5 -6 -5 -5 -5 -5 -6 -6
-9 -14 -19 -19 -19 -24 -26 -29 -26 -18 -4 -3 -2 -1 -3 -10 -1 -1 -1 -5 -4 -7 -16 -6 -5 -5 -8 -5 -6 -4 -6 -1 -3 -3 -3 -3 -3 -4 -3 -3 -3 -4 -4 -5 -6
-9 -12 -18 -18 -18 -21 -23 -23 -14 -6 -2 -1 1 1 -6 -4 -3 -3 -2 -6 -5 -7 -6 -6 -5 -4 -5 -6 -7 -7 -3 -1 -2 -2 -4 -4 -4 -6 -5 -4 -4 -3 -3 -3 -4
-10 -15 -19 -19 -15 -14 -17 -19 -10 -7 -8 -6 -9 -4 -12 -25 -17 -9 -4 -5 -4 -2 -5 -5 -3 -2 -4 -5 -8 -3 -2 -1 -3 -5 -5 -5 -5 -5 -5 -5 -4 -4 -4 -3 -3
-13 -15 -17 -15 -11 -12 -12 -3 -4 -3 -1 -7 -12 -3 -9 -6 -3 -5 -8 -4 -4 -1 -1 -1 -1 -4 -5 -5 -4 -5 -5 -4 -3 -4 -2 -0 -0 -3 -3 -4 -5 -4 -4 -4 -3
-13 -13 -12 -13 -12 -11 -6 -6 -5 -4 -1 -2 -6 -3 -4 -2 -1 -4 -6 -8 -5 -0 0 1 -0 -1 -5 -4 -4 -3 -2 -1 -0 0 0 0 -1 -3 -4 -4 -5 -5 -4 -4 -4
-12 -13 -10 -13 -9 -9 -8 -9 -7 -3 -1 -6 -5 -4 -4 -3 -1 -5 -5 -7 -5 -3 1 1 -1 1 -0 0 -1 1 -1 -0 3 3 1 1 1 -4 -3 -2 -3 -3 -3 -3 -3
-15 -16 -13 -9 -6 -6 -8 -10 -6 -0 -11 -12 -8 -4 -6 -4 -5 -5 -5 -6 -4 -1 1 0 3 3 2 2 -0 2 2 2 2 3 3 3 4 0 -2 -2 -2 -2 -2 -2 -2
-13 -15 -12 -8 -7 -6 -9 -9 -4 -4 -8 -10 -9 -8 -10 -7 -3 -5 -5 -6 -7 0 1 -2 1 2 1 2 2 2 1 2 3 3 5 2 2 0 -1 -0 3 3 2 -0 -1
-12 -9 -10 -11 -10 -8 -8 -6 -4 -7 -11 -9 -5 -7 -8 1 0 -2 -4 -4 -0 -0 1 2 2 1 1 2 2 2 3 5 6 5 3 1 3 1 -0 5 6 6 5 4 3
-9 -10 -9 -9 -10 -9 -7 -4 -9 -11 -9 -6 -6 -7 -8 1 0 1 2 -4 -1 -2 -1 -0 2 2 2 1 2 3 3 3 4 6 5 4 4 1 6 5 5 5 6 7 7
-8 -8 -9 -7 -7 -7 -6 -4 -10 -3 -5 -5 -6 -5 -1 -2 -1 1 1 1 -2 -1 0 1 2 1 1 1 2 5 5 3 6 5 5 3 3 2 5 4 4 5 6 7 7
-9 -8 -7 -5 -5 -3 -4 -6 -7 -8 -8 -7 -5 -3 -2 -4 -6 -2 1 1 -2 -2 -2 0 4 2 2 1 2 3 4 7 6 6 7 3 3 3 7 6 5 5 6 7 8
-8 -7 -3 -4 -3 -4 -4 -5 -6 -8 -7 -6 -6 -5 -6 -5 -4 -2 0 2 3 1 -1 0 1 3 4 4 4 5 5 5 7 7 7 6 3 7 6 4 5 5 6 7 8
-7 -6 -4 -6 -4 -3 -3 -4 -5 -7 -6 -7 -6 -5 -5 -5 0 -0 1 1 1 3 2 3 2 3 2 1 2 3 4 3 6 7 7 7 5 5 1 3 4 6 6 7 8
-6 -6 -6 -4 -6 -5 -5 -5 -6 -6 -6 -6 -6 -8 -8 -4 -1 -4 0 -0 1 2 3 2 2 -1 5 4 4 4 6 4 4 4 5 7 4 3 -2 0 3 6 6 6 7
-5 -6 -7 -4 -4 -4 -4 -5 -5 -6 -5 -5 -5 -5 -5 -4 -5 -2 -1 0 1 3 2 0 2 -1 -4 -0 2 3 1 -0 3 3 1 1 1 -1 -2 -1 2 5 5 5 4
-6 -5 -5 -5 -5 -3 -4 -4 -4 -3 -5 -5 -4 -5 -5 -3 -1 -1 1 2 2 2 2 0 1 2 1 1 1 1 0 0 1 -0 1 -3 -2 -2 -0 0 4 4 4 3 3
-4 -5 -5 -5 -4 -5 -4 -4 -4 -3 -2 -3 -1 -4 -4 -2 -2 1 2 2 2 2 2 2 2 2 0 -1 -1 -1 -2 -3 -2 -1 -1 -0 2 -0 1 2 5 3 2 2 1
-5 -5 -5 -6 -5 -5 -5 -4 -3 -2 -3 -4 -2 -1 -2 -2 -1 0 -0 1 1 1 2 2 2 2 1 -1 -1 -3 -1 -2 -2 0 2 3 1 -0 4 5 4 3 1 1 -1

GFSSW_850_dewp_090.txt.gz
Dewpoint
-22 -22 -23 -24 -26 -27 -27 -28 -29 -29 -29 -30 -31 -32 -32 -32 -33 -32 -19 -17 -30 -30 -29 -15 -3 -3 -4 -4 -3 -5 -6 -6 -8 -9 -11 -11 -10 -12 -10 -10 -9 -7 -6 -4 1
-24 -25 -24 -23 -24 -26 -27 -28 -28 -28 -28 -29 -30 -30 -31 -32 -33 -27 -6 -5 -8 -18 -21 -3 -3 -1 -5 -5 -4 -5 -4 -5 -7 -8 -10 -12 -12 -12 -9 -10 -10 -8 -9 -8 -3
-20 -23 -24 -25 -26 -27 -28 -28 -29 -29 -30 -29 -29 -30 -30 -30 -18 -19 -7 -6 -7 -9 -13 -5 -5 -2 -4 -3 -3 -4 -4 -6 -6 -7 -8 -9 -10 -10 -10 -9 -11 -10 -10 -9 -3
-20 -18 -23 -26 -28 -29 -29 -29 -30 -30 -30 -29 -28 -29 -29 -27 -23 -8 -12 -7 -6 -6 -1 -3 -5 -3 -5 -3 -4 -2 -5 -5 -6 -7 -8 -7 -9 -9 -10 -8 -9 -10 -9 -8 -7
-18 -23 -27 -29 -30 -31 -31 -32 -32 -31 -31 -28 -24 -25 -18 -10 -17 -25 -28 -15 -7 -5 -1 -3 -6 -7 -7 -9 -7 -3 -7 -7 -6 -6 -6 -7 -7 -7 -7 -7 -6 -6 -6 -5 -5
-20 -25 -29 -29 -30 -30 -31 -30 -32 -33 -33 -29 -22 -16 -6 -9 -23 -27 -27 -24 -19 -5 -1 -2 -3 -7 -8 -8 -8 -8 -7 -7 -6 -6 -6 -5 -5 -6 -6 -5 -5 -5 -5 -5 -5
-22 -25 -27 -27 -27 -28 -28 -29 -30 -30 -31 -29 -21 -12 -3 -10 -20 -20 -21 -25 -22 -13 -4 -2 -1 -1 -5 -4 -5 -4 -3 -5 -5 -5 -4 -5 -3 -4 -7 -6 -6 -6 -5 -6 -5
-23 -25 -25 -25 -26 -28 -28 -28 -28 -26 -23 -20 -13 -3 -3 -16 -14 -10 -3 -11 -17 -20 -12 -10 -4 -2 -4 -8 -7 -6 -6 -4 -10 -7 -6 -4 -5 -10 -8 -7 -6 -6 -5 -5 -5
-21 -23 -24 -24 -25 -26 -26 -26 -24 -16 -15 -11 1 1 -4 -13 -2 0 -1 -0 -1 -5 -15 -10 -6 -5 -8 -7 -7 -8 -7 -9 -8 -5 -5 -4 -7 -8 -5 -5 -5 -5 -5 -5 -5
-21 -22 -23 -22 -22 -23 -23 -25 -18 -12 -10 -8 2 0 -4 -6 -9 -1 -6 -4 -2 -2 -3 -9 -7 -5 -6 -7 -8 -10 -10 -9 -7 -9 -5 -6 -6 -8 -8 -9 -9 -9 -8 -6 -5
-22 -21 -22 -21 -19 -19 -22 -15 -10 -6 -9 -9 -11 -8 -10 -12 -10 -10 -10 -5 -3 -4 -6 -9 -6 -5 -7 -6 -8 -10 -8 -8 -8 -7 -7 -8 -10 -11 -10 -9 -8 -8 -9 -9 -8
-21 -22 -23 -22 -20 -16 -9 -5 -3 -5 -3 -10 -6 -5 -6 -4 -3 -5 -8 -5 -7 -3 -5 -5 -5 -9 -8 -7 -6 -6 -8 -10 -11 -9 -5 -6 -5 -5 -6 -7 -7 -8 -8 -8 -8
-21 -22 -25 -23 -20 -16 -7 -5 -3 -2 -1 -6 -6 -4 -4 -2 -3 -5 -5 -9 -7 -5 -2 -4 -6 -8 -6 -3 -2 -4 -5 -5 -6 -6 -4 -2 -3 -9 -6 -7 -7 -7 -6 -6 -6
-22 -24 -26 -24 -7 -15 -5 -7 -8 -4 -3 -13 -9 -3 -8 -3 -3 -9 -4 -5 -11 -9 -5 -1 -4 -2 -2 -3 -4 -4 -6 -5 -4 -1 -0 -2 -5 -9 -8 -8 -5 -3 -2 -2 -2
-19 -20 -19 -17 -11 -5 -8 -12 -7 -0 -11 -14 -11 -3 -9 -11 -11 -10 -5 -4 -4 -10 -5 -2 -1 -2 -1 -3 -5 -4 -1 -1 0 1 -1 -2 -0 -8 -7 -4 -2 0 2 3 1
-16 -13 -13 -7 -7 -9 -13 -12 -3 -3 -15 -15 -14 -9 -12 -18 -10 -7 -6 -5 -6 -7 -6 -5 -2 -2 -3 -4 -2 -1 1 1 -1 -1 2 -2 -2 -9 -4 -1 2 3 3 4 4
-11 -11 -11 -11 -6 -14 -12 -4 -6 -11 -19 -14 -8 -10 -13 -15 -8 -3 -3 -3 -3 -3 -3 -5 -3 -1 -1 2 0 -0 -0 2 4 4 -1 -1 -1 -5 -2 4 4 4 4 4 5
-11 -9 -10 -10 -11 -12 -10 -7 -11 -20 -15 -9 -8 -11 -13 -6 -7 -2 -2 -2 -5 -5 -7 -1 -0 -1 -0 -1 0 -0 -1 -0 -1 -0 -2 -0 2 -0 3 3 3 3 3 4 4
-11 -9 -5 -8 -9 -9 -5 -6 -15 -9 -7 -7 -10 -11 -10 -5 -8 -8 -6 -2 -4 -5 -6 -5 -4 -3 -1 -3 -2 2 4 0 4 1 3 -3 -2 2 2 3 2 2 3 4 5
-10 -5 -3 -7 -6 -2 -5 -8 -11 -12 -11 -10 -9 -11 -5 -7 -7 -8 -6 2 3 -0 -3 -2 -2 0 1 -0 1 1 -0 5 4 6 4 -2 -1 0 5 2 1 2 4 5 6
-8 -6 -5 -8 -5 -5 -5 -9 -8 -9 -9 -8 -9 -8 -9 -7 -10 -8 -5 -4 1 1 -0 2 -0 3 2 2 2 4 3 4 4 5 6 2 1 5 3 0 -0 2 4 5 7
-5 -4 -6 -7 -5 -5 -7 -8 -7 -9 -9 -8 -7 -8 -7 -6 -3 -3 -1 -3 -0 1 1 0 0 3 2 2 -1 0 1 3 4 7 4 5 2 2 1 -4 -5 -0 4 5 6
-4 -6 -7 -3 -5 -7 -8 -8 -8 -7 -8 -8 -7 -9 -9 -8 -4 -5 -4 -4 -2 1 3 1 0 3 4 2 2 2 4 3 3 2 4 5 1 2 -4 -6 -4 -1 4 5 5
-3 -4 -6 -4 -3 -4 -5 -7 -7 -9 -7 -7 -6 -6 -6 -6 -8 -5 -5 -2 -1 0 1 3 0 -3 -2 1 1 3 1 -0 1 3 -0 0 -2 -6 -5 -1 -0 2 4 4 4
-4 -4 -4 -5 -6 -5 -5 -5 -5 -5 -6 -7 -5 -4 -3 -3 -6 -5 -2 2 1 2 1 0 1 -1 -3 -3 -4 -3 -3 -2 -1 -2 -1 -5 -5 -3 -2 1 0 4 3 3 2
-3 -6 -4 -6 -6 -3 -5 -5 -5 -5 -3 -4 -2 -4 -4 -1 -5 -3 -0 0 3 1 2 -1 1 -1 -3 -3 -4 -3 -5 -5 -5 -5 -3 -3 -1 -5 -1 -0 4 3 2 2 1
-3 -4 -4 -7 -8 -6 -6 -6 -5 -2 -5 -4 -1 -1 -3 -4 -4 -4 -3 -1 0 2 2 0 -0 -3 -2 -6 -5 -5 -4 -4 -4 -4 -2 1 0 -0 2 4 3 2 1 0 -1

GFSSW_850_dewp_096.txt.gz
Dewpoint
-27 -28 -28 -28 -28 -28 -28 -29 -30 -30 -31 -31 -31 -31 -31 -31 -31 -30 -4 -6 -7 -11 -14 -21 -10 -1 -3 -3 -1 -2 -1 -1 -2 -4 -5 -8 -9 -11 -14 -13 -14 -13 -14 -9 1
-27 -28 -27 -26 -27 -28 -29 -30 -30 -31 -31 -31 -31 -31 -31 -30 -29 -16 -6 -9 -11 -10 -10 -12 -15 -5 -4 -4 -5 -4 0 -1 -5 -6 -7 -9 -10 -11 -12 -12 -13 -13 -12 -12 -4
-26 -26 -25 -27 -29 -30 -32 -33 -34 -34 -35 -35 -35 -34 -32 -31 -3 -4 -20 -23 -26 -23 -11 -4 -12 -11 -8 -8 -7 -6 -2 -3 -5 -6 -7 -8 -8 -9 -10 -11 -12 -11 -11 -11 -10
-25 -24 -26 -29 -31 -33 -33 -33 -33 -33 -33 -33 -34 -34 -32 -23 -7 -8 -13 -18 -27 -27 -12 -4 -4 -10 -10 -9 -8 -7 -7 -6 -5 -6 -6 -6 -7 -7 -8 -7 -8 -9 -10 -10 -10
-23 -26 -29 -31 -31 -31 -31 -31 -31 -32 -33 -33 -33 -32 -28 1 -5 -11 -13 -22 -27 -10 0 -3 -5 -6 -9 -11 -12 -8 -9 -9 -7 -7 -6 -6 -7 -6 -6 -8 -8 -8 -8 -9 -9
-25 -28 -30 -30 -29 -29 -30 -31 -31 -32 -32 -32 -32 -29 -16 -2 -13 -14 -12 -13 -14 -13 -5 -5 -6 -7 -8 -9 -9 -10 -10 -11 -11 -9 -9 -7 -7 -8 -7 -7 -7 -7 -8 -8 -8
-25 -28 -29 -28 -28 -28 -29 -31 -32 -31 -31 -30 -27 -19 0 -5 -10 -9 -10 -9 -11 -15 -15 -11 -8 -7 -7 -6 -7 -9 -8 -10 -10 -11 -11 -9 -7 -6 -7 -7 -7 -6 -7 -7 -7
-25 -27 -27 -27 -27 -28 -31 -31 -30 -29 -28 -24 -13 2 1 -7 -7 -9 -9 -6 -5 -6 -12 -14 -13 -10 -7 -6 -6 -5 -6 -4 -7 -8 -8 -7 -3 -7 -7 -6 -7 -6 -6 -7 -6
-25 -26 -26 -26 -28 -30 -31 -26 -19 -14 -19 -16 0 4 -2 -4 -11 -5 -5 -6 -5 -5 -5 -7 -15 -12 -8 -4 -3 -4 -3 -4 -6 -11 -12 -12 -9 -11 -11 -9 -9 -10 -7 -7 -7
-24 -24 -25 -27 -29 -31 -28 -11 -11 -10 -4 -1 1 -1 -2 -8 -11 -10 -11 -13 -8 -10 -6 -5 -10 -11 -10 -7 -3 -4 -6 -7 -7 -11 -12 -10 -9 -11 -11 -9 -9 -7 -7 -8 -8
-23 -24 -26 -28 -29 -25 -21 -8 -9 -2 -1 -11 -11 -3 -9 -14 -12 -9 -8 -9 -12 -14 -8 -6 -6 -8 -10 -10 -10 -10 -9 -8 -10 -14 -12 -10 -9 -12 -9 -9 -12 -12 -10 -10 -10
-22 -25 -27 -29 -28 -11 -5 -6 -6 -6 -5 -10 -11 -12 -13 -12 -9 -9 -7 -10 -14 -13 -15 -7 -4 -6 -10 -14 -11 -9 -7 -7 -10 -11 -11 -12 -12 -14 -14 -14 -13 -13 -14 -13 -12
-24 -26 -28 -29 -17 -5 -5 -6 -6 -3 -4 -9 -10 -10 -9 -8 -7 -8 -9 -8 -8 -8 -11 -10 -9 -9 -8 -9 -11 -8 -7 -8 -7 -10 -11 -11 -11 -10 -11 -10 -11 -11 -11 -10 -10
-25 -27 -27 -15 -3 -6 -4 -6 -5 -1 -1 -7 -11 -9 -7 -7 -10 -10 -9 -10 -12 -9 -7 -7 -11 -14 -12 -8 -10 -7 -10 -8 -6 -6 -6 -11 -5 -9 -9 -9 -9 -10 -10 -9 -2
-26 -27 -23 -22 -11 -6 -6 -5 -4 0 2 -12 -10 -5 -9 -10 -13 -16 -17 -20 -17 -11 -9 -7 -9 -8 -11 -9 -9 -6 -9 -7 -6 -5 -5 -5 -4 -6 -7 -8 -9 -3 -1 0 1
-22 -22 -12 -4 -2 -4 -6 -11 -1 3 1 -15 -17 -13 -12 -13 -14 -16 -20 -22 -19 -13 -9 -9 -12 -10 -9 -13 -9 -5 -7 -6 -5 -4 -0 -4 -3 -4 -5 -8 -3 1 1 2 3
-18 -17 -16 -6 -2 -7 -17 -2 -0 -1 -18 -15 -13 -13 -12 -13 -15 -17 -18 -19 -16 -4 -4 -4 -6 -7 -9 -14 -4 -4 -1 4 5 3 3 -4 -4 -4 -6 1 1 1 1 3 4
-16 -13 -11 -3 -11 -11 -1 -3 -3 -13 -15 -13 -12 -13 -12 -14 -11 -8 -9 -10 -11 -3 1 2 -1 -7 -7 -5 1 1 -0 4 5 4 2 -4 -2 -2 -5 -1 -0 2 2 3 5
-7 -4 -2 -4 -13 -1 -1 -1 -7 -10 -13 -12 -12 -11 -13 -13 -13 -9 -9 -11 -12 -1 3 1 -1 -6 -7 -2 1 2 3 2 4 1 6 7 -4 1 1 2 -0 0 2 4 5
-2 -2 -3 -16 -11 0 -1 -2 -11 -13 -13 -13 -10 -11 -9 -12 -11 -11 -11 -13 -11 -1 -2 -0 3 -2 -4 -3 1 1 -1 2 2 9 8 8 4 8 6 2 -2 -2 2 4 5
-3 -4 -2 -13 -2 -1 -0 -8 -11 -13 -14 -12 -11 -10 -10 -9 -7 -6 -6 -9 0 -3 -4 -3 2 1 2 2 1 -3 2 1 2 2 6 4 6 6 4 -1 -2 1 2 4 5
-2 -1 -3 -6 -1 -7 -5 -10 -13 -12 -13 -13 -13 -11 -9 -8 -7 -6 -7 -10 -5 -4 -2 -2 5 3 5 -0 -0 -7 -0 3 4 3 1 6 9 5 2 -3 1 2 2 4 3
-3 -5 -10 -1 0 -5 -10 -11 -12 -12 -12 -11 -10 -10 -10 -9 -5 -8 -8 -11 -3 -2 -1 2 2 5 4 3 -2 -5 -5 -1 4 2 7 7 9 5 2 1 2 3 2 3 2
-3 -0 -6 -5 -9 -6 -7 -9 -10 -11 -10 -8 -8 -9 -5 -3 -5 -3 -5 -7 -3 -0 -1 2 1 2 4 4 -1 -1 -2 2 4 5 4 4 6 3 0 1 2 2 2 2 2
-2 -1 -5 -3 -6 -6 -6 -5 -6 -6 -7 -8 -6 -8 -6 -4 -5 -7 -3 -1 -2 -1 2 3 3 4 4 4 3 5 4 6 5 2 1 -2 1 1 0 2 1 1 1 1 0
-3 -4 -11 -7 -5 -4 -4 -5 -6 -5 -5 -5 -3 -5 -5 -2 -3 -3 -3 -2 2 1 3 3 5 4 5 4 1 5 4 4 -3 -2 -4 -3 -1 -1 -1 -0 -0 -0 -1 -1 -2
-5 -7 -6 -8 -7 -6 -4 -7 -6 -4 -5 -6 -4 -3 -3 -1 -2 -1 -1 -2 -1 1 4 4 4 1 -2 -8 -6 -2 -5 -6 1 1 0 2 0 -2 -0 -1 -2 -3 -3 -3 -4

GFSSW_850_dewp_099.txt.gz
Dewpoint
-25 -27 -28 -29 -29 -29 -29 -29 -30 -30 -30 -30 -31 -31 -31 -31 -31 -30 -28 -21 -12 -14 -13 -13 -20 -5 -4 -2 -1 0 1 3 1 -1 -2 -5 -5 -6 -8 -12 -14 -14 -13 -5 -0
-25 -25 -27 -29 -27 -28 -29 -30 -31 -33 -34 -35 -35 -35 -34 -34 -34 -29 -14 -12 -9 -11 -12 -9 -21 -9 -2 -3 -4 -4 -0 1 -2 -3 -3 -5 -6 -7 -7 -9 -12 -12 -13 -1 -1
-24 -26 -26 -26 -28 -30 -32 -33 -34 -34 -34 -33 -33 -34 -34 -33 -17 -4 -25 -23 -19 -22 -23 -7 -7 -13 -11 -3 -3 -4 -3 -5 -5 -3 -3 -4 -5 -6 -6 -6 -10 -10 -10 -12 -3
-26 -25 -25 -27 -30 -32 -33 -32 -31 -32 -33 -32 -33 -33 -33 -30 -6 -7 -10 -15 -16 -26 -26 -10 -4 -4 -11 -9 -8 -6 -6 -6 -6 -6 -5 -5 -5 -6 -6 -6 -6 -7 -8 -8 -8
-25 -25 -26 -28 -31 -32 -30 -30 -31 -33 -33 -33 -32 -32 -30 -7 -18 -12 -10 -11 -17 -26 -19 -3 -2 -3 -5 -10 -10 -10 -9 -8 -8 -8 -7 -7 -7 -6 -6 -6 -7 -7 -7 -8 -8
-24 -25 -27 -30 -31 -30 -30 -30 -31 -32 -32 -31 -30 -29 -20 -2 -10 -14 -14 -14 -16 -13 -14 -4 -3 -5 -6 -6 -7 -9 -10 -10 -11 -9 -10 -8 -7 -8 -7 -8 -9 -8 -7 -7 -7
-24 -25 -28 -29 -29 -29 -30 -31 -31 -31 -31 -29 -27 -23 -13 -26 -12 -7 -7 -9 -9 -12 -15 -16 -15 -14 -10 -6 -6 -7 -5 -6 -8 -9 -10 -10 -9 -9 -9 -9 -8 -8 -8 -7 -8
-24 -26 -28 -28 -28 -30 -31 -31 -28 -24 -23 -23 -17 -9 -6 -12 -7 -11 -11 -8 -6 -6 -6 -8 -15 -14 -14 -11 -7 -5 -5 -3 -6 -8 -8 -9 -6 -10 -9 -8 -8 -8 -7 -7 -6
-19 -25 -27 -27 -28 -30 -31 -30 -21 -13 -10 -15 -8 1 4 -4 -4 -10 -6 -6 -6 -6 -5 -5 -6 -11 -14 -9 -5 -4 -2 -2 -4 -7 -7 -8 -6 -9 -9 -8 -8 -7 -7 -7 -7
-17 -23 -25 -26 -28 -29 -26 -21 -11 -10 -4 -1 -0 4 -0 -5 -13 -11 -10 -10 -11 -12 -13 -10 -6 -5 -11 -9 -4 -2 -1 -3 -3 -5 -7 -7 -9 -11 -12 -11 -11 -11 -8 -8 -7
-19 -24 -24 -26 -29 -16 -18 -10 -9 -3 1 -1 -3 -6 -7 -6 -10 -15 -15 -9 -8 -9 -12 -14 -5 -1 -8 -10 -10 -8 -6 -7 -9 -10 -8 -8 -11 -12 -12 -12 -13 -11 -9 -11 -12
-20 -23 -26 -29 -26 -6 -6 -5 -6 -5 -4 -13 -14 -8 -9 -12 -12 -13 -10 -8 -10 -8 -12 -11 -9 -9 -5 -8 -9 -9 -8 -9 -10 -10 -9 -9 -10 -11 -12 -13 -14 -13 -14 -14 -14
-20 -23 -27 -29 -14 -6 -4 -6 -6 -6 -3 -8 -8 -9 -9 -12 -12 -10 -8 -8 -7 -7 -7 -6 -9 -10 -10 -7 -5 -6 -7 -10 -9 -8 -9 -7 -7 -10 -11 -13 -14 -13 -16 -15 -14
-21 -24 -25 -19 -5 -5 -4 -5 -8 -3 1 -5 -10 -10 -6 -7 -8 -11 -10 -11 -9 -8 -9 -7 -9 -8 -8 -7 -11 -10 -8 -9 -10 -8 -3 -7 -3 -8 -11 -12 -12 -13 -11 -11 -11
-21 -24 -23 -22 -6 -4 -5 -7 -10 0 5 -7 -8 -8 -8 -10 -11 -13 -14 -16 -15 -15 -16 -14 -14 -10 -8 -8 -9 -7 -11 -5 -8 -7 -4 -5 -4 -7 -8 -8 -8 -7 -11 -11 -10
-23 -21 -6 -5 -2 -3 -9 -15 -1 3 4 -14 -9 -9 -12 -12 -13 -14 -16 -17 -18 -16 -18 -18 -14 -8 -5 -6 -9 -10 -8 -2 0 -2 0 -2 -3 -4 -6 -7 -7 2 5 6 6
-19 -18 -12 -7 -2 -3 -15 -2 2 4 -15 -11 -11 -12 -12 -12 -13 -14 -9 -9 -9 -7 -5 -5 -5 -7 -7 -5 -5 -4 -5 4 5 4 3 -3 -2 -3 -5 -7 2 6 5 6 5
-19 -14 -9 -7 -14 -15 -2 -0 1 -7 -11 -13 -12 -12 -11 -13 -12 -12 -11 -8 -11 -4 1 1 1 -4 -5 -3 1 -3 -3 5 5 5 3 -2 -0 -3 -7 -4 7 5 5 5 5
-10 -3 -2 -8 -16 -4 -0 2 -4 -10 -12 -12 -12 -11 -11 -11 -11 -11 -9 -10 -9 -1 1 1 -3 -6 -6 -3 -1 2 3 -0 6 4 7 5 3 3 5 6 6 5 5 5 5
-2 -1 -3 -15 -14 -1 1 -0 -9 -13 -14 -13 -10 -11 -8 -10 -9 -7 -5 -8 -5 -3 -2 -0 1 -6 -7 -1 1 1 1 5 6 8 7 8 8 8 7 6 6 5 4 4 3
-3 -2 -2 -11 -3 -0 0 -2 -11 -14 -14 -13 -11 -10 -9 -8 -8 -6 -7 -7 -5 -3 -3 -3 -0 -1 -1 2 3 4 4 4 5 4 9 9 9 5 6 7 6 4 3 2 2
-2 -0 -7 -12 -0 -1 -1 -10 -13 -13 -13 -11 -12 -9 -7 -7 -6 -6 -5 -7 -9 -4 -3 1 2 2 -0 -3 1 2 3 4 5 5 4 7 7 4 5 5 3 2 2 1 1
-2 -4 -9 -2 1 -1 -9 -11 -13 -12 -11 -9 -6 -6 -7 -5 -3 -4 -3 -5 -2 -2 -2 1 2 1 0 2 1 3 1 2 4 5 6 7 7 5 4 2 1 1 1 -0 -1
-2 -1 -6 -3 -11 -4 -4 -5 -8 -9 -8 -7 -7 -8 -5 -3 -4 -2 -2 -4 -4 -1 -2 1 2 1 1 -0 0 4 3 2 4 5 7 7 6 3 2 1 -1 -1 -1 -1 -2
-2 -1 -4 -1 -3 -5 -5 -4 -4 -5 -6 -7 -6 -4 -4 -2 -2 -3 -3 -2 -2 -3 -0 2 3 2 1 -0 1 2 3 5 7 6 7 5 3 2 -0 -1 -2 -2 -3 -3 -3
-4 -2 -11 -3 -4 -5 -4 -4 -5 -5 -4 -4 -2 -4 -3 -2 -2 1 -0 -1 1 2 3 2 3 4 5 4 4 6 5 5 4 3 4 2 1 -0 -3 -3 -4 -4 -4 -4 -4
-5 -6 -5 -6 -6 -2 -1 -4 -5 -3 -4 -6 -3 -1 -2 -3 -0 -1 -1 -1 -1 0 1 3 4 5 5 4 4 6 4 1 1 -0 0 2 -1 -2 -3 -4 -4 -5 -5 -5 -5

GFSSW_850_dewp_102.txt.gz
Dewpoint
-23 -26 -29 -30 -31 -31 -31 -30 -30 -30 -31 -33 -34 -35 -35 -35 -35 -35 -33 -30 -22 -10 -9 -13 -12 -16 -4 -4 -3 1 1 2 1 1 -1 -3 -3 -4 -6 -6 -6 -8 -12 -12 3
-23 -26 -29 -30 -30 -30 -29 -30 -31 -33 -35 -35 -34 -34 -33 -34 -35 -33 -10 -15 -18 -17 -15 -11 -11 -17 -6 -3 -3 -4 1 2 0 -1 -1 -2 -3 -4 -5 -6 -6 -7 -2 4 6
-22 -26 -28 -29 -29 -29 -30 -32 -34 -34 -33 -32 -33 -33 -33 -32 -30 -7 -21 -23 -20 -18 -21 -19 -9 -6 -13 -6 -2 -4 -1 -2 -3 -4 -4 -4 -3 -3 -4 -5 -6 -6 -7 -4 5
-22 -25 -27 -28 -28 -29 -32 -33 -32 -32 -32 -32 -31 -32 -33 -31 -20 -7 -9 -10 -14 -16 -27 -23 -7 -4 -9 -11 -10 -2 -3 -4 -5 -5 -6 -6 -6 -5 -5 -5 -6 -7 -6 -7 -7
-19 -23 -25 -26 -28 -31 -33 -31 -31 -32 -32 -31 -31 -31 -29 -17 -29 -28 -13 -10 -13 -16 -25 -13 -4 -2 -2 -5 -9 -9 -10 -9 -9 -7 -6 -6 -6 -5 -6 -7 -7 -6 -6 -7 -7
-18 -23 -25 -26 -29 -32 -31 -30 -31 -31 -31 -30 -30 -28 -23 -4 -18 -12 -13 -12 -10 -13 -16 -13 -3 -3 -6 -5 -5 -7 -8 -8 -9 -10 -11 -9 -9 -9 -9 -9 -8 -9 -9 -10 -9
-15 -14 -23 -27 -30 -30 -30 -30 -31 -31 -27 -25 -25 -24 -19 -31 -23 -12 -7 -7 -8 -8 -10 -17 -16 -13 -13 -12 -11 -9 -7 -6 -6 -6 -8 -10 -8 -9 -10 -11 -11 -10 -10 -10 -10
-7 -11 -23 -26 -29 -29 -29 -31 -31 -29 -18 -14 -15 -15 -16 -29 -7 -10 -8 -9 -9 -9 -9 -6 -5 -7 -12 -14 -13 -8 -6 -3 -6 -6 -7 -8 -4 -8 -9 -10 -10 -10 -11 -11 -9
-5 -10 -20 -27 -28 -28 -31 -30 -28 -27 -13 -9 -13 -3 -2 -5 -4 -8 -9 -10 -9 -7 -8 -9 -8 -8 -8 -12 -10 -6 -6 -5 -5 -6 -6 -6 -5 -7 -8 -9 -8 -8 -8 -8 -8
-4 -15 -22 -27 -27 -28 -26 -23 -17 -11 -8 -4 -3 2 -6 -7 -12 -13 -14 -11 -9 -9 -9 -9 -10 -4 -9 -9 -8 -6 -2 -4 -4 -7 -6 -5 -5 -7 -8 -9 -11 -12 -12 -11 -8
-7 -12 -21 -26 -28 -20 -15 -9 -10 -7 -2 -3 -4 -4 -6 -4 -6 -10 -13 -15 -9 -9 -10 -12 -12 -8 -3 -9 -8 -9 -10 -10 -11 -11 -9 -9 -10 -10 -9 -12 -12 -12 -11 -12 -12
-8 -14 -22 -26 -27 -6 -8 -7 -8 -9 -6 -20 -17 -5 -5 -12 -8 -14 -16 -11 -8 -8 -10 -11 -10 -12 -8 -5 -7 -7 -8 -8 -9 -10 -10 -10 -10 -10 -11 -12 -13 -12 -13 -14 -14
-3 -19 -23 -27 -12 -4 -5 -6 -6 -7 -5 -9 -10 -9 -10 -10 -10 -12 -10 -8 -8 -6 -6 -5 -7 -9 -8 -8 -7 -6 -5 -5 -5 -8 -9 -10 -8 -9 -10 -11 -12 -12 -13 -13 -14
-11 -20 -24 -25 -8 -4 -4 -5 -6 -6 -0 -5 -7 -8 -7 -8 -8 -11 -14 -15 -14 -12 -11 -8 -9 -9 -11 -10 -9 -6 -9 -7 -8 -8 -4 -6 -3 -8 -8 -8 -10 -11 -12 -13 -13
-17 -21 -24 -13 -4 -4 -5 -6 -12 -0 -8 -6 -6 -9 -7 -11 -13 -12 -14 -16 -14 -14 -15 -13 -15 -16 -14 -15 -15 -11 -6 -6 -7 -6 2 -3 -2 -5 -7 -7 -9 -10 2 3 -1
-19 -22 -20 -14 -5 -5 -7 -13 -0 2 -5 -10 -10 -12 -12 -14 -14 -15 -13 -11 -12 -13 -14 -14 -16 -17 -13 -8 -6 -6 -5 -5 -4 2 3 -0 1 -3 -5 -6 -7 6 7 7 6
-20 -21 -8 -6 -6 -4 -8 -1 1 2 -10 -11 -11 -12 -11 -12 -12 -13 -11 -11 -8 -7 -7 -6 -5 -7 -7 -4 -5 -4 -3 1 3 4 3 -2 -1 -3 -1 -3 -5 5 6 6 5
-19 -18 -11 -11 -14 -10 -11 -1 0 -7 -10 -12 -12 -12 -11 -11 -11 -11 -9 -7 -11 -6 -1 0 -2 -5 -6 -6 -5 -5 2 2 3 4 3 -2 1 2 6 6 6 6 5 4 3
-16 -10 -8 -12 -15 -9 -1 0 -4 -10 -12 -12 -13 -10 -10 -11 -10 -9 -7 -6 -6 -2 -0 1 -1 -5 -6 -6 0 1 3 -0 2 1 3 5 2 4 5 6 4 4 3 2 1
-4 -4 -4 -16 -9 -0 -0 0 -11 -13 -14 -13 -10 -10 -8 -10 -9 -7 -6 -8 -6 -5 -2 -1 -0 -5 -6 -5 -3 2 -0 3 4 4 5 5 6 8 6 6 5 3 2 1 -0
-2 -1 -2 -6 -1 -1 -0 -1 -11 -14 -14 -12 -11 -9 -9 -7 -9 -7 -7 -8 -7 -5 -3 -3 -1 -3 -3 -1 1 4 5 3 3 5 4 7 7 4 4 4 3 2 0 -1 -1
-1 -0 -4 -4 -1 -1 -1 -9 -13 -12 -13 -11 -10 -8 -6 -5 -4 -4 -5 -6 -6 -4 -3 0 1 1 -1 -4 -5 1 4 3 4 2 5 6 6 3 2 1 0 -1 -1 -2 -2
-2 -5 -10 -2 -2 -2 -7 -10 -12 -8 -7 -6 -5 -6 -7 -5 -2 -2 -2 -4 -4 -3 -2 -0 -1 1 -2 1 2 4 5 4 5 6 6 8 6 2 1 -1 -2 -2 -3 -3 -4
-2 -3 -5 -2 -8 -4 -4 -5 -6 -8 -6 -6 -6 -6 -3 -2 -4 -2 -3 -4 -4 -3 -3 1 1 0 1 -1 -2 1 3 4 4 6 5 4 4 1 -1 -2 -3 -4 -4 -4 -4
-2 -2 -4 -2 -3 -5 -5 -5 -4 -5 -5 -6 -5 -3 -3 -2 -2 -2 -2 -2 -2 -2 -0 2 3 2 1 -0 -1 -1 4 5 5 5 5 3 2 -0 -2 -4 -5 -5 -5 -5 -5
-2 -7 -4 -3 -9 -7 -4 -4 -5 -5 -4 -4 -3 -3 -3 -1 -3 -2 -1 -1 -1 0 2 -1 3 3 3 2 1 3 4 2 1 3 3 1 0 -3 -5 -6 -6 -5 -6 -6 -5
-5 -5 -6 -3 -4 -3 -2 -3 -4 -4 -5 -5 -4 -1 -0 -2 -3 -2 -1 -1 -2 -1 -1 0 3 4 5 4 4 3 2 0 -1 -1 -1 0 -0 -5 -6 -6 -6 -6 -6 -6 -6

GFSSW_850_dewp_105.txt.gz
Dewpoint
-4 -10 -17 -23 -27 -30 -31 -30 -30 -29 -30 -33 -35 -35 -34 -35 -35 -35 -34 -31 -30 -13 -21 -9 -10 -12 -13 -6 -8 1 2 2 -1 -1 -2 -4 -2 -3 -3 -5 -5 -5 -6 0 3
-5 -8 -15 -22 -27 -30 -30 -29 -29 -31 -33 -34 -33 -33 -34 -34 -34 -34 -15 -10 -19 -11 -12 -13 -13 -12 -13 -4 -3 -2 2 1 -1 -2 -0 -1 -2 -2 -3 -3 -4 -4 -5 -6 4
1 -8 -12 -21 -27 -29 -28 -28 -31 -33 -33 -32 -33 -33 -33 -33 -34 -10 -17 -19 -17 -17 -19 -20 -14 -8 -11 -7 -3 -4 0 -1 -1 -2 -2 -4 -4 -3 -3 -3 -4 -5 -5 -6 -7
4 -2 -10 -21 -27 -28 -28 -29 -33 -32 -32 -32 -32 -33 -32 -32 -27 -6 -10 -10 -11 -13 -19 -24 -9 -4 -6 -10 -11 -3 -5 -4 -4 -4 -5 -5 -5 -6 -6 -6 -6 -6 -6 -6 -7
4 -1 -9 -23 -27 -27 -28 -31 -33 -31 -30 -31 -32 -31 -31 -24 -31 -34 -26 -10 -13 -14 -17 -19 -8 -3 -2 -3 -5 -7 -9 -9 -10 -10 -9 -8 -7 -6 -7 -9 -9 -7 -7 -6 -6
3 -3 -15 -24 -25 -27 -29 -32 -32 -31 -30 -30 -27 -28 -21 -6 -31 -14 -9 -13 -10 -10 -12 -12 -4 -5 -11 -10 -9 -7 -7 -8 -8 -7 -8 -10 -9 -9 -9 -9 -10 -10 -8 -7 -8
3 -0 -15 -16 -15 -26 -30 -31 -31 -30 -30 -26 -16 -16 -16 -31 -31 -11 -12 -8 -8 -8 -9 -8 -15 -13 -12 -12 -12 -12 -9 -10 -9 -7 -7 -7 -6 -7 -8 -9 -9 -10 -10 -11 -11
5 3 -4 -4 -17 -25 -29 -29 -31 -31 -28 -20 -11 -11 -15 -29 -20 -21 -14 -10 -9 -9 -9 -8 -9 -9 -9 -11 -13 -11 -11 -6 -6 -8 -8 -7 -3 -7 -7 -8 -9 -9 -9 -9 -10
5 0 -4 -4 -14 -25 -29 -29 -30 -29 -22 -15 -8 -8 -10 -12 -6 -7 -6 -7 -10 -10 -9 -9 -8 -8 -9 -8 -6 -9 -9 -7 -9 -9 -7 -6 -4 -7 -8 -8 -8 -8 -8 -9 -9
5 0 -3 -6 -18 -26 -28 -26 -16 -10 -9 -7 -5 -0 -14 -8 -10 -12 -12 -14 -11 -10 -10 -11 -8 -5 -8 -5 -3 -10 -6 -6 -6 -8 -12 -12 -11 -12 -12 -13 -12 -10 -9 -9 -9
3 2 -3 -8 -24 -27 -22 -12 -7 -6 -3 -8 -4 -6 -5 -4 -9 -11 -12 -13 -14 -9 -8 -11 -12 -10 -8 -6 -5 -5 -4 -4 -6 -8 -9 -8 -9 -10 -11 -12 -12 -12 -11 -11 -12
5 3 -3 -16 -25 -18 -10 -8 -9 -8 -10 -20 -10 -3 -6 -5 -3 -13 -14 -13 -8 -6 -9 -10 -8 -11 -12 -8 -5 -5 -4 -4 -7 -8 -7 -7 -7 -8 -10 -11 -12 -12 -11 -12 -12
3 0 -9 -21 -26 -7 -6 -6 -6 -6 -10 -16 -14 -13 -12 -14 -11 -10 -12 -9 -8 -7 -7 -5 -7 -9 -9 -8 -7 -6 -5 -5 -5 -8 -9 -8 -7 -8 -10 -10 -11 -12 -11 -10 0
2 -3 -6 -23 -21 -4 -5 -6 -5 -12 -2 -8 -6 -8 -8 -10 -9 -11 -15 -14 -15 -13 -14 -12 -13 -13 -14 -13 -13 -14 -13 -9 -9 -6 -4 -6 -3 -6 -6 -7 -8 -10 2 6 6
-0 -1 -15 -24 -5 -4 -5 -5 -8 -4 -14 -6 -6 -10 -11 -11 -14 -13 -13 -15 -14 -14 -14 -12 -14 -14 -13 -15 -16 -15 -13 -7 -4 -3 -4 -5 -2 -4 -6 -6 -7 -1 6 5 6
0 -7 -20 -22 -4 -5 -6 -17 -2 -0 -8 -8 -12 -12 -12 -13 -13 -14 -13 -14 -12 -12 -13 -12 -12 -15 -15 -11 -8 -6 -5 -6 -5 -3 -0 -5 -2 -3 -4 -5 -4 5 5 4 4
-3 -16 -21 -16 -4 -5 -9 -2 1 3 -10 -10 -11 -12 -10 -11 -11 -12 -10 -9 -11 -7 -7 -6 -6 -7 -7 -4 -6 -5 -2 1 0 0 -1 -6 -3 -4 5 5 5 5 4 3 3
-14 -18 -12 -6 -4 -5 -12 -2 0 -6 -9 -12 -13 -12 -9 -11 -11 -10 -8 -8 -8 -4 -1 -0 -4 -6 -6 -6 -5 -5 -3 0 0 1 -0 -1 2 6 5 4 3 2 1 1 1
-17 -15 -6 -6 -12 -10 -2 -1 -6 -10 -12 -12 -12 -10 -10 -11 -11 -9 -8 -7 -7 -6 -2 -1 -1 -7 -8 -7 -5 -0 -2 -4 0 -1 2 -0 -2 4 3 3 1 1 0 0 -1
-13 -6 -7 -11 -13 -2 -2 -1 -10 -12 -12 -12 -11 -10 -9 -10 -9 -8 -7 -9 -8 -9 -3 -3 -2 -6 -8 -6 -7 -2 -3 2 3 4 4 0 3 5 3 2 2 1 -1 -1 -2
-3 -4 -7 -10 -1 -1 -1 -1 -11 -12 -12 -12 -11 -9 -10 -6 -7 -7 -6 -8 -7 -6 -4 -3 -1 -4 -4 -3 -4 2 3 3 2 3 3 3 5 3 1 1 1 -0 -1 -2 -3
-2 -1 -5 -1 -1 -1 -1 -5 -12 -12 -12 -9 -9 -6 -5 -6 -4 -5 -4 -7 -9 -4 -3 -3 -0 0 -3 -6 -7 -5 -1 5 5 4 3 4 3 2 0 -0 -1 -3 -3 -4 -4
-4 -3 -5 -1 -1 -0 -4 -9 -8 -7 -7 -6 -5 -6 -6 -5 -2 -2 -3 -4 -4 -3 -3 -1 -1 -1 -3 2 1 3 4 4 6 6 4 5 4 1 -0 -3 -3 -4 -4 -5 -5
-8 -3 -3 -1 -5 -4 -4 -6 -4 -7 -5 -6 -6 -5 -4 -3 -4 -2 -2 -5 -3 -3 -3 -2 -1 -1 -2 -3 -3 2 2 2 5 6 4 3 1 -1 -3 -4 -5 -5 -5 -5 -6
-3 -3 -4 -1 -4 -4 -5 -5 -5 -5 -5 -6 -5 -3 -3 -2 -3 -3 -3 -3 -3 -3 -1 1 2 1 0 -1 -0 2 3 3 4 5 3 2 -0 -2 -4 -5 -5 -5 -6 -6 -6
-3 -5 -3 -5 -6 -4 -4 -4 -5 -5 -5 -4 -4 -4 -3 -1 -3 -3 -3 -2 -2 -2 1 1 0 2 2 1 3 1 0 -1 2 2 2 -0 -2 -5 -6 -7 -7 -7 -7 -7 -7
-5 -5 -7 -5 -6 -3 -3 -3 -4 -4 -4 -5 -4 -3 -1 -1 -2 -3 -3 -2 -2 -1 1 1 1 2 4 3 0 -2 0 -1 -1 -2 -2 -1 -2 -6 -7 -7 -7 -8 -7 -7 -8

GFSSW_850_dewp_108.txt.gz
Dewpoint
6 4 1 -3 -7 -15 -23 -27 -29 -29 -28 -30 -32 -34 -34 -34 -34 -34 -34 -32 -29 -27 -24 -17 -9 -11 -12 -9 -7 0 -0 1 -2 -3 -4 -3 -1 -2 -2 -2 -2 -4 -3 -3 -6
6 6 2 -1 -9 -14 -24 -28 -28 -28 -29 -32 -33 -33 -34 -34 -34 -33 -14 -12 -9 -12 -10 -10 -13 -16 -11 -6 -4 -2 3 1 -2 -3 -2 -1 -2 -2 -3 -3 -3 -3 -4 -6 -5
8 7 6 -0 -7 -14 -25 -27 -27 -28 -31 -33 -33 -33 -33 -33 -33 -10 -16 -16 -16 -13 -16 -22 -17 -9 -14 -5 -3 -3 -1 -1 -1 -1 -1 -2 -3 -3 -3 -3 -4 -4 -7 -8 -7
8 8 6 -1 -6 -14 -25 -26 -27 -29 -32 -32 -32 -32 -33 -32 -30 -6 -10 -11 -12 -12 -16 -23 -14 -5 -5 -10 -10 -2 -4 -3 -4 -7 -5 -5 -6 -5 -6 -6 -8 -9 -9 -9 -9
9 8 7 0 -4 -18 -24 -26 -27 -30 -31 -30 -31 -32 -30 -28 -32 -34 -31 -20 -11 -14 -14 -18 -9 -4 -3 -4 -5 -6 -7 -9 -10 -10 -9 -8 -9 -8 -8 -8 -8 -8 -9 -9 -10
9 9 7 2 -4 -17 -21 -24 -28 -30 -30 -30 -28 -28 -21 -13 -30 -28 -15 -9 -12 -10 -9 -13 -3 -5 -10 -11 -11 -9 -11 -10 -11 -10 -9 -8 -8 -7 -8 -8 -8 -8 -9 -9 -10
9 9 7 3 0 -11 -9 -19 -29 -31 -29 -30 -21 -16 -15 -30 -32 -30 -11 -12 -11 -9 -9 -9 -11 -13 -12 -10 -12 -13 -11 -12 -11 -8 -7 -7 -7 -7 -7 -8 -9 -10 -10 -9 -8
9 8 7 6 2 -4 -8 -22 -28 -30 -30 -24 -15 -11 -15 -26 -26 -26 -11 -9 -8 -9 -9 -9 -8 -9 -9 -10 -8 -10 -11 -10 -9 -11 -12 -8 -8 -10 -9 -11 -11 -12 -14 -15 -14
9 8 8 6 3 -2 -9 -21 -29 -28 -28 -17 -11 -8 -12 -14 -14 -9 -8 -11 -9 -8 -9 -10 -10 -8 -10 -7 -5 -8 -9 -8 -9 -9 -11 -10 -8 -8 -10 -11 -11 -11 -11 -11 -11
9 8 8 6 -1 -4 -15 -27 -21 -15 -9 -8 -5 -2 -15 -8 -7 -10 -10 -10 -11 -11 -9 -11 -8 -6 -8 -5 -4 -9 -9 -7 -5 -8 -9 -8 -8 -10 -10 -10 -10 -11 -11 -11 -11
8 7 7 4 -2 -7 -24 -18 -8 -6 -3 -14 -8 -10 -5 -5 -9 -13 -14 -11 -14 -9 -8 -10 -11 -7 -6 -6 -6 -8 -4 -3 -5 -6 -6 -6 -7 -8 -9 -10 -10 -10 -10 -11 -11
8 6 7 5 -0 -17 -23 -9 -10 -8 -10 -19 -14 -7 -8 -6 -4 -9 -12 -12 -10 -9 -9 -9 -8 -11 -13 -11 -7 -7 -5 -4 -6 -7 -8 -7 -8 -11 -11 -10 -10 -10 -10 -11 -11
7 5 5 2 -4 -22 -10 -8 -8 -7 -12 -20 -17 -18 -18 -13 -11 -12 -12 -10 -8 -7 -8 -6 -6 -9 -10 -9 -7 -6 -5 -5 -6 -10 -10 -10 -9 -12 -12 -11 -10 -9 -9 -7 -5
7 4 4 -1 -8 -17 -5 -7 -6 -13 -7 -10 -7 -8 -8 -11 -10 -12 -14 -13 -15 -11 -14 -13 -12 -14 -14 -14 -13 -13 -12 -11 -12 -11 -11 -7 -6 -10 -10 -9 -9 -10 -9 5 5
5 4 2 1 -10 -7 -6 -6 -5 -8 -13 -7 -8 -11 -9 -10 -13 -13 -13 -14 -13 -12 -14 -11 -13 -11 -12 -12 -16 -13 -14 -13 -12 -4 -3 -8 -6 -11 -11 -9 -3 4 4 3 3
5 4 1 -2 -10 -4 -4 -5 -12 -4 -10 -8 -12 -12 -11 -12 -13 -14 -14 -15 -12 -11 -13 -12 -11 -13 -12 -13 -11 -10 -6 -5 -6 -4 -2 -8 -9 -8 -5 5 4 4 3 2 1
4 3 1 -9 -12 -3 -5 -3 -2 -1 -10 -10 -11 -11 -11 -11 -11 -11 -10 -10 -12 -10 -6 -5 -6 -8 -7 -5 -7 -6 -5 -1 -1 2 -3 -9 -5 -3 4 3 2 2 1 0 -1
3 1 -8 -13 -6 -3 -8 -0 1 -6 -9 -13 -13 -10 -10 -12 -11 -9 -9 -9 -5 -5 -3 -1 -4 -6 -7 -6 -5 -5 -5 -2 -1 -0 -2 -6 -2 5 2 0 1 0 -1 -1 -2
2 -3 -13 -10 -5 -2 -2 -0 -10 -9 -11 -11 -12 -9 -9 -11 -11 -9 -8 -8 -8 -8 -6 -4 -2 -7 -9 -9 -7 -3 -2 -6 -4 -5 -1 -1 -1 2 -1 -1 -1 -0 -1 -2 -3
-4 -12 -7 -3 -4 -5 -2 -3 -10 -12 -12 -12 -9 -10 -8 -10 -9 -8 -8 -8 -8 -9 -6 -2 -1 -7 -8 -7 -6 -4 -3 -0 1 2 3 1 2 2 0 -0 -1 -1 -2 -3 -4
-7 -5 -3 -6 -6 -1 -3 -2 -11 -12 -12 -11 -10 -9 -9 -6 -7 -6 -6 -8 -8 -6 -4 -3 -2 -5 -4 -4 -5 -1 1 -0 -1 2 3 2 2 2 -0 -1 -2 -2 -3 -4 -5
-5 -2 -5 -6 -1 -2 -1 -4 -12 -11 -10 -8 -7 -7 -6 -5 -5 -4 -4 -7 -6 -5 -3 -4 -1 -0 -3 -6 -5 -6 -3 -0 1 5 3 3 2 -0 -1 -2 -3 -5 -5 -5 -5
-2 -2 -2 -0 -0 -0 -3 -7 -7 -7 -6 -6 -5 -6 -7 -5 -4 -4 -3 -5 -4 -4 -3 -2 -1 -1 -3 1 1 1 2 4 3 3 5 2 1 -2 -3 -5 -6 -5 -5 -5 -6
-6 -2 -2 -1 -2 -3 -4 -4 -5 -6 -5 -7 -6 -5 -4 -3 -4 -3 -2 -5 -4 -3 -3 -3 -1 -2 -3 -7 -5 -0 0 2 3 3 3 1 1 -2 -4 -6 -7 -6 -6 -6 -6
-7 -4 -4 -0 -5 -4 -5 -5 -4 -4 -5 -7 -5 -3 -3 -2 -3 -2 -4 -4 -5 -4 -3 -1 0 -0 -1 -2 -1 2 1 0 4 4 3 1 -1 -3 -4 -6 -6 -6 -7 -7 -7
-4 -4 -4 -4 -5 -3 -4 -4 -5 -5 -4 -4 -4 -4 -3 -2 -3 -3 -3 -3 -3 -3 1 2 0 1 0 -1 2 0 -0 -1 -1 1 -0 -2 -3 -5 -5 -6 -7 -8 -8 -7 -7
-5 -5 -9 -6 -5 -4 -4 -3 -5 -4 -5 -6 -5 -3 -2 -2 -3 -4 -4 -2 -1 -0 1 1 1 1 3 1 0 -0 -0 -1 -2 -3 -2 -1 -3 -5 -6 -7 -8 -8 -8 -8 -8

GFSSW_850_dewp_111.txt.gz
Dewpoint
8 7 6 3 3 -3 -8 -13 -20 -25 -26 -27 -29 -29 -32 -33 -34 -34 -33 -29 -30 -29 -28 -16 -12 -11 -13 -9 -3 -2 -3 -2 -5 -4 -6 -3 -1 -2 -2 -2 -3 -3 -3 -2 -5
9 8 7 6 5 2 -5 -10 -22 -24 -26 -26 -28 -32 -33 -34 -34 -32 -15 -14 -9 -12 -15 -17 -12 -13 -11 -9 -6 -0 1 -2 -4 -5 -4 -2 -1 -2 -2 -2 -2 -3 -4 -7 -10
9 9 8 8 7 2 -3 -10 -20 -25 -26 -27 -29 -32 -33 -33 -30 -12 -15 -14 -11 -10 -12 -13 -13 -12 -12 -4 -4 -3 -7 -2 -1 -2 -1 -2 -3 -4 -4 -5 -5 -5 -9 -9 -10
9 9 9 8 7 4 0 -11 -20 -24 -26 -29 -31 -33 -32 -32 -25 -8 -11 -11 -12 -13 -16 -22 -15 -6 -7 -10 -7 -3 -3 -3 -3 -5 -6 -6 -6 -7 -7 -7 -9 -8 -8 -8 -9
9 9 9 9 7 6 2 -10 -15 -21 -26 -30 -32 -32 -32 -29 -32 -33 -30 -15 -14 -14 -14 -17 -12 -6 -4 -4 -5 -5 -6 -8 -9 -10 -9 -9 -8 -8 -8 -8 -8 -8 -8 -9 -9
9 9 9 9 8 6 5 -5 -9 -15 -26 -30 -30 -31 -22 -16 -27 -30 -30 -20 -12 -10 -10 -11 -4 -6 -8 -9 -9 -7 -10 -12 -12 -11 -11 -9 -8 -7 -7 -8 -9 -10 -11 -12 -13
9 10 9 9 8 6 5 -2 -5 -15 -27 -29 -29 -23 -24 -30 -31 -31 -30 -11 -12 -10 -9 -9 -11 -14 -12 -10 -11 -12 -11 -12 -13 -9 -8 -8 -10 -6 -8 -10 -11 -12 -11 -11 -11
10 10 9 9 8 7 5 0 -6 -17 -25 -29 -24 -18 -21 -30 -27 -27 -20 -9 -11 -8 -8 -9 -9 -9 -9 -9 -7 -7 -10 -10 -10 -9 -11 -9 -14 -7 -10 -11 -11 -10 -10 -11 -13
9 9 9 9 8 7 6 -2 -11 -18 -25 -20 -13 -12 -18 -17 -13 -10 -15 -13 -9 -10 -8 -10 -10 -9 -10 -6 -5 -7 -10 -10 -10 -9 -9 -9 -9 -10 -10 -10 -10 -10 -10 -10 -11
9 9 9 8 8 7 3 -7 -19 -19 -11 -10 -7 -7 -18 -12 -7 -7 -5 -6 -7 -10 -10 -11 -8 -6 -7 -6 -11 -11 -9 -8 -8 -7 -8 -7 -7 -9 -10 -10 -11 -11 -10 -10 -11
8 9 8 7 8 6 0 -15 -9 -7 -3 -15 -12 -15 -8 -6 -8 -11 -13 -13 -12 -10 -8 -11 -9 -7 -8 -6 -6 -6 -6 -6 -6 -8 -6 -6 -9 -12 -13 -13 -12 -11 -12 -11 -10
8 8 7 7 7 5 -5 -20 -9 -9 -8 -18 -15 -7 -10 -6 -7 -10 -12 -12 -10 -10 -8 -8 -7 -9 -11 -10 -9 -8 -7 -7 -7 -8 -10 -13 -13 -15 -15 -12 -14 -14 -11 -11 -9
7 7 7 7 5 5 -13 -9 -8 -8 -10 -18 -18 -15 -19 -16 -7 -13 -14 -15 -9 -9 -7 -8 -8 -9 -9 -9 -8 -8 -7 -9 -11 -12 -14 -14 -13 -15 -17 -15 -12 -4 3 4 4
7 7 7 6 4 1 -11 -6 -8 -6 -9 -13 -10 -9 -9 -12 -11 -12 -14 -10 -12 -7 -7 -8 -12 -12 -13 -13 -14 -12 -12 -13 -12 -12 -12 -11 -10 -13 -14 -10 2 3 2 2 2
7 7 7 5 3 -1 -1 -4 -4 -7 -6 -7 -6 -9 -9 -10 -12 -13 -13 -15 -13 -13 -12 -10 -12 -10 -10 -11 -14 -11 -13 -10 -9 -8 -6 -9 -7 -13 -14 -3 2 0 -0 -0 -1
7 6 5 4 3 -2 -5 -4 -6 -3 -8 -7 -12 -12 -11 -12 -13 -14 -14 -14 -12 -11 -12 -11 -9 -11 -10 -11 -11 -8 -6 -6 -5 -5 -6 -10 -10 -10 2 3 2 -1 -1 -1 -2
5 6 4 4 -1 -4 -6 -5 -3 -5 -10 -10 -11 -11 -11 -10 -11 -12 -11 -12 -13 -11 -9 -7 -9 -8 -7 -6 -7 -8 -7 -4 -3 -1 -6 -7 -7 -6 3 2 0 -0 -1 -2 -3
5 5 3 2 -1 -3 -3 -0 -7 -7 -8 -10 -11 -11 -11 -12 -11 -9 -11 -10 -6 -8 -6 -7 -8 -5 -7 -7 -7 -7 -7 -6 -3 -4 -5 -9 -8 -0 -0 -2 -2 -2 -3 -3 -3
3 2 0 -6 -4 -2 -5 -4 -8 -8 -11 -11 -11 -9 -10 -11 -11 -10 -9 -9 -7 -9 -8 -7 -5 -6 -8 -10 -9 -5 -4 -8 -5 -7 -4 -7 -2 -0 -2 -2 -3 -3 -4 -4 -4
3 1 -3 -7 -3 -2 -1 -7 -8 -12 -12 -12 -9 -10 -8 -11 -9 -8 -9 -9 -8 -8 -9 -5 -3 -7 -9 -7 -7 -7 -6 -0 -2 2 1 -2 -3 2 -0 -1 -3 -3 -4 -4 -4
2 -1 -2 -1 -1 -2 -1 -5 -11 -12 -12 -11 -10 -10 -10 -8 -8 -7 -9 -9 -7 -4 -4 -4 -5 -7 -6 -6 -6 -3 -3 -3 -3 -3 2 2 3 1 -1 -2 -3 -4 -5 -5 -5
-1 -1 -2 -1 -1 -2 -2 -3 -12 -11 -10 -8 -8 -9 -7 -6 -6 -6 -6 -7 -7 -5 -5 -4 -1 -1 -4 -6 -4 -5 -4 0 1 1 2 3 2 -2 -3 -4 -4 -6 -5 -6 -6
-1 -1 -1 -2 -0 -1 -3 -6 -8 -7 -6 -6 -5 -6 -7 -6 -6 -5 -5 -4 -6 -4 -3 -1 -1 -2 -3 1 -0 -2 -1 1 3 1 1 3 2 -3 -4 -5 -6 -6 -6 -6 -6
-3 -1 -1 -1 -1 -4 -3 -5 -5 -6 -6 -7 -6 -5 -4 -4 -4 -4 -3 -4 -4 -4 -3 -2 -1 -2 -7 -10 -8 -2 -1 0 2 3 -0 3 -1 -3 -4 -6 -7 -7 -7 -7 -7
-5 -2 -3 -1 -2 -3 -4 -4 -5 -4 -6 -7 -5 -4 -4 -3 -3 -3 -4 -3 -5 -4 -4 -1 -1 -1 -1 -3 -2 1 0 0 -0 1 2 -0 -2 -4 -5 -6 -7 -7 -7 -7 -7
-4 -3 -3 -4 -4 -2 -3 -3 -5 -4 -4 -5 -5 -4 -4 -3 -5 -3 -3 -3 -2 -3 -0 -0 0 0 -1 -2 0 -1 -1 -0 -1 0 -1 -2 -3 -6 -6 -7 -8 -8 -8 -8 -8
-4 -5 -4 -3 -4 -4 -3 -4 -4 -3 -5 -5 -4 -3 -3 -3 -4 -5 -5 -3 -3 -2 1 1 1 1 1 0 -0 1 -0 -1 -2 -2 -1 -1 -4 -6 -7 -8 -8 -8 -8 -9 -9

GFSSW_850_dewp_114.txt.gz
Dewpoint
9 9 9 8 8 7 7 4 3 -5 -10 -17 -19 -21 -25 -26 -29 -31 -18 -18 -27 -29 -29 -15 -9 -7 -8 -8 -3 -6 -8 -6 -6 -6 -7 -8 -5 -6 -3 -4 -4 -3 -3 -3 -3
9 9 9 9 8 8 7 5 2 -6 -12 -13 -16 -21 -26 -31 -31 -25 -13 -14 -11 -18 -10 -10 -11 -11 -12 -10 -8 -8 -9 -8 -9 -9 -9 -9 -7 -7 -5 -5 -5 -5 -5 -6 -7
9 8 9 9 9 9 7 5 1 -9 -14 -14 -16 -21 -27 -32 -18 -9 -14 -13 -10 -9 -7 -8 -10 -13 -14 -10 -9 -10 -8 -11 -7 -7 -7 -7 -6 -7 -8 -7 -8 -8 -9 -8 -6
9 9 9 9 8 9 8 5 1 -9 -9 -11 -17 -21 -30 -31 -14 -15 -10 -12 -12 -13 -9 -10 -11 -12 -16 -14 -10 -7 -9 -10 -10 -7 -7 -8 -11 -10 -10 -10 -9 -9 -7 -7 -7
10 9 9 9 9 9 8 6 3 -7 -2 -9 -17 -24 -30 -15 -20 -26 -32 -12 -11 -13 -10 -11 -12 -13 -14 -14 -11 -8 -12 -10 -8 -9 -10 -10 -10 -10 -10 -10 -10 -8 -8 -8 -8
9 9 9 9 9 8 8 6 5 -0 -2 -12 -20 -27 -18 -13 -18 -26 -30 -29 -15 -9 -9 -9 -11 -11 -11 -11 -10 -9 -7 -9 -11 -11 -13 -12 -13 -12 -10 -8 -9 -11 -11 -11 -10
9 10 9 9 9 8 8 7 6 3 -3 -13 -21 -26 -12 -11 -18 -28 -30 -25 -8 -7 -8 -7 -7 -9 -11 -12 -11 -11 -10 -14 -14 -15 -12 -10 -10 -9 -11 -9 -11 -12 -13 -13 -13
10 10 10 9 9 9 8 8 7 4 -2 -14 -21 -18 -9 -19 -28 -30 -21 -16 -9 -10 -8 -9 -9 -9 -9 -8 -8 -8 -10 -12 -12 -11 -12 -11 -14 -17 -9 -10 -12 -13 -14 -14 -14
10 10 9 9 9 8 8 8 6 2 -8 -11 -13 -11 -10 -18 -15 -9 -15 -11 -7 -7 -7 -9 -9 -8 -7 -7 -9 -9 -15 -15 -14 -13 -12 -12 -13 -14 -13 -13 -12 -12 -14 -15 -13
9 9 9 9 8 8 8 7 4 -2 -8 -8 -4 -3 -10 -15 -4 -9 -8 -7 -9 -8 -9 -8 -9 -8 -8 -8 -11 -14 -12 -14 -12 -14 -11 -11 -12 -14 -13 -13 -13 -13 -14 -14 -15
8 8 7 8 8 7 7 5 -3 -2 -5 -5 -8 -10 -10 -4 -8 -9 -7 -9 -9 -9 -8 -9 -8 -8 -10 -10 -10 -10 -9 -10 -13 -12 -10 -10 -12 -15 -18 -19 -18 -17 -15 -15 -7
9 7 7 8 7 7 6 3 -9 -5 -4 -6 -11 -7 -8 -9 -6 -9 -11 -11 -10 -10 -10 -7 -8 -10 -10 -10 -10 -10 -10 -10 -11 -10 -11 -15 -16 -18 -19 -17 -15 -15 -6 1 1
6 7 7 7 7 6 5 -1 -8 -11 -7 -8 -12 -11 -9 -6 -12 -12 -10 -12 -11 -12 -11 -9 -13 -10 -10 -10 -9 -9 -9 -10 -10 -15 -16 -16 -15 -19 -16 -16 -8 0 0 0 0
8 6 7 7 6 5 2 -4 -9 -6 -2 -2 -14 -12 -10 -10 -12 -11 -12 -13 -13 -13 -13 -10 -13 -10 -10 -10 -11 -9 -13 -13 -13 -12 -13 -15 -11 -13 -16 -11 -3 -2 -1 -1 -1
4 6 5 6 6 4 0 -5 -4 -5 6 -8 -9 -8 -9 -12 -13 -13 -13 -12 -12 -11 -10 -10 -11 -10 -9 -10 -12 -12 -12 -11 -11 -10 -9 -11 -10 -11 -16 -12 -1 -1 -0 -1 -1
4 4 6 6 5 3 1 -2 -8 -0 4 -7 -11 -9 -10 -12 -12 -13 -13 -12 -11 -11 -11 -11 -11 -12 -12 -12 -12 -12 -10 -11 -10 -8 -7 -11 -12 -12 -7 2 1 -0 -1 -2 -3
5 5 6 6 4 2 -3 -5 -1 1 -11 -8 -9 -10 -8 -11 -12 -12 -12 -11 -10 -9 -8 -10 -10 -11 -10 -10 -10 -9 -8 -7 -6 -3 -6 -11 -8 -12 1 -0 -1 -2 -2 -3 -3
6 6 5 5 3 -2 -4 -0 3 -2 -8 -11 -11 -10 -7 -10 -11 -11 -11 -10 -9 -11 -8 -8 -8 -10 -8 -9 -9 -7 -8 -8 -10 -11 -11 -9 -7 -6 -1 -3 -3 -3 -3 -3 -4
6 4 3 3 1 -1 -2 1 1 -3 -10 -11 -10 -8 -9 -11 -11 -11 -10 -11 -11 -10 -9 -9 -10 -9 -8 -9 -10 -9 -6 -10 -7 -8 -5 -8 -11 -2 -2 -2 -3 -4 -4 -4 -4
5 2 1 -0 0 -1 -0 1 -4 -12 -12 -13 -11 -10 -8 -9 -9 -10 -10 -12 -9 -10 -12 -9 -8 -11 -10 -9 -10 -10 -9 -2 -5 -0 -1 -6 -6 2 1 -1 -3 -3 -4 -4 -4
4 0 -1 -0 -0 0 1 -1 -7 -13 -13 -11 -11 -9 -10 -9 -10 -10 -12 -11 -10 -9 -9 -8 -7 -10 -8 -8 -9 -6 -5 -5 -4 -3 0 1 4 1 -1 -2 -3 -4 -5 -5 -5
1 -0 -1 -0 0 0 -0 -5 -10 -12 -12 -11 -11 -10 -10 -10 -9 -9 -9 -10 -10 -7 -7 -7 -3 -4 -6 -8 -7 -8 -7 -5 -1 0 -2 1 2 -3 -3 -4 -5 -6 -6 -6 -5
-1 -2 -1 -1 1 0 -4 -6 -10 -11 -11 -10 -9 -10 -8 -8 -6 -8 -7 -6 -6 -7 -7 -4 -4 -3 -3 1 -1 1 -3 -5 -1 2 1 3 2 -3 -3 -5 -6 -6 -6 -6 -6
-1 0 -1 -1 0 -2 -3 -5 -8 -9 -9 -8 -7 -7 -6 -6 -8 -6 -6 -5 -4 -5 -4 -3 -3 -2 -4 -8 -8 -4 -1 -0 1 3 0 3 1 -2 -4 -4 -6 -6 -6 -6 -6
0 -1 -2 1 -0 -3 -5 -6 -8 -7 -8 -8 -6 -7 -7 -6 -6 -6 -7 -4 -5 -4 -5 -2 -2 -1 -2 -4 -4 -1 -0 -1 1 -0 2 2 -0 -3 -4 -5 -6 -6 -6 -6 -6
-0 -3 -4 -3 -4 -2 -4 -6 -8 -6 -6 -7 -7 -7 -7 -7 -8 -5 -5 -4 -1 -5 -4 -4 -1 0 0 -1 -1 2 -1 0 0 -1 -0 -1 -2 -4 -6 -6 -6 -6 -7 -7 -7
-1 -3 -4 -4 -3 -2 -3 -6 -5 -3 -6 -8 -8 -6 -5 -7 -7 -7 -6 -4 -4 -2 -0 2 0 2 2 -1 1 2 0 -0 -1 -1 -0 1 -3 -5 -6 -7 -7 -7 -7 -8 -8

GFSSW_850_dewp_117.txt.gz
Dewpoint
9 9 9 8 8 8 8 8 6 5 1 0 -4 -8 -8 -15 -12 -10 -7 -11 -12 -24 -29 -7 -8 -7 -9 -8 -5 -6 -7 -5 -6 -7 -7 -9 -8 -7 -7 -4 -6 -5 -4 -4 -4
9 9 8 8 8 8 8 7 6 5 2 2 2 -2 -8 -16 -11 -7 -9 -14 -14 -17 -16 -9 -12 -11 -11 -11 -9 -7 -7 -7 -9 -10 -8 -9 -10 -9 -8 -7 -6 -6 -6 -5 -6
9 9 9 8 8 8 8 8 6 5 4 3 3 1 -6 -12 -5 -6 -16 -15 -12 -13 -6 -10 -11 -13 -13 -12 -10 -10 -7 -9 -10 -11 -8 -9 -9 -9 -8 -8 -9 -8 -8 -8 -7
10 9 9 8 8 8 9 8 7 6 5 4 3 2 -8 -8 -5 -7 -19 -15 -13 -9 -7 -10 -12 -13 -14 -15 -13 -11 -11 -11 -11 -12 -9 -9 -9 -10 -11 -11 -10 -10 -9 -8 -7
10 10 10 9 9 9 9 8 8 6 5 4 3 0 -1 -4 -7 -12 -19 -23 -13 -7 -11 -13 -12 -13 -12 -14 -15 -15 -13 -15 -16 -13 -11 -12 -13 -13 -13 -13 -13 -13 -9 -9 -9
10 10 9 9 9 9 9 8 8 7 6 5 2 -7 -3 -2 -10 -12 -12 -5 -7 -9 -13 -15 -16 -15 -14 -15 -13 -14 -14 -12 -14 -13 -14 -14 -15 -16 -17 -15 -11 -11 -12 -12 -12
10 10 10 10 9 9 9 8 8 7 6 6 1 -10 -2 -2 -7 -9 -10 -13 -10 -11 -11 -10 -9 -8 -13 -13 -14 -14 -13 -16 -17 -17 -16 -14 -13 -14 -14 -12 -10 -12 -13 -13 -14
10 10 10 10 9 9 9 9 8 7 7 5 -5 -8 -1 -5 -8 -11 -13 -11 -11 -12 -10 -10 -10 -11 -12 -13 -11 -12 -12 -10 -15 -14 -16 -13 -12 -18 -14 -13 -12 -14 -14 -15 -15
10 10 10 10 9 9 9 8 8 7 6 3 -5 1 -1 -8 -10 -8 -10 -14 -11 -9 -9 -9 -10 -12 -12 -8 -9 -12 -9 -9 -13 -15 -15 -14 -13 -17 -16 -13 -14 -14 -13 -14 -15
9 9 9 9 9 8 8 8 7 5 3 1 1 0 -3 -11 -7 -9 -6 -11 -12 -9 -9 -9 -12 -10 -10 -10 -8 -8 -10 -12 -12 -14 -15 -14 -13 -14 -16 -16 -14 -13 -15 -14 -15
6 9 9 9 8 8 7 7 2 3 2 1 -1 -2 -7 -6 -7 -10 -4 -5 -11 -12 -9 -11 -9 -8 -10 -10 -11 -10 -9 -10 -13 -16 -15 -13 -12 -15 -17 -18 -18 -19 -19 -18 -9
6 8 8 8 7 8 7 6 -2 1 2 0 -2 -3 -4 -7 -7 -8 -9 -10 -9 -8 -10 -9 -6 -9 -12 -12 -9 -8 -10 -11 -13 -15 -13 -11 -12 -17 -18 -18 -19 -17 -16 -4 -1
4 7 8 7 7 7 6 5 4 1 -0 0 -1 -3 -4 -7 -7 -10 -9 -11 -11 -9 -10 -9 -8 -12 -12 -11 -9 -10 -11 -11 -11 -12 -14 -14 -14 -14 -16 -17 -17 -5 -3 -3 -2
6 6 7 7 6 6 6 5 1 -2 4 -0 -6 -9 -9 -8 -9 -10 -13 -9 -11 -11 -11 -11 -13 -12 -12 -10 -11 -10 -13 -13 -11 -11 -9 -12 -7 -10 -12 -14 -10 -4 -2 -1 -1
6 6 4 6 6 5 3 3 -2 1 5 -6 -10 -11 -10 -12 -12 -12 -14 -15 -13 -12 -12 -10 -13 -10 -11 -12 -12 -10 -12 -11 -11 -10 -9 -10 -10 -10 -12 -12 -5 -2 -2 -2 -2
6 6 5 6 6 6 4 1 -1 3 5 -4 -9 -8 -9 -12 -12 -13 -13 -13 -12 -12 -12 -10 -12 -12 -12 -13 -12 -13 -11 -10 -10 -9 -6 -8 -8 -9 -4 0 -1 -3 -2 -2 -3
6 6 5 5 5 5 2 -1 4 5 -6 -5 -7 -9 -9 -9 -11 -12 -11 -10 -9 -7 -7 -10 -10 -12 -11 -10 -11 -10 -7 -4 -3 -4 -4 -8 -9 -10 -1 -2 -2 -3 -3 -3 -3
6 6 6 5 5 4 2 1 6 -3 -3 -10 -10 -9 -7 -9 -10 -10 -10 -9 -11 -10 -8 -6 -4 -10 -11 -9 -10 -11 -8 -5 -3 -4 -7 -13 -8 -4 -3 -4 -4 -3 -3 -3 -3
6 4 6 5 4 3 0 5 2 -0 -4 -8 -10 -7 -7 -8 -9 -9 -8 -8 -10 -9 -6 -8 -9 -12 -10 -11 -10 -11 -9 -10 -6 -7 -5 -8 -12 -4 -2 -2 -3 -3 -4 -4 -4
5 3 2 4 3 -0 3 5 1 -3 -8 -9 -6 -7 -5 -7 -7 -8 -8 -10 -10 -10 -11 -9 -7 -12 -13 -11 -10 -9 -12 -6 -6 -2 -2 -7 -8 3 1 -1 -2 -3 -4 -4 -4
4 1 1 1 -0 1 4 2 -1 -7 -10 -8 -7 -7 -7 -7 -8 -7 -10 -11 -10 -9 -11 -12 -7 -9 -11 -10 -9 -10 -7 -8 -7 -2 1 1 5 1 -1 -2 -2 -4 -5 -5 -4
1 1 -0 -0 0 0 3 0 -3 -7 -11 -10 -9 -9 -8 -9 -9 -9 -9 -11 -10 -11 -7 -10 -5 -4 -9 -13 -11 -10 -8 -7 -1 -3 -0 -2 1 -3 -3 -3 -4 -5 -4 -5 -5
-0 -2 -1 -0 3 2 -1 -1 -4 -7 -10 -10 -9 -9 -10 -9 -8 -9 -8 -8 -9 -8 -9 -8 -6 -4 -6 -6 -4 -1 -4 -8 -4 -0 1 4 3 -3 -3 -5 -5 -4 -4 -5 -5
-1 -0 -1 -1 0 1 1 -1 -3 -8 -9 -10 -10 -10 -8 -9 -9 -6 -7 -6 -7 -9 -6 -5 -3 -1 -2 -1 -4 -2 -3 -3 -3 0 -1 0 4 -1 -2 -4 -5 -4 -4 -4 -5
-0 0 -2 0 0 1 -0 -2 -3 -6 -10 -10 -8 -8 -9 -7 -7 -5 -8 -6 -5 -5 -5 -6 -2 -1 -4 -5 -6 -4 -2 -2 2 0 3 2 1 -2 -3 -4 -4 -4 -5 -5 -6
1 1 -2 -2 -2 0 1 -1 -2 -6 -7 -7 -8 -9 -8 -6 -7 -7 -7 -5 -3 -7 -5 -5 -2 0 -0 -3 -2 1 0 -1 1 1 -0 1 -1 -3 -4 -4 -5 -5 -5 -6 -7
2 0 -1 -1 -1 1 1 -1 -3 -5 -8 -9 -9 -7 -6 -7 -10 -10 -9 -7 -5 -3 -4 -2 1 1 2 -2 -1 3 2 0 1 -1 1 1 -2 -3 -4 -5 -6 -6 -6 -7 -7

GFSSW_850_dewp_120.txt.gz
Dewpoint
9 9 9 9 8 8 8 8 7 5 5 4 4 3 2 2 -0 -5 -4 -8 -10 -14 -22 -11 -8 -7 -8 -9 -6 -6 -4 -4 -6 -6 -7 -9 -8 -9 -8 -7 -6 -5 -6 -4 -4
10 9 9 9 8 8 8 7 8 6 5 5 4 3 2 1 -5 -4 -6 -17 -17 -18 -23 -9 -10 -11 -10 -10 -10 -8 -5 -5 -8 -10 -9 -10 -9 -10 -10 -9 -8 -7 -7 -6 -6
10 10 9 9 8 8 8 8 8 8 5 5 4 4 3 0 -2 -1 -14 -18 -19 -16 -7 -8 -10 -12 -13 -13 -12 -10 -7 -8 -9 -10 -11 -11 -10 -9 -9 -8 -8 -8 -9 -9 -8
9 10 10 9 9 8 8 8 7 8 7 6 5 5 4 -2 -2 -7 -11 -13 -20 -23 -3 -9 -11 -12 -13 -13 -14 -11 -11 -11 -11 -14 -12 -12 -11 -11 -11 -10 -12 -11 -11 -10 -8
9 10 10 10 9 9 9 8 8 7 7 7 6 5 3 1 -2 -8 -11 -13 -25 -11 -9 -12 -13 -13 -12 -12 -13 -13 -14 -14 -14 -14 -16 -14 -13 -13 -14 -14 -14 -15 -14 -11 -9
10 10 10 10 9 9 9 9 8 8 7 7 6 5 -0 -0 -4 -10 -8 -6 -6 -7 -10 -13 -15 -16 -15 -13 -13 -15 -14 -14 -14 -14 -16 -15 -15 -16 -16 -16 -17 -12 -12 -12 -12
10 10 10 10 10 10 10 9 9 9 8 7 6 2 -0 0 -2 -7 -8 -12 -10 -10 -12 -12 -11 -10 -10 -10 -13 -12 -12 -13 -15 -16 -16 -17 -15 -13 -14 -15 -14 -11 -12 -12 -13
10 10 10 10 9 9 9 9 9 8 8 7 5 -4 -0 -0 -3 -7 -9 -10 -11 -13 -12 -11 -10 -10 -11 -13 -13 -12 -11 -8 -12 -12 -15 -15 -12 -13 -14 -14 -13 -12 -12 -14 -15
10 9 10 9 9 9 9 9 8 8 7 6 2 2 2 -5 -7 -8 -12 -13 -14 -10 -11 -11 -11 -10 -12 -11 -8 -7 -6 -8 -9 -13 -14 -14 -11 -14 -15 -16 -14 -12 -14 -14 -13
7 7 9 9 9 9 8 8 8 7 5 4 3 1 -0 -7 -9 -6 -9 -8 -14 -10 -9 -9 -9 -11 -11 -9 -6 -6 -6 -7 -8 -12 -14 -13 -13 -15 -15 -14 -14 -15 -15 -14 -14
-0 2 8 8 9 8 8 7 5 4 3 3 2 1 -0 -2 -5 -7 -8 -7 -13 -12 -8 -9 -8 -7 -9 -9 -9 -8 -8 -8 -9 -10 -11 -11 -12 -14 -14 -13 -15 -16 -17 -15 -15
5 3 3 7 8 8 7 7 2 2 3 3 2 1 0 -2 -3 -4 -8 -6 -6 -8 -10 -9 -6 -9 -9 -8 -8 -10 -8 -7 -8 -12 -12 -12 -12 -13 -13 -14 -16 -16 -12 -3 -3
6 5 7 7 8 8 7 7 6 1 0 1 -0 -1 -1 -2 -3 -4 -6 -8 -8 -7 -6 -5 -6 -8 -9 -10 -9 -9 -8 -7 -9 -12 -13 -12 -10 -11 -14 -13 -14 -8 -4 -2 -1
7 6 7 7 7 7 7 6 4 2 3 -5 -4 -4 -2 -5 -6 -6 -6 -8 -8 -7 -9 -8 -10 -10 -9 -9 -10 -8 -10 -11 -11 -10 -8 -12 -7 -10 -12 -12 -11 -2 -1 -2 -2
7 7 5 6 6 6 6 6 3 1 2 -9 -7 -9 -9 -7 -11 -11 -6 -11 -8 -6 -9 -8 -10 -10 -11 -11 -11 -10 -12 -10 -10 -9 -8 -9 -8 -8 -9 -9 -0 -2 -2 -3 -3
5 6 6 6 6 6 4 3 0 4 4 -5 -9 -10 -9 -9 -11 -12 -13 -13 -13 -12 -12 -12 -14 -12 -11 -12 -12 -12 -11 -10 -10 -8 -4 -7 -7 -7 -3 -0 -1 -3 -3 -3 -3
5 6 6 6 6 6 4 0 6 6 -6 -5 -6 -7 -8 -8 -11 -11 -10 -10 -9 -7 -6 -9 -10 -12 -12 -10 -11 -11 -8 -3 -3 -2 -2 -7 -7 1 -1 -2 -3 -3 -3 -3 -3
5 6 6 6 6 5 0 3 7 -3 -2 -9 -8 -8 -6 -8 -9 -10 -10 -8 -10 -9 -8 -6 -5 -8 -10 -9 -8 -8 -9 -4 -2 -1 -2 -8 -6 -1 -3 -3 -3 -3 -3 -4 -4
4 5 5 5 5 4 2 6 3 -2 -4 -5 -8 -7 -7 -8 -8 -8 -8 -8 -9 -10 -6 -5 -6 -12 -11 -11 -10 -8 -7 -10 -5 -7 -3 -6 -9 -1 -1 -2 -3 -3 -4 -4 -4
4 4 4 5 5 2 4 5 1 -3 -3 -4 -4 -7 -5 -6 -6 -7 -7 -9 -8 -10 -10 -7 -4 -9 -10 -12 -12 -9 -10 -4 -6 -2 -2 -6 -4 3 1 -1 -2 -3 -4 -4 -4
3 2 3 3 2 2 4 4 1 -1 -1 -5 -4 -6 -6 -6 -7 -6 -7 -10 -10 -10 -10 -11 -9 -9 -9 -9 -10 -9 -6 -7 -7 -6 -2 1 3 1 -0 -1 -2 -4 -4 -5 -4
2 1 1 2 1 -0 4 1 -1 1 -1 -6 -7 -7 -6 -7 -6 -6 -6 -8 -11 -11 -8 -10 -7 -3 -6 -10 -12 -12 -10 -8 -0 -2 -5 -2 3 -2 -2 -4 -5 -5 -4 -5 -4
1 -1 0 1 2 2 2 1 1 -1 -4 -8 -7 -8 -7 -7 -5 -7 -8 -7 -10 -9 -7 -9 -6 -3 -7 -8 -11 -11 -7 -6 -5 -0 0 2 3 -2 -3 -5 -4 -4 -4 -5 -4
-0 -0 -1 -0 0 1 3 2 1 -2 -4 -7 -8 -8 -7 -7 -8 -6 -8 -5 -6 -8 -7 -4 -4 -1 -3 -2 -3 0 3 -3 -3 0 -1 1 2 -1 -3 -4 -4 -4 -4 -4 -6
-0 -0 -2 -0 0 1 2 0 1 2 -6 -8 -8 -7 -7 -5 -7 -7 -8 -4 -6 -6 -6 -6 -3 -2 -4 -6 -8 -5 -4 -5 1 -1 2 3 2 -2 -3 -3 -4 -4 -5 -5 -6
1 -1 -2 -2 -2 0 2 5 1 -2 -5 -6 -6 -8 -7 -6 -7 -5 -6 -5 -2 -5 -4 -6 -3 -0 -0 -4 -4 -2 -2 -3 -0 1 2 1 0 -4 -3 -3 -4 -5 -6 -6 -7
0 -2 -2 -2 -1 1 1 2 -0 -1 -5 -8 -8 -6 -6 -8 -9 -7 -9 -9 -6 -5 -3 -2 1 -1 -0 -2 -1 1 2 2 1 -0 -1 1 -1 -3 -3 -5 -5 -6 -6 -7 -7

GFSSW_850_dewp_123.txt.gz
Dewpoint
9 9 9 9 9 8 8 7 7 7 6 5 4 4 3 2 -1 -5 -5 -7 -10 -13 -19 -20 -9 -9 -7 -8 -8 -7 -4 -2 -4 -5 -7 -10 -7 -8 -10 -10 -7 -6 -6 -6 -6
9 9 9 9 9 8 8 8 8 7 7 5 4 4 4 3 -3 -4 -13 -20 -19 -20 -15 -8 -8 -10 -10 -9 -9 -8 -4 -4 -5 -8 -9 -11 -11 -10 -9 -9 -9 -9 -8 -10 -9
9 9 9 9 9 9 8 8 8 7 7 7 5 5 4 2 -2 -1 -13 -14 -13 -15 -8 -7 -10 -11 -11 -13 -13 -11 -6 -7 -9 -10 -11 -11 -12 -11 -10 -9 -8 -11 -11 -11 -10
9 9 9 9 9 9 9 9 8 7 7 7 6 5 3 2 -0 -2 -4 -7 -9 -18 -14 -8 -10 -11 -11 -11 -12 -11 -12 -11 -11 -11 -13 -14 -15 -13 -12 -12 -14 -14 -14 -14 -10
9 9 9 9 9 9 9 9 9 8 8 7 7 6 4 2 0 -7 -8 -6 -9 -16 -8 -11 -13 -13 -12 -13 -15 -13 -12 -14 -15 -14 -14 -13 -14 -13 -14 -14 -15 -15 -15 -14 -11
10 10 10 9 10 10 9 9 9 9 9 8 7 6 3 0 -2 -7 -7 -6 -7 -6 -6 -11 -13 -15 -14 -13 -10 -12 -12 -12 -13 -14 -14 -14 -16 -14 -15 -16 -16 -16 -16 -12 -11
10 10 10 10 10 9 9 9 10 9 8 8 7 6 3 2 -1 -3 -5 -6 -9 -9 -10 -12 -11 -11 -9 -9 -11 -12 -11 -12 -12 -12 -13 -14 -15 -15 -16 -15 -14 -14 -12 -12 -12
10 9 8 10 9 9 8 9 9 9 9 8 7 4 2 2 1 -3 -5 -6 -9 -12 -12 -10 -12 -9 -9 -10 -11 -11 -10 -8 -11 -12 -12 -14 -11 -14 -16 -14 -13 -12 -11 -12 -13
9 7 6 9 9 9 9 8 9 8 8 8 6 3 3 -2 -6 -8 -7 -10 -13 -13 -11 -12 -12 -10 -10 -9 -8 -8 -5 -6 -7 -10 -14 -14 -12 -14 -14 -14 -13 -14 -12 -12 -13
3 8 9 9 9 9 9 8 8 7 7 5 4 3 1 -4 -7 -8 -7 -8 -9 -14 -10 -9 -9 -9 -9 -9 -6 -7 -6 -7 -7 -9 -9 -10 -11 -13 -14 -15 -14 -13 -13 -13 -3
-1 1 3 6 9 9 8 7 7 3 4 4 3 1 1 1 -1 -5 -7 -8 -7 -13 -7 -8 -6 -5 -8 -9 -9 -9 -6 -7 -9 -9 -9 -10 -11 -13 -14 -13 -13 -13 -12 -3 -1
0 5 4 7 8 8 8 7 4 3 3 4 4 3 3 2 1 -2 -4 -6 -5 -8 -11 -7 -5 -7 -8 -8 -7 -5 -6 -7 -8 -9 -9 -10 -11 -13 -13 -13 -12 -7 -2 -2 -2
2 6 6 5 7 8 7 6 6 4 0 2 2 2 3 2 1 -1 -3 -5 -6 -5 -5 -5 -6 -7 -7 -7 -6 -8 -8 -8 -8 -10 -12 -11 -10 -11 -12 -13 -2 -2 -2 -2 -2
3 6 6 4 7 6 6 5 5 3 3 0 -2 -1 0 -1 -2 -4 -3 -4 -7 -6 -6 -6 -7 -6 -7 -8 -9 -8 -9 -9 -8 -8 -6 -10 -6 -9 -11 -6 -1 -2 -3 -3 -3
5 6 6 5 5 6 5 6 4 1 4 -6 -8 -7 -3 -3 -10 -10 -9 -5 -4 -6 -6 -5 -8 -8 -8 -9 -11 -8 -9 -9 -9 -8 -8 -9 -7 -8 -10 -0 -2 -3 -3 -3 -3
5 5 6 6 6 5 5 5 2 4 5 -4 -9 -8 -8 -7 -9 -12 -8 -10 -12 -10 -8 -8 -12 -12 -10 -11 -10 -10 -10 -8 -8 -7 -4 -8 -7 -3 1 -0 -2 -3 -3 -4 -4
4 6 5 6 6 5 5 2 5 6 -4 -6 -6 -8 -7 -7 -7 -10 -10 -10 -10 -7 -5 -8 -9 -11 -13 -9 -10 -10 -8 -2 -0 -0 -2 -7 -5 3 -1 -2 -2 -2 -3 -4 -4
1 5 6 6 6 6 2 4 6 1 -2 -4 -6 -6 -5 -7 -8 -8 -9 -7 -10 -9 -6 -5 -3 -8 -9 -9 -8 -7 -7 -1 1 -0 -3 -7 -3 2 -2 -3 -3 -3 -4 -4 -4
1 4 5 5 5 5 3 5 3 -1 -3 -4 -5 -5 -5 -6 -5 -7 -7 -7 -8 -9 -5 -5 -5 -9 -10 -10 -9 -7 -6 -8 -5 -6 -3 -5 -1 0 -2 -2 -3 -3 -3 -4 -4
1 4 4 5 5 3 4 3 3 -2 -3 -3 1 -3 -4 -6 -5 -6 -6 -7 -7 -7 -7 -6 -3 -8 -10 -10 -10 -9 -9 -3 -1 -0 -1 -3 -2 4 1 -0 -1 -3 -3 -4 -4
1 3 3 4 4 1 4 4 1 -0 -2 -1 -0 -2 -4 -4 -5 -4 -5 -8 -9 -8 -10 -10 -6 -6 -8 -8 -7 -7 -5 -5 -4 -4 -1 -1 -2 1 -1 -1 -2 -4 -4 -4 -5
2 2 2 3 1 0 3 3 -0 -1 -1 -0 1 -5 -2 -4 -5 -4 -3 -5 -11 -9 -8 -7 -4 -3 -4 -8 -9 -9 -7 -5 -1 -3 -3 -2 -1 -2 -2 -3 -4 -5 -5 -5 -5
1 0 1 2 2 1 1 2 2 1 0 2 2 -5 -7 -4 -3 -5 -3 -6 -10 -8 -6 -7 -4 -2 -3 -4 -4 -1 0 1 -0 -0 -0 2 0 -1 -2 -4 -5 -5 -5 -5 -6
1 -0 -0 0 0 1 1 2 3 0 1 2 -1 -6 -6 -4 -5 -6 -3 -5 -8 -6 -8 -7 -3 -2 -2 -3 -3 -3 -4 -2 2 4 0 -0 -1 -0 -3 -4 -5 -5 -5 -5 -6
0 -0 -1 -1 0 1 1 1 2 3 -1 -0 1 -5 -5 -4 -5 -5 -3 -3 -5 -4 -7 -5 -2 -4 -3 -4 -5 -3 -4 -5 -2 -1 1 -1 1 -1 -3 -4 -4 -5 -5 -6 -7
0 0 -2 -1 -1 1 2 4 3 2 1 -2 -2 -5 -6 -4 -5 -6 -5 -2 -3 -3 -4 -4 -2 -3 -4 -3 -3 -1 -2 -3 -3 -2 -0 -0 0 -3 -3 -4 -4 -5 -6 -7 -8
0 -3 -3 -2 -1 1 0 1 3 1 1 -4 -4 -5 -4 -5 -7 -7 -8 -7 -3 -3 -2 -3 -2 -3 -1 -2 0 0 -3 -2 -2 -1 0 2 -1 -3 -4 -4 -5 -6 -7 -8 -8

GFSSW_850_dewp_129.txt.gz
Dewpoint
9 9 9 9 8 8 8 8 7 7 7 6 5 5 4 3 -1 -10 -10 -8 -7 -18 -18 -9 -8 -9 -8 -8 -8 -8 -4 -3 -4 -4 -6 -9 -11 -12 -11 -11 -9 -10 -11 -10 -7
9 9 9 8 8 8 8 8 8 7 7 7 6 5 5 4 2 -4 -7 -5 -6 -9 -8 -8 -9 -10 -10 -9 -8 -8 -4 -4 -5 -6 -6 -9 -11 -12 -13 -11 -10 -12 -12 -14 -9
10 10 9 9 8 8 8 8 8 8 8 8 7 6 6 4 2 -3 -2 -5 -6 -4 -12 -9 -9 -10 -11 -12 -12 -10 -8 -9 -9 -10 -8 -9 -13 -13 -13 -10 -14 -14 -14 -15 -14
9 9 9 8 8 8 8 8 8 8 8 8 7 6 6 4 2 1 -1 -3 -4 -7 -17 -9 -12 -12 -11 -11 -12 -13 -12 -12 -12 -13 -13 -14 -14 -14 -14 -14 -14 -14 -14 -16 -16
9 9 8 8 8 8 8 8 9 9 9 8 8 7 6 5 4 1 -1 -2 -5 -7 -9 -10 -12 -11 -13 -13 -12 -13 -12 -12 -12 -13 -13 -13 -14 -14 -14 -14 -14 -16 -16 -15 -13
9 9 9 9 9 9 8 8 9 8 9 9 8 8 7 5 3 2 1 -2 -4 -6 -7 -9 -11 -11 -10 -9 -9 -10 -11 -12 -12 -12 -12 -13 -13 -14 -13 -13 -14 -16 -12 -7 -4
9 10 9 10 10 10 9 8 9 7 9 9 9 8 8 6 4 2 2 -3 -5 -5 -8 -10 -12 -12 -11 -9 -9 -10 -11 -11 -12 -12 -12 -13 -11 -12 -12 -13 -15 -12 -2 -0 -0
5 9 10 10 9 8 8 9 9 9 8 9 8 8 7 5 4 4 2 -5 -6 -7 -8 -10 -12 -12 -11 -10 -10 -10 -10 -8 -11 -11 -10 -11 -8 -12 -13 -14 -14 -1 -0 -1 -1
0 7 9 8 9 8 7 8 9 9 9 9 8 7 6 5 3 -4 -5 -5 -4 -11 -13 -11 -11 -11 -10 -9 -8 -9 -8 -7 -7 -9 -10 -11 -10 -12 -13 -13 -12 -1 -1 -1 -2
-3 3 7 9 8 8 7 8 9 9 8 8 7 6 5 4 -6 -5 -6 -6 -7 -8 -11 -13 -9 -9 -9 -9 -5 -7 -7 -7 -7 -9 -9 -9 -9 -11 -5 -5 -1 -1 -2 -2 -3
-4 -1 1 2 6 6 8 8 8 7 7 7 5 5 -0 -1 -2 -3 -6 -6 -8 -8 -9 -8 -7 -5 -7 -9 -9 -9 -8 -8 -9 -10 -8 -9 -9 -12 -2 -2 -2 -2 -3 -3 -3
-3 -3 -2 2 6 7 8 8 7 3 4 4 4 5 5 4 3 -0 -2 -6 -8 -6 -11 -11 -6 -7 -7 -7 -6 -6 -6 -5 -6 -8 -9 -10 -10 -1 -2 -2 -3 -3 -3 -3 -4
0 -1 3 5 5 6 6 6 6 5 3 3 2 4 4 4 4 4 2 -1 -6 -5 -7 -8 -10 -9 -7 -6 -5 -5 -5 -5 -6 -9 -11 -10 -9 -3 -2 -3 -3 -3 -4 -4 -4
2 3 6 6 5 5 6 7 5 3 2 1 0 -1 3 2 2 -3 2 0 -5 -3 -3 -4 -5 -6 -6 -5 -5 -3 -8 -8 -9 -9 -7 -10 -6 -8 -1 -2 -3 -3 -4 -4 -4
4 2 2 5 4 4 4 5 5 0 1 -7 -1 -2 1 1 -5 -0 2 1 -3 -5 -6 -4 -6 -6 -7 -5 -8 -8 -10 -10 -9 -9 -8 -8 -7 -4 -1 -0 -2 -3 -4 -4 -5
4 3 4 5 3 2 4 6 4 2 3 -4 -5 -1 3 2 -10 -7 -2 -2 -2 -3 -5 -6 -8 -10 -8 -9 -10 -10 -10 -8 -7 -7 -5 -7 -8 -7 1 -0 -2 -3 -4 -4 -5
3 4 4 5 3 3 4 6 5 4 -2 -2 -6 -5 -1 -4 -7 -11 -9 -10 -8 -4 -5 -8 -9 -11 -10 -9 -11 -10 -8 -3 -2 -2 -3 -6 -5 -6 -1 -2 -2 -3 -4 -4 -5
3 4 4 5 4 4 6 4 6 2 0 -2 -7 -6 -2 -6 -6 -10 -9 -6 -10 -9 -7 -6 -5 -8 -10 -9 -8 -8 -7 -3 -1 1 -3 -6 -4 -2 -2 -2 -3 -3 -4 -4 -5
2 3 5 4 5 5 4 5 3 1 -0 -2 -6 -6 -5 -6 -6 -7 -8 -8 -9 -10 -7 -5 -5 -9 -11 -11 -9 -7 -6 -7 -5 -4 -2 -4 -0 -1 -2 -2 -2 -3 -4 -4 -5
1 2 4 4 5 4 4 3 3 0 -2 -2 -1 -4 -3 -4 -5 -6 -6 -8 -8 -9 -9 -7 -4 -7 -9 -10 -10 -9 -8 -4 -1 -0 0 -3 -4 -1 0 -0 -2 -3 -4 -4 -5
1 2 2 3 4 3 4 4 2 1 -1 0 -0 1 -1 -4 -4 -4 -5 -7 -7 -7 -9 -8 -5 -6 -9 -8 -7 -7 -7 -6 -4 -3 -1 -2 -3 -4 -2 -1 -3 -4 -4 -5 -5
1 1 1 2 2 1 2 1 1 1 -0 -0 -0 1 0 -4 -3 -4 -3 -5 -7 -8 -8 -9 -5 -4 -6 -8 -8 -8 -6 -5 -1 -3 -3 -3 -3 -1 -3 -3 -4 -5 -5 -5 -6
1 0 2 3 2 2 1 1 1 1 1 0 1 0 -0 -2 -3 -3 -4 -5 -7 -8 -7 -6 -5 -3 -4 -6 -5 -5 -2 -4 -1 -1 -1 -2 -2 -2 -3 -4 -5 -5 -5 -6 -6
0 0 1 1 0 -0 0 1 2 0 1 1 2 1 0 -5 -4 -4 -5 -3 -5 -4 -6 -7 -5 -3 -2 -4 -4 -3 -3 -2 -3 0 -1 -1 -3 -0 -2 -4 -5 -5 -5 -6 -7
-0 -0 -2 0 1 1 -1 -1 0 1 0 0 1 2 0 1 -2 -2 -3 -4 -5 -5 -6 -6 -5 -4 -4 -4 -4 -3 -3 -4 -3 -3 -1 -4 -2 -3 -2 -3 -4 -5 -5 -6 -7
-1 -0 -1 -2 -1 -0 1 -0 0 0 1 1 2 2 1 -0 -3 -1 -2 -3 -4 -4 -6 -5 -3 -5 -6 -5 -3 -2 -3 -4 -4 -4 -3 -3 -3 -4 -3 -4 -5 -5 -6 -6 -9
-1 -1 -1 -2 -2 0 -1 -1 -1 -1 -1 -1 -0 0 2 2 -1 -3 -3 -1 -2 -3 -3 -4 -4 -5 -3 -2 -2 -1 -2 -2 -2 -3 -3 -2 -4 -3 -4 -4 -5 -5 -6 -7 -13